[[{"header":{"parameterUnit":"m.s-1","parameterCategory":1,"la1":30.6,"la2":29.2853,"lo1":-89.7004,"lo2":-87.6739,"dy":0.0162,"dx":0.0183,"nx":112,"ny":82,"refTime":"2024-10-09T12:00:00:Z","depth":0,"parameterNumber":2,"parameterNumberName":"U-component_of_WINDS"},"data":[0.0,0.0,0.0,0.0,0.0,0.0,0.0,0.0,0.0,0.0,0.0,0.0,0.0,0.0,0.0,0.0,0.0,0.0,0.0,0.0,0.0,0.0,0.0,0.0,0.0,0.0,0.0,0.0,0.0,0.0,0.0,0.0,0.0,0.0,0.0,0.0,0.0,0.0,0.0,0.0,0.0,0.0,0.0,0.0,0.0,0.0,0.0,0.0,0.0,0.0,0.0,0.0,0.0,0.0,0.0,0.0,0.0,0.0,0.0,0.0,0.0,0.0,0.0,0.0,0.0,0.0,0.0,0.0,0.0,0.0,0.0,0.0,0.0,0.0,0.0,0.0,0.0,0.0,0.0,0.0,0.0,0.0,0.0,0.0,0.0,0.0,0.0,0.0,0.0,0.0,0.0,-1.8408,-2.1038,-2.2415,-2.1933,-2.0363,-1.8783,-1.7361,0.0,0.0,0.0,0.0,0.0,0.0,0.0,0.0,0.0,0.0,0.0,0.0,0.0,0.0,0.0,0.0,0.0,0.0,0.0,0.0,0.0,0.0,0.0,0.0,0.0,0.0,0.0,0.0,0.0,0.0,0.0,0.0,0.0,0.0,0.0,0.0,0.0,0.0,0.0,0.0,0.0,0.0,0.0,0.0,0.0,0.0,0.0,0.0,0.0,0.0,0.0,0.0,0.0,0.0,0.0,0.0,0.0,0.0,0.0,0.0,0.0,0.0,0.0,0.0,0.0,0.0,0.0,0.0,0.0,0.0,0.0,0.0,0.0,0.0,0.0,0.0,0.0,0.0,0.0,0.0,0.0,0.0,0.0,0.0,0.0,0.0,0.0,0.0,0.0,0.0,0.0,0.0,0.0,0.0,0.0,0.0,0.0,0.0,0.0,0.0,0.0,0.0,0.0,0.0,-1.7741,-2.0894,-2.1023,-2.1131,-2.1752,-1.9786,-1.8123,-1.7262,0.0,0.0,0.0,0.0,0.0,0.0,0.0,0.0,0.0,0.0,0.0,0.0,0.0,0.0,0.0,0.0,0.0,0.0,0.0,0.0,0.0,0.0,0.0,0.0,0.0,0.0,0.0,0.0,0.0,0.0,0.0,0.0,0.0,0.0,0.0,0.0,0.0,0.0,0.0,0.0,0.0,0.0,0.0,0.0,0.0,0.0,0.0,0.0,0.0,0.0,0.0,0.0,0.0,0.0,0.0,0.0,0.0,0.0,0.0,0.0,0.0,0.0,0.0,0.0,0.0,0.0,0.0,0.0,0.0,0.0,0.0,0.0,0.0,0.0,0.0,0.0,0.0,0.0,0.0,0.0,0.0,0.0,0.0,0.0,0.0,0.0,0.0,0.0,0.0,0.0,0.0,0.0,0.0,0.0,0.0,0.0,0.0,0.0,0.0,0.0,0.0,0.0,0.0,-1.6075,-1.8448,-2.0791,-2.1111,-2.1136,-2.1096,-1.935,-1.7755,-1.6573,-1.3904,0.0,0.0,0.0,0.0,0.0,0.0,0.0,0.0,0.0,0.0,0.0,0.0,0.0,0.0,0.0,0.0,0.0,0.0,0.0,0.0,0.0,0.0,0.0,0.0,0.0,0.0,0.0,0.0,0.0,0.0,0.0,0.0,0.0,0.0,0.0,0.0,0.0,0.0,0.0,0.0,0.0,0.0,0.0,0.0,0.0,0.0,0.0,0.0,0.0,0.0,0.0,0.0,0.0,0.0,0.0,0.0,0.0,0.0,0.0,0.0,0.0,0.0,0.0,0.0,0.0,0.0,0.0,0.0,0.0,0.0,0.0,0.0,0.0,0.0,0.0,0.0,0.0,0.0,0.0,0.0,0.0,0.0,0.0,0.0,0.0,0.0,0.0,0.0,0.0,0.0,0.0,0.0,0.0,0.0,0.0,0.0,0.0,0.0,0.0,0.0,0.0,0.0,-1.689,-1.8473,-2.0212,-2.0838,-2.0956,-2.0543,-1.8911,-1.7333,-1.5959,-1.3621,0.0,0.0,0.0,0.0,0.0,0.0,0.0,0.0,0.0,0.0,0.0,0.0,0.0,0.0,0.0,0.0,0.0,0.0,0.0,0.0,0.0,0.0,0.0,0.0,0.0,0.0,0.0,0.0,0.0,0.0,0.0,0.0,0.0,0.0,0.0,0.0,0.0,0.0,0.0,0.0,0.0,0.0,0.0,0.0,0.0,0.0,0.0,0.0,0.0,0.0,0.0,0.0,0.0,0.0,0.0,0.0,0.0,0.0,0.0,0.0,0.0,0.0,0.0,0.0,0.0,0.0,0.0,0.0,0.0,0.0,0.0,0.0,0.0,0.0,0.0,0.0,0.0,0.0,0.0,0.0,0.0,0.0,0.0,0.0,0.0,0.0,0.0,0.0,0.0,0.0,0.0,0.0,0.0,0.0,0.0,0.0,0.0,0.0,0.0,0.0,0.0,0.0,-1.6403,-1.7859,-2.0165,-1.9851,-1.9748,-2.0433,-1.8412,-1.6724,-1.5857,-1.3607,0.0,0.0,0.0,0.0,0.0,0.0,0.0,0.0,0.0,0.0,0.0,0.0,0.0,0.0,0.0,0.0,0.0,0.0,0.0,0.0,0.0,0.0,0.0,0.0,0.0,0.0,0.0,0.0,0.0,0.0,0.0,0.0,0.0,0.0,0.0,0.0,0.0,0.0,0.0,0.0,0.0,0.0,0.0,0.0,0.0,0.0,0.0,0.0,0.0,0.0,0.0,0.0,0.0,0.0,0.0,0.0,0.0,0.0,0.0,0.0,0.0,0.0,0.0,0.0,0.0,0.0,0.0,0.0,0.0,0.0,0.0,0.0,0.0,0.0,0.0,0.0,0.0,0.0,0.0,0.0,0.0,0.0,0.0,0.0,0.0,0.0,0.0,0.0,0.0,0.0,0.0,0.0,0.0,0.0,0.0,0.0,0.0,0.0,0.0,0.0,0.0,0.0,-1.6016,-1.7534,0.0,-1.9385,-1.9151,-1.8958,-1.7701,-1.6183,-1.4406,0.0,0.0,0.0,0.0,0.0,0.0,0.0,0.0,0.0,0.0,0.0,0.0,0.0,0.0,0.0,0.0,0.0,0.0,0.0,0.0,0.0,0.0,0.0,0.0,0.0,0.0,0.0,0.0,0.0,0.0,0.0,0.0,0.0,0.0,0.0,0.0,0.0,0.0,0.0,0.0,0.0,0.0,0.0,0.0,0.0,0.0,0.0,0.0,0.0,0.0,0.0,0.0,0.0,0.0,0.0,0.0,0.0,0.0,0.0,0.0,0.0,0.0,0.0,0.0,0.0,0.0,0.0,0.0,0.0,0.0,0.0,0.0,0.0,0.0,0.0,0.0,0.0,0.0,0.0,0.0,0.0,0.0,0.0,0.0,0.0,0.0,0.0,0.0,0.0,0.0,0.0,0.0,0.0,0.0,0.0,0.0,0.0,0.0,0.0,0.0,0.0,0.0,-1.3858,-1.5419,-1.6918,0.0,-1.8422,-1.8249,-1.7698,-1.6968,-1.5643,-1.3526,0.0,0.0,0.0,0.0,0.0,0.0,0.0,0.0,0.0,0.0,0.0,0.0,0.0,0.0,0.0,0.0,0.0,0.0,0.0,0.0,0.0,0.0,0.0,0.0,0.0,0.0,0.0,0.0,0.0,0.0,0.0,0.0,0.0,0.0,0.0,0.0,0.0,0.0,0.0,0.0,0.0,0.0,0.0,0.0,0.0,0.0,0.0,0.0,0.0,0.0,0.0,0.0,0.0,0.0,0.0,0.0,0.0,0.0,0.0,0.0,0.0,0.0,0.0,0.0,0.0,0.0,0.0,0.0,0.0,0.0,0.0,0.0,0.0,0.0,0.0,0.0,0.0,0.0,0.0,0.0,0.0,0.0,0.0,0.0,0.0,0.0,0.0,0.0,0.0,0.0,0.0,0.0,0.0,0.0,0.0,0.0,0.0,0.0,0.0,0.0,0.0,0.0,-1.3101,-1.4593,-1.592,-1.6706,-1.6858,-1.6899,-1.6883,-1.6213,-1.512,0.0,0.0,0.0,0.0,0.0,0.0,0.0,0.0,0.0,0.0,0.0,0.0,0.0,0.0,0.0,0.0,0.0,0.0,0.0,0.0,0.0,0.0,0.0,0.0,0.0,0.0,0.0,0.0,0.0,0.0,0.0,0.0,0.0,0.0,0.0,0.0,0.0,0.0,0.0,0.0,0.0,0.0,0.0,0.0,0.0,0.0,0.0,0.0,0.0,0.0,0.0,0.0,0.0,0.0,0.0,0.0,0.0,0.0,0.0,0.0,0.0,0.0,0.0,0.0,0.0,0.0,0.0,0.0,0.0,0.0,0.0,0.0,0.0,0.0,0.0,0.0,0.0,0.0,0.0,0.0,0.0,0.0,0.0,0.0,0.0,0.0,0.0,0.0,0.0,0.0,0.0,0.0,0.0,0.0,0.0,0.0,0.0,0.0,0.0,0.0,0.0,0.0,0.0,0.0,-1.4593,-1.592,-1.6706,-1.6858,-1.668,-1.6107,-1.5894,-1.4873,-1.2682,0.0,0.0,0.0,0.0,0.0,0.0,0.0,0.0,0.0,0.0,0.0,0.0,0.0,0.0,0.0,0.0,0.0,0.0,0.0,0.0,0.0,0.0,0.0,0.0,0.0,0.0,0.0,0.0,0.0,0.0,0.0,0.0,0.0,0.0,0.0,0.0,0.0,0.0,0.0,0.0,0.0,0.0,0.0,0.0,0.0,0.0,0.0,0.0,0.0,0.0,0.0,0.0,0.0,0.0,0.0,0.0,0.0,0.0,0.0,0.0,0.0,0.0,0.0,0.0,0.0,0.0,0.0,0.0,0.0,0.0,0.0,0.0,0.0,0.0,0.0,0.0,0.0,0.0,0.0,0.0,0.0,0.0,0.0,0.0,0.0,0.0,0.0,0.0,0.0,0.0,0.0,0.0,0.0,0.0,0.0,0.0,0.0,0.0,0.0,0.0,0.0,0.0,-1.2701,-1.4166,-1.5343,-1.5835,-1.5923,-1.5759,-1.5306,-1.5322,-1.4487,-1.2417,0.0,0.0,0.0,0.0,0.0,0.0,0.0,0.0,0.0,0.0,0.0,0.0,0.0,0.0,0.0,0.0,0.0,0.0,0.0,0.0,0.0,0.0,0.0,0.0,0.0,0.0,0.0,0.0,0.0,0.0,0.0,0.0,0.0,0.0,0.0,0.0,0.0,0.0,0.0,0.0,0.0,0.0,0.0,0.0,0.0,0.0,0.0,0.0,0.0,0.0,0.0,0.0,0.0,0.0,0.0,0.0,0.0,0.0,0.0,0.0,0.0,0.0,0.0,0.0,0.0,0.0,0.0,0.0,0.0,0.0,0.0,0.0,0.0,0.0,0.0,0.0,0.0,0.0,0.0,0.0,0.0,0.0,0.0,0.0,0.0,0.0,0.0,0.0,0.0,0.0,0.0,0.0,0.0,0.0,0.0,0.0,0.0,0.0,0.0,0.0,0.0,0.0,-1.2104,-1.3513,-1.4505,-1.4529,-1.4528,-1.4549,-1.4595,-1.4677,-1.4074,-1.2613,0.0,0.0,0.0,0.0,0.0,0.0,0.0,0.0,0.0,0.0,0.0,0.0,0.0,0.0,0.0,0.0,0.0,0.0,0.0,0.0,0.0,0.0,0.0,0.0,0.0,0.0,0.0,0.0,0.0,0.0,0.0,0.0,0.0,0.0,0.0,0.0,0.0,0.0,0.0,0.0,0.0,0.0,0.0,0.0,0.0,0.0,0.0,0.0,0.0,0.0,0.0,0.0,0.0,0.0,0.0,0.0,0.0,0.0,0.0,0.0,-1.5323,0.0,0.0,0.0,0.0,0.0,0.0,0.0,0.0,0.0,0.0,0.0,0.0,0.0,0.0,0.0,0.0,0.0,0.0,0.0,0.0,0.0,0.0,0.0,0.0,0.0,0.0,0.0,0.0,0.0,0.0,0.0,0.0,0.0,0.0,0.0,0.0,0.0,0.0,0.0,0.0,0.0,-1.2174,-1.3583,-1.4605,-1.4645,-1.4656,-1.4664,-1.4688,-1.4737,-1.4382,-1.3489,0.0,0.0,0.0,0.0,0.0,0.0,0.0,0.0,0.0,0.0,0.0,0.0,0.0,0.0,0.0,0.0,0.0,0.0,0.0,0.0,0.0,0.0,0.0,0.0,0.0,0.0,0.0,0.0,0.0,0.0,0.0,0.0,0.0,0.0,0.0,0.0,0.0,0.0,0.0,0.0,0.0,0.0,0.0,0.0,0.0,0.0,0.0,0.0,0.0,0.0,0.0,0.0,0.0,0.0,0.0,0.0,0.0,0.0,0.0,0.0,0.0,-1.6582,0.0,0.0,0.0,0.0,0.0,0.0,0.0,0.0,0.0,0.0,0.0,0.0,0.0,0.0,0.0,0.0,0.0,0.0,0.0,0.0,0.0,0.0,0.0,0.0,0.0,0.0,0.0,0.0,0.0,0.0,0.0,0.0,0.0,0.0,0.0,0.0,0.0,0.0,0.0,0.0,-1.2245,-1.3644,-1.4658,-1.471,-1.4736,-1.4751,-1.4794,-1.4868,-1.4571,-1.3791,-1.3399,0.0,0.0,0.0,0.0,0.0,0.0,0.0,0.0,0.0,0.0,0.0,0.0,0.0,0.0,0.0,0.0,0.0,0.0,0.0,0.0,0.0,0.0,0.0,0.0,0.0,0.0,0.0,0.0,0.0,0.0,0.0,0.0,0.0,0.0,0.0,0.0,0.0,0.0,0.0,0.0,0.0,0.0,0.0,0.0,0.0,0.0,0.0,0.0,0.0,0.0,0.0,0.0,0.0,-2.131,-2.1334,-2.2022,-2.2023,-2.2102,-2.212,-1.9861,-1.9182,-1.9538,0.0,0.0,0.0,0.0,0.0,0.0,0.0,0.0,0.0,0.0,0.0,0.0,0.0,0.0,0.0,0.0,0.0,0.0,0.0,0.0,0.0,0.0,0.0,0.0,0.0,-1.7378,-1.625,0.0,0.0,0.0,0.0,0.0,0.0,0.0,0.0,0.0,0.0,0.0,0.0,-1.2516,-1.3839,-1.4743,-1.4748,-1.4794,-1.4853,-1.4936,-1.4983,-1.4744,-1.408,-1.3961,-1.3297,0.0,0.0,0.0,0.0,0.0,0.0,0.0,0.0,0.0,0.0,0.0,0.0,0.0,0.0,0.0,0.0,0.0,0.0,0.0,0.0,0.0,0.0,0.0,0.0,0.0,0.0,0.0,0.0,0.0,0.0,0.0,0.0,-1.4075,-1.495,0.0,0.0,0.0,0.0,0.0,0.0,0.0,0.0,0.0,0.0,0.0,0.0,0.0,0.0,-2.1298,-2.2155,-2.2702,-2.2937,-2.2801,-2.2821,-2.2939,-2.2922,-2.3334,-2.3996,-2.2904,0.0,-2.1379,-2.039,0.0,0.0,0.0,0.0,0.0,0.0,0.0,0.0,0.0,0.0,0.0,0.0,0.0,0.0,0.0,0.0,0.0,0.0,0.0,0.0,0.0,0.0,-1.7702,-1.7927,-1.7902,-1.7715,0.0,-1.5412,-1.3802,-1.3732,0.0,0.0,0.0,0.0,0.0,0.0,0.0,0.0,-1.3429,-1.4356,-1.4963,-1.4954,-1.4961,-1.5004,-1.5064,-1.5089,-1.5069,-1.5024,-1.4367,-1.3887,-1.3663,-1.2152,0.0,0.0,0.0,0.0,0.0,0.0,0.0,0.0,0.0,0.0,0.0,0.0,0.0,0.0,0.0,0.0,0.0,0.0,0.0,0.0,0.0,0.0,0.0,0.0,0.0,0.0,0.0,0.0,0.0,-1.3974,-1.5279,-1.664,-1.6494,-1.6102,0.0,0.0,0.0,0.0,0.0,0.0,0.0,0.0,0.0,-2.0758,-2.1909,-2.2768,-2.3257,-2.3647,-2.4077,-2.4567,-2.4567,-2.4567,-2.4568,-2.4569,-2.4764,-2.5116,-2.4726,-2.4334,-2.3841,-2.1994,-2.0789,-2.0013,0.0,0.0,0.0,0.0,0.0,-1.8897,-1.888,-1.8572,0.0,0.0,0.0,0.0,0.0,0.0,0.0,0.0,0.0,0.0,0.0,0.0,0.0,-1.9342,-1.9436,-1.9407,-1.9363,-1.8082,-1.6748,0.0,-1.4935,-1.3883,-1.3459,0.0,0.0,0.0,0.0,0.0,-1.3772,-1.4943,-1.5594,-1.5102,-1.5066,-1.5071,-1.5159,-1.5158,-1.518,-1.5243,-1.4936,-1.4526,-1.4069,-1.3355,-1.2337,0.0,0.0,0.0,0.0,0.0,0.0,0.0,0.0,0.0,0.0,0.0,0.0,0.0,0.0,0.0,0.0,0.0,0.0,0.0,0.0,0.0,0.0,0.0,0.0,0.0,0.0,0.0,0.0,-1.5575,-1.6924,-1.8679,-1.8935,-1.8728,0.0,0.0,0.0,0.0,0.0,0.0,-2.0254,-2.1718,-2.2538,-2.2538,-2.3338,-2.408,-2.4725,-2.4725,-2.5057,-2.5703,-2.5703,-2.5703,-2.5703,-2.5703,-2.5703,-2.5703,-2.5703,-2.5703,-2.5527,-2.3353,-2.2465,-2.2378,-2.1519,-2.1164,-2.1173,-2.1168,-2.1206,-2.1243,-2.1245,-2.0839,-2.0254,-2.0039,0.0,-1.7324,-1.7109,0.0,0.0,0.0,0.0,-1.8474,-1.9138,-1.9471,-1.9803,-2.0442,-2.0557,-2.0511,-2.0494,-1.9988,-1.9234,0.0,-1.6868,-1.5782,-1.5514,0.0,0.0,0.0,0.0,-1.5212,-1.4856,-1.5744,-1.6187,-1.5532,-1.5277,-1.517,-1.5229,-1.5233,-1.5257,-1.5311,-1.532,-1.5056,-1.4456,-1.4213,-1.3398,-1.1851,0.0,0.0,0.0,0.0,0.0,0.0,0.0,0.0,0.0,0.0,0.0,0.0,0.0,0.0,0.0,0.0,0.0,0.0,0.0,0.0,0.0,0.0,0.0,0.0,0.0,0.0,0.0,0.0,0.0,-2.1291,-2.158,0.0,0.0,0.0,0.0,-2.1582,-2.168,-2.207,-2.2969,-2.3809,-2.4277,-2.4277,-2.5117,-2.5586,-2.5625,-2.5625,-2.5664,-2.5703,-2.5703,-2.5703,-2.5703,-2.5703,-2.5703,-2.5703,-2.5703,-2.5703,-2.5625,-2.4666,-2.427,-2.4185,-2.3302,-2.297,-2.2971,-2.2974,-2.2961,-2.2965,-2.2967,-2.2988,-2.2871,-2.2031,-2.0586,-1.9004,-1.8184,-1.793,0.0,0.0,-1.8554,-1.9236,-1.9295,-1.9901,-2.0546,-2.0582,-2.0601,-2.0579,-2.0501,-2.0471,-2.0154,0.0,-1.8288,-1.7415,-1.6563,0.0,-1.6202,-1.6197,-1.627,-1.6619,-1.7393,-1.6903,-1.6484,-1.6439,-1.5755,-1.5284,-1.5291,-1.5299,-1.5327,-1.5398,-1.5398,-1.5375,-1.5348,-1.4531,-1.3666,-1.2756,-1.1872,0.0,0.0,0.0,0.0,0.0,0.0,0.0,0.0,0.0,0.0,0.0,0.0,0.0,0.0,0.0,0.0,0.0,0.0,0.0,0.0,0.0,0.0,0.0,0.0,0.0,0.0,0.0,0.0,-2.2325,-2.2596,0.0,0.0,-2.2379,-2.2343,-2.2656,-2.3184,-2.3633,-2.3965,-2.4785,-2.5234,-2.5234,-2.6074,-2.6269,-2.5703,-2.6269,-2.6269,-2.5703,-2.5703,-2.5703,-2.5703,-2.5703,-2.5703,-2.5703,-2.5703,-2.5703,-2.5684,-2.5351,-2.5233,-2.5211,-2.4893,-2.4775,-2.4778,-2.4776,-2.478,-2.4764,-2.4765,-2.4414,-2.3749,-2.2343,-2.1484,-2.08,-1.9941,-1.9668,-1.9668,-1.9668,-1.9902,-2.0136,-2.0136,-2.0371,-2.0605,-2.0604,-2.0604,-2.0583,-2.0576,-2.053,-2.0404,-2.0068,-1.9305,-1.8593,-1.8225,-1.7697,-1.7301,-1.7305,-1.7741,-1.7998,-1.7783,-1.7992,-1.7959,-1.7407,-1.6614,-1.6131,-1.6134,-1.566,-1.5374,-1.5391,-1.5402,-1.5409,-1.5409,-1.4562,-1.369,-1.2826,-1.1942,-1.0902,0.0,0.0,0.0,0.0,0.0,0.0,0.0,0.0,0.0,0.0,0.0,0.0,0.0,0.0,0.0,0.0,0.0,0.0,0.0,0.0,0.0,0.0,0.0,0.0,0.0,0.0,-2.1791,-2.3264,-2.374,-2.3941,-2.3987,-2.3979,-2.3984,-2.3984,-2.4512,-2.4844,-2.4844,-2.5391,-2.5703,-2.5703,-2.6543,-2.6719,-2.6133,-2.6719,-2.6719,-2.6133,-2.584,-2.5703,-2.5703,-2.5703,-2.5703,-2.5703,-2.5703,-2.5703,-2.5703,-2.5703,-2.5703,-2.5703,-2.57,-2.57,-2.5702,-2.57,-2.5702,-2.5703,-2.5703,-2.5135,-2.4215,-2.3099,-2.2358,-2.1755,-2.119,-2.0819,-2.0605,-2.0605,-2.0605,-2.0605,-2.0605,-2.0605,-2.0605,-2.0605,-2.0605,-2.0605,-2.0602,-2.0561,-2.0539,-2.0534,-2.0056,-1.9622,-1.957,-1.9061,-1.8672,-1.8686,-1.9136,-1.9284,-1.8758,-1.8944,-1.8905,-1.8329,-1.7532,-1.693,-1.6658,-1.6159,-1.5708,-1.5426,-1.5391,-1.5407,-1.5395,-1.4563,-1.3683,-1.2772,-1.1893,-1.1267,-1.0911,0.0,0.0,0.0,0.0,0.0,0.0,0.0,0.0,0.0,0.0,0.0,0.0,0.0,0.0,0.0,0.0,0.0,0.0,0.0,0.0,0.0,0.0,0.0,-2.0265,-2.1868,-2.3292,-2.4235,-2.5079,-2.5636,-2.5683,-2.5715,-2.574,-2.5742,-2.5762,-2.5762,-2.5742,-2.5742,-2.5723,-2.5703,-2.6562,-2.7031,-2.6992,-2.7051,-2.7051,-2.6992,-2.6133,-2.5723,-2.5703,-2.5703,-2.5703,-2.5703,-2.5703,-2.5703,-2.5703,-2.5703,-2.5703,-2.5703,-2.5703,-2.5703,-2.5703,-2.5703,-2.5702,-2.5702,-2.5696,-2.5143,-2.4435,-2.4416,-2.3268,-2.1867,-2.1811,-2.1267,-2.0624,-2.0605,-2.0605,-2.0605,-2.0605,-2.0605,-2.0605,-2.0605,-2.0605,-2.0605,-2.0605,-2.0604,-2.0604,-2.0601,-2.0544,-2.0501,-2.05,-2.0451,-2.0402,-2.0402,-2.0398,0.0,-2.0399,-1.9716,-1.9245,-1.9234,-1.8459,-1.7624,-1.6806,-1.6722,-1.6323,-1.5469,-1.5406,-1.5394,-1.5391,-1.4551,-1.3646,-1.2715,-1.1791,-1.173,-1.2532,0.0,0.0,0.0,0.0,0.0,0.0,0.0,0.0,0.0,0.0,0.0,0.0,0.0,0.0,0.0,0.0,0.0,0.0,0.0,0.0,0.0,0.0,-2.1867,-2.2134,-2.3141,-2.4173,-2.5066,-2.5427,-2.563,-2.5692,-2.6276,-2.6636,-2.664,-2.7226,-2.7305,-2.668,-2.6641,-2.6348,-2.5723,-2.7168,-2.7637,-2.7012,-2.8242,-2.8242,-2.6992,-2.6758,-2.6309,-2.5703,-2.5703,-2.5703,-2.5703,-2.5703,-2.5703,-2.5703,-2.5703,-2.5703,-2.5703,-2.5703,-2.5703,-2.5703,-2.5699,-2.5694,-2.5686,-2.5648,-2.5462,-2.5166,-2.4534,-2.4034,-2.3442,-2.2183,-2.1647,-2.1343,-2.0758,-2.0604,-2.0605,-2.0605,-2.0605,-2.0605,-2.0605,-2.0605,-2.0605,-2.0605,-2.0605,-2.0605,-2.0605,-2.0583,-2.0557,-2.0504,-2.0486,-2.0469,-2.0466,-2.0467,0.0,-2.0474,-2.0278,-2.0149,-2.0149,-1.9414,-1.8567,-1.7722,-1.7067,-1.6328,0.0,-1.5393,-1.5371,-1.5323,-1.4491,-1.3558,-1.2569,-1.2309,-1.2535,0.0,0.0,0.0,0.0,0.0,0.0,0.0,0.0,0.0,0.0,0.0,0.0,0.0,0.0,0.0,0.0,0.0,0.0,0.0,0.0,0.0,0.0,-2.2139,-2.3484,-2.3889,-2.4384,-2.4907,-2.5446,-2.5537,-2.5722,-2.6162,-2.6693,-2.7157,-2.7515,-2.8007,-2.8086,-2.7578,-2.7539,-2.7305,-2.6816,-2.8125,-2.8594,-2.8086,-2.9082,-2.9082,-2.8086,-2.7344,-2.6738,-2.623,-2.5879,-2.5703,0.0,-2.5702,-2.5702,-2.5701,-2.57,-2.57,0.0,0.0,0.0,0.0,0.0,-2.5644,-2.56,-2.558,-2.5564,-2.5479,-2.4965,-2.4608,-2.4179,-2.3145,-2.2365,-2.1697,-2.1236,-2.0831,-2.0561,-2.0583,-2.0604,-2.0605,-2.0605,-2.0605,-2.0605,-2.0605,-2.0605,-2.0605,-2.0605,0.0,0.0,-2.0541,-2.0533,-2.0543,-2.0542,-2.0531,-2.0546,-2.0536,-2.051,-2.0512,-2.0548,-2.0118,-1.9343,-1.8103,-1.7539,0.0,0.0,0.0,-1.5159,-1.4734,-1.42,0.0,0.0,0.0,0.0,0.0,0.0,0.0,0.0,-1.4075,-1.4156,0.0,0.0,0.0,0.0,0.0,0.0,0.0,0.0,0.0,0.0,0.0,0.0,0.0,0.0,0.0,0.0,-2.3663,-2.4499,-2.5274,-2.5394,-2.5406,-2.5484,-2.5508,-2.5834,-2.6658,-2.6984,-2.7454,-2.8227,-2.847,-2.8532,-2.8435,0.0,0.0,0.0,0.0,-2.9589,-2.9589,-2.9687,-2.9687,-2.957,-2.7929,-2.7109,-2.6972,-2.6093,-2.5702,-2.5701,-2.5696,-2.5692,-2.5691,-2.5707,-2.5704,-2.5684,-2.5694,-2.5692,-2.5677,-2.5607,-2.5542,0.0,0.0,0.0,0.0,-2.5483,-2.5011,-2.4408,-2.4329,-2.3182,-2.1912,-2.1819,-2.1165,-2.0508,-2.0575,-2.0597,-2.0599,-2.0583,-2.0584,-2.0604,-2.0605,-2.0605,-2.0605,-2.0605,-2.0605,-2.0605,-2.0605,-2.0604,-2.06,-2.06,-2.0597,-2.0595,-2.0595,-2.0552,-2.0534,-2.058,0.0,0.0,-1.8144,-1.7985,-1.7233,-1.5505,-1.541,-1.5097,-1.4351,-1.4255,-1.4517,-1.5162,-1.5104,-1.5801,-1.7292,-1.7219,-1.7244,-1.7318,-1.6492,-1.6177,0.0,0.0,0.0,0.0,0.0,0.0,0.0,0.0,0.0,0.0,0.0,0.0,0.0,0.0,0.0,-2.3644,-2.4524,-2.5139,-2.5298,-2.5317,-2.5346,-2.5406,-2.5468,-2.557,-2.5754,-2.7092,-2.8043,-2.822,-2.9524,-3.0001,-2.9301,-2.9264,0.0,-2.8326,-2.9088,-2.9517,-2.9517,-3.0221,-3.0221,-2.9517,0.0,0.0,-2.6961,-2.6102,-2.571,-2.5706,-2.5704,-2.5699,-2.5696,-2.5694,-2.5662,-2.5623,-2.5621,-2.5627,-2.5605,-2.5535,-2.5515,-2.549,-2.5441,-2.5426,-2.5422,-2.5426,-2.5302,-2.5069,-2.4409,-2.3536,0.0,-2.1925,-2.112,-2.0506,-2.0529,-2.0521,-2.0511,-2.0512,-2.0555,-2.0596,-2.0598,-2.0598,-2.0598,-2.0598,-2.06,-2.0601,-2.0601,-2.0605,-2.0604,-2.0604,-2.0602,-2.0601,-2.0603,-2.0582,-2.0582,-2.0605,-2.0605,-1.9883,-1.814,-1.7955,-1.7173,-1.543,-1.5862,-1.64,-1.6862,-1.6777,-1.6753,-1.6833,-1.6718,-1.7071,-1.7941,-1.7848,-1.817,-1.8762,-1.7489,-1.7213,0.0,0.0,0.0,0.0,0.0,0.0,0.0,0.0,0.0,0.0,0.0,-2.0208,-2.2364,0.0,-2.3688,-2.4558,-2.5038,-2.5308,-2.5308,-2.5308,-2.5327,-2.5382,-2.5436,-2.5627,-2.6059,-2.6958,-2.7854,-2.8732,-2.9645,-3.0131,-3.0094,-3.0121,-2.997,-2.9559,-2.9931,-3.0146,-3.0146,-3.0576,-3.0576,-3.0146,-2.8858,-2.8019,-2.7569,-2.6256,-2.5645,-2.5642,-2.5603,-2.5591,-2.5604,-2.5593,-2.5571,-2.5543,-2.551,-2.5517,-2.5548,-2.5478,-2.5457,-2.5455,-2.5415,-2.5378,-2.5369,-2.5387,-2.5395,-2.5258,-2.4432,-2.361,-2.2785,-2.1947,-2.1102,-2.0448,-2.0447,-2.0443,-2.0458,-2.0492,-2.0537,-2.054,-2.0546,-2.0547,-2.0547,-2.0547,-2.0549,-2.0551,-2.0554,-2.054,-2.0564,-2.0585,-2.0605,-2.0605,-2.0605,-2.0605,-2.0586,-2.0542,-2.0543,-2.0013,-1.8706,-1.8137,-1.7454,-1.6508,-1.6779,-1.7119,-1.7477,-1.7372,-1.7455,-1.7788,-1.7663,-1.7923,-1.8608,-1.8536,-1.8697,-1.9033,-1.8328,-1.8239,0.0,0.0,0.0,0.0,0.0,0.0,0.0,0.0,-2.0809,-2.1692,-2.1871,-2.2345,-2.3922,-2.422,-2.4465,-2.5168,-2.5293,-2.5298,-2.5298,-2.5303,-2.5317,-2.5365,-2.5388,-2.567,-2.6384,-2.6656,-2.7355,-2.8773,-2.9235,-2.9732,-3.0397,-3.0648,-3.0754,-3.0754,-3.0754,-3.0754,-3.0754,-3.0754,-3.0754,-3.0735,-2.8998,-2.816,-2.8102,-2.637,-2.558,-2.5576,-2.5526,-2.5502,-2.5499,-2.5492,-2.5487,-2.5484,-2.5422,-2.5422,-2.5472,-2.5421,-2.5382,-2.5389,-2.5389,-2.5351,-2.5313,-2.5361,-2.5389,-2.522,-2.4426,-2.3574,-2.2716,-2.1917,-2.1056,-2.0371,-2.0371,-2.0383,-2.0417,-2.0472,-2.0482,-2.0487,-2.0479,-2.0482,-2.0482,-2.0482,-2.0483,-2.0486,-2.0474,-2.0476,-2.0505,-2.0599,-2.0582,-2.0582,-2.0578,-2.0578,-2.0556,-2.0505,-2.0485,-2.0121,-1.9233,-1.83,-1.7766,-1.7811,-1.7737,-1.7733,-1.7836,-1.7721,-1.7907,-1.8485,-1.8361,-1.8528,-1.9041,-1.8958,-1.8861,-1.8771,-1.8753,-1.8878,-1.7103,-1.7207,-1.7348,-1.8172,-1.9064,-1.9933,0.0,0.0,-2.2473,-2.3351,-2.3534,-2.3831,-2.4795,-2.5027,-2.5099,-2.5204,-2.5266,-2.5292,-2.5292,-2.5293,-2.5308,-2.5313,-2.5361,-2.5441,-2.5542,-2.6251,-2.6792,-2.6982,-2.8443,-2.9358,-2.9458,-3.0191,-3.0614,-3.0614,-3.0614,-3.0614,-3.0614,-3.0614,-3.0614,-3.0595,-2.8853,-2.8022,-2.7964,-2.6272,-2.5502,-2.552,-2.5495,-2.5503,-2.5503,-2.5441,-2.541,-2.5406,-2.5406,-2.5407,-2.5412,-2.5407,-2.5361,-2.5313,-2.5313,-2.5308,-2.5308,-2.5313,-2.5313,-2.5159,-2.4365,-2.3497,-2.2647,-2.1841,-2.098,-2.0315,-2.0299,-2.0359,-2.0399,-2.0405,-2.0418,-2.041,-2.0412,-2.0412,-2.0412,-2.0412,-2.0403,-2.0412,-2.0415,-2.0411,-2.0445,-2.0571,-2.0552,-2.0511,-2.051,-2.0505,-2.0517,-2.0504,-2.0441,-2.0039,-1.9092,-1.8106,-1.7833,-1.854,-1.845,-1.871,-1.9407,-1.931,-1.9234,-1.9191,-1.9065,-1.8937,-1.8833,-1.8639,-1.8487,-1.8371,-1.8235,-1.8422,-1.7566,-1.8354,0.0,0.0,-2.0836,-2.2224,-2.2527,-2.3278,-2.4004,-2.4365,-2.4442,-2.4556,-2.4968,-2.507,-2.5095,0.0,-2.5172,-2.5201,-2.5239,-2.5236,-2.5252,-2.5302,-2.5317,-2.5332,-2.5346,-2.5716,-2.6148,-2.662,-2.7351,-2.8208,-2.9184,-2.9619,-3.0064,-3.0528,-3.0548,-3.0548,-3.0548,-3.0548,-3.0548,-3.0528,-2.881,-2.8001,-2.7942,-2.6223,-2.5414,-2.5382,-2.5373,-2.537,-2.5313,-2.5298,-2.5269,-2.5234,-2.5233,-2.5222,-2.5233,-2.5308,-2.5313,-2.5307,-2.5307,-2.5268,-2.5241,-2.5241,-2.4896,-2.4335,-2.3539,-2.2699,-2.1872,-2.1026,-2.0527,-2.0242,-2.0242,-2.0295,-2.0332,-2.0294,-2.0278,-2.0288,-2.0321,-2.0344,-2.035,-2.0334,-2.0334,-2.0337,-2.0346,-2.0301,-2.0291,-2.0357,-2.04,-2.0435,-2.0387,-2.0378,-2.0362,-2.0338,-2.0276,-2.006,-1.9624,-1.9154,-1.9008,-1.9275,-1.9164,-1.9198,-1.9455,-1.9376,-1.9253,-1.9125,-1.8966,-1.8743,-1.8506,-1.831,-1.8125,-1.7954,-1.7932,-1.7975,-1.8508,0.0,0.0,-2.0884,-2.2338,-2.3711,-2.3896,-2.4393,-2.4849,-2.4875,-2.4844,-2.4832,-2.4879,-2.4893,0.0,-2.498,-2.5025,-2.5069,-2.5099,-2.5147,-2.5181,-2.5231,-2.5252,-2.5287,-2.5293,-2.5346,-2.5616,-2.6193,-2.652,-2.7195,-2.8411,-2.8965,-2.9516,-3.009,-3.0342,-3.0477,-3.0477,-3.0447,-3.0447,-3.0428,-2.8739,-2.7923,-2.7865,-2.6121,-2.5284,-2.5243,-2.5233,-2.522,-2.5164,-2.5153,-2.5122,-2.5061,-2.5061,-2.5061,-2.5072,-2.5171,-2.5241,-2.5236,-2.5245,-2.5217,-2.5164,-2.5153,-2.458,-2.3714,-2.2898,-2.2077,-2.1263,-2.0416,-2.0161,-2.0159,-2.0159,-2.0205,-2.0229,-2.0186,-2.0163,-2.0163,-2.0203,-2.023,-2.0246,-2.0238,-2.0235,-2.0242,-2.0215,-2.0157,-2.0101,-2.0093,-2.0161,-2.0241,-2.023,-2.0232,-2.0196,-2.0148,-2.0068,-1.9984,-1.9927,-1.9836,-1.9738,-1.9629,-1.9481,-1.9376,-1.9253,-1.9144,-1.9018,-1.8869,-1.866,-1.842,-1.8118,-1.7909,-1.7698,-1.7514,-1.7514,-1.7444,0.0,0.0,-2.1549,-2.3098,-2.3503,-2.3738,-2.4573,-2.4738,-2.4723,-2.4798,-2.4707,-2.4615,-2.4615,-2.4665,-2.4715,-2.4715,-2.4811,-2.4908,-2.4908,-2.5013,-2.5106,-2.5109,-2.516,-2.5222,0.0,-2.5293,-2.5308,-2.5346,-2.612,-2.6626,-2.6683,-2.8222,-2.9113,-2.9132,-2.9954,-3.041,-3.041,-3.0348,-3.0316,-3.0297,-2.8548,-2.7713,-2.7655,-2.5897,-2.5121,-2.5115,-2.5112,-2.5094,-2.5107,-2.5038,-2.5006,-2.5006,-2.5006,-2.5006,-2.5006,-2.5006,-2.5056,-2.5109,-2.5106,-2.5094,-2.5082,-2.5032,-2.4467,-2.3641,-2.2766,-2.1951,-2.1138,-2.0322,-2.0103,-2.0098,-2.0098,-2.0108,-2.0117,-2.0093,-2.0055,-2.0011,-2.0011,-2.0055,-2.0117,-2.0117,-2.0117,-2.0089,-2.0021,-1.9946,-1.9882,-1.9813,-1.9822,-1.9893,-2.0086,-2.0052,-2.0003,-2.0016,-1.9893,-1.9786,-1.9713,-1.9592,-1.9476,-1.9413,-1.9272,-1.9186,-1.9104,-1.8914,-1.8724,-1.8521,-1.8313,-1.805,-1.7721,-1.7451,-1.7224,-1.7018,-1.6892,-1.6786,-2.0524,0.0,-2.2179,-2.3205,-2.3896,-2.435,-2.4538,-2.4578,-2.4561,-2.4545,-2.4501,-2.4466,-2.4466,-2.4493,-2.451,-2.4561,-2.4618,-2.4662,-2.4757,-2.4842,-2.4919,-2.5013,-2.5081,0.0,0.0,0.0,0.0,-2.5302,-2.5521,-2.5927,-2.6507,-2.7577,-2.8421,-2.8945,-2.98,-3.0279,-3.0279,-3.0246,-3.0207,-3.0142,-2.8394,-2.6982,-2.5895,-2.5291,-2.5019,-2.4974,-2.4961,-2.4921,-2.4823,-2.4808,-2.4779,-2.4734,-2.4734,-2.4734,-2.4734,-2.4734,-2.4749,-2.4794,-2.4908,-2.4907,-2.4823,-2.4808,-2.3865,-2.2683,-2.2394,-2.1374,-2.0253,-1.9988,-1.9939,-1.996,-1.9909,-1.9939,-1.9958,-1.99,-1.9871,-1.9866,-1.9866,-1.9896,-1.99,-1.9953,-1.9926,-1.9887,-1.9809,-1.9701,-1.9593,-1.949,-1.9624,-1.9763,-1.983,-1.9815,-1.9775,-1.9676,-1.9632,-1.9565,-1.9434,-1.9354,-1.9232,-1.9092,-1.8938,-1.8798,-1.8649,-1.8487,-1.83,-1.8041,-1.7843,-1.7602,-1.7308,-1.6989,-1.6738,-1.6528,-1.6409,-1.6231,-2.082,-2.1992,-2.2795,-2.3571,-2.418,-2.4564,-2.4476,-2.4461,-2.4369,-2.4046,-2.3928,-2.3809,-2.3513,-2.3717,-2.3911,-2.3964,-2.4249,-2.4497,-2.458,-2.4671,-2.4764,-2.4844,-2.4966,0.0,0.0,0.0,0.0,-2.5225,-2.5449,-2.5841,-2.6408,-2.7485,-2.833,-2.8852,-2.9692,-3.013,-3.013,-3.0101,-2.9745,-2.9061,-2.7922,-2.651,-2.4854,-2.4854,-2.4825,-2.4782,-2.4768,-2.4693,-2.4594,-2.4596,-2.4539,-2.4462,-2.4462,-2.4435,-2.4418,-2.4418,-2.4409,-2.4417,-2.4643,-2.4651,-2.4567,-2.4537,-2.3614,-2.2465,-2.2159,-2.1146,-2.0057,-1.9763,-1.9744,-1.9787,-1.9732,-1.9726,-1.9707,-1.9674,-1.966,-1.9653,-1.9653,-1.9673,-1.9694,-1.9713,-1.9663,-1.9605,-1.9526,-1.9401,-1.9279,-1.9162,-1.9268,-1.9415,-1.955,-1.9541,-1.9499,-1.9394,-1.9369,-1.9286,-1.913,-1.904,-1.8895,-1.8661,-1.8513,-1.8375,-1.8194,-1.8008,-1.7788,-1.7517,-1.7251,-1.6982,-1.6719,-1.6389,-1.6147,-1.5967,-1.5739,-1.5492,-2.1693,-2.2651,-2.3388,-2.4185,-2.4389,-2.4389,-2.4389,-2.4364,-2.4107,-2.3338,-2.3056,-2.2709,0.0,0.0,-2.2949,-2.2986,-2.3749,-2.4338,-2.4375,-2.4498,-2.4588,0.0,0.0,0.0,0.0,0.0,0.0,-2.5194,0.0,-2.6307,-2.6337,-2.789,-2.8776,-2.8776,-2.9551,-2.9969,-2.9969,-2.9864,-2.8936,-2.7184,-2.7146,-2.6233,-2.4599,-2.4599,-2.459,-2.459,-2.4503,-2.4442,-2.4372,-2.4366,-2.4284,-2.4182,-2.4173,-2.4126,-2.4069,-2.4069,-2.403,-2.4012,-2.4275,-2.4363,-2.4346,-2.4211,-2.3676,-2.2911,-2.2038,-2.1266,-2.0508,-1.9713,-1.9536,-1.9576,-1.9587,-1.9474,-1.9387,-1.938,-1.9387,-1.9375,-1.9375,-1.9424,-1.9456,-1.9394,-1.9313,-1.9242,-1.9167,-1.9059,-1.8922,-1.8869,-1.8798,-1.8886,-1.9235,-1.9227,-1.9178,-1.9151,-1.9101,-1.8984,-1.8771,-1.8642,-1.845,-1.8177,-1.8033,-1.7887,-1.7749,-1.7474,-1.7211,-1.6944,-1.6557,-1.6223,-1.5964,-1.5666,-1.5463,-1.5329,-1.4909,-1.4601,-2.2247,-2.298,-2.3332,-2.4127,-2.4339,-2.4302,-2.4248,-2.3796,-2.3307,-2.3097,-2.2546,-2.2032,-2.183,0.0,0.0,-2.2905,-2.3198,0.0,-2.4183,-2.4321,0.0,0.0,0.0,-2.4929,-2.5581,-2.5714,0.0,0.0,-2.6264,-2.6329,-2.6865,-2.7823,-2.8351,-2.8351,-2.9176,-2.9636,-2.9636,-2.8961,-2.81,-2.7036,-2.6394,-2.5509,-2.4451,-2.4445,-2.442,-2.4366,-2.4248,-2.4164,-2.4096,-2.3979,-2.3899,-2.3819,-2.3777,-2.3738,-2.3717,-2.3717,-2.3717,-2.3696,-2.3714,-2.3819,-2.3941,-2.3919,-2.3351,-2.2513,-2.1734,-2.0979,-2.0237,-1.9499,-1.9282,-1.9286,-1.9251,-1.9246,-1.9232,-1.9135,-1.9102,-1.9094,-1.9094,-1.9119,-1.9117,-1.9117,-1.893,-1.8735,-1.8616,-1.8454,-1.8306,-1.8245,-1.8177,-1.8321,-1.8869,-1.886,-1.8789,-1.8699,-1.857,-1.8426,-1.8225,-1.8073,-1.7902,-1.7693,-1.7509,-1.7284,-1.6986,-1.6677,-1.6372,-1.6114,-1.5765,-1.5521,-1.5404,-1.488,-1.4601,-1.4491,-1.3792,-1.3344,-2.2691,-2.3308,-2.3695,-2.4137,-2.4257,-2.4155,-2.375,-2.3327,-2.2794,-2.2061,-2.1253,0.0,-2.0692,0.0,0.0,0.0,0.0,0.0,-2.4099,-2.4229,-2.4266,0.0,-2.4435,0.0,-2.5685,-2.5821,-2.6326,0.0,-2.7166,-2.7127,-2.7522,-2.8277,-2.8686,-2.8686,-2.9162,-2.9245,-2.889,-2.8366,-2.7499,-2.6301,-2.5743,-2.5012,-2.4174,-2.4154,-2.4096,-2.4029,0.0,-2.3868,-2.3771,-2.3707,-2.3569,-2.3434,-2.3399,-2.3335,-2.3289,-2.3289,-2.3289,-2.3295,-2.3242,-2.3277,-2.3342,-2.3457,-2.3205,-2.265,-2.1485,-2.0885,-2.0379,-1.929,-1.8956,-1.893,-1.8886,-1.886,-1.8816,-1.8725,-1.8697,-1.867,-1.8669,-1.8678,-1.866,-1.8569,-1.8413,-1.8259,-1.8111,-1.7995,-1.7904,-1.7827,-1.7732,-1.7793,-1.8108,-1.8238,-1.8258,-1.8159,-1.8038,-1.7851,-1.7625,-1.7442,-1.7218,-1.6957,-1.6741,-1.648,-1.6126,-1.5805,-1.5477,-1.5138,-1.4788,-1.4525,-1.4355,-1.3822,-1.3444,-1.3213,-1.2495,-1.198,-2.3116,-2.3666,-2.418,-2.418,-2.4079,-2.3812,-2.3125,-2.2795,-2.2209,-2.0643,0.0,-1.9091,-1.8988,-1.9069,-1.9656,-2.1216,0.0,-2.3116,-2.3933,-2.4136,-2.4192,-2.4192,-2.4294,-2.47,-2.5504,-2.5625,-2.6255,-2.7676,-2.7909,-2.7985,-2.8073,-2.8732,-2.914,-2.9241,-2.913,-2.8727,-2.8036,-2.7754,-2.6851,-2.5324,-2.5103,-2.4611,-2.3865,-2.3785,-2.3732,-2.366,0.0,0.0,-2.3435,-2.3383,-2.3218,-2.3015,-2.299,-2.2914,-2.2812,-2.2812,-2.2812,-2.2812,-2.2799,-2.2721,-2.2668,-2.2952,-2.3102,-2.2881,-2.1231,-2.0818,-2.0566,-1.9037,-1.8556,-1.8481,-1.8499,-1.8418,-1.8315,-1.8239,-1.8229,-1.8208,-1.8146,-1.8166,-1.8118,-1.793,-1.7816,-1.771,-1.7595,-1.7532,-1.7474,-1.742,-1.7284,-1.7175,-1.7097,-1.7424,-1.7642,-1.7541,-1.7397,-1.7221,-1.6954,-1.6703,-1.6407,-1.6059,-1.5836,-1.5579,-1.5212,-1.4868,-1.4528,-1.4127,-1.372,-1.3386,-1.3102,-1.2583,-1.2122,-1.1691,-1.1047,-1.0462,-2.3719,-2.4022,-2.4113,-2.4113,-2.3524,-2.2909,-2.2782,-2.1725,0.0,0.0,0.0,-1.7967,-1.7348,-1.7811,0.0,-1.958,0.0,0.0,0.0,0.0,-2.4199,0.0,0.0,0.0,0.0,0.0,0.0,0.0,0.0,0.0,-2.7888,-2.8003,-2.8346,-2.895,-2.8319,-2.7871,-2.76,-2.6275,-2.539,-2.4979,-2.4281,-2.384,-2.3649,-2.3569,-2.3542,-2.352,0.0,0.0,-2.3065,-2.2717,-2.2556,-2.252,-2.2399,-2.233,-2.2334,-2.2334,-2.2334,-2.232,-2.2251,-2.2223,-2.2268,-2.2655,-2.2712,-2.2353,-2.0842,-2.036,-2.0009,-1.8472,-1.7999,-1.7935,-1.7947,-1.7915,-1.7899,-1.7883,-1.7833,-1.78,-1.7788,-1.7676,-1.7509,-1.737,-1.7146,-1.6964,-1.6901,-1.6641,-1.6459,-1.6445,-1.628,-1.6116,-1.5992,-1.6612,-1.6982,-1.6728,-1.6538,-1.6316,-1.6044,-1.5878,-1.5622,-1.5227,-1.4972,-1.4603,-1.4095,-1.3822,-1.3491,-1.3144,-1.2753,-1.2378,-1.2064,-1.1307,-1.067,-1.0155,-0.9283,-0.8636,-2.3737,-2.3937,-2.3945,-2.3907,-2.3267,-2.2429,-2.1549,0.0,0.0,0.0,-1.7163,-1.6627,-1.6726,0.0,0.0,0.0,0.0,0.0,0.0,0.0,0.0,0.0,0.0,0.0,0.0,0.0,0.0,0.0,0.0,0.0,-2.7024,-2.7038,-2.718,-2.7547,-2.7141,-2.6677,-2.6161,-2.531,-2.4653,-2.4165,-2.3642,-2.3353,-2.3283,-2.3182,-2.3054,-2.292,-2.276,0.0,-2.246,-2.2278,-2.2139,-2.2025,-2.1969,-2.1895,-2.1834,-2.1834,-2.1834,-2.182,-2.1807,-2.1733,-2.172,-2.1913,-2.2058,-2.1902,-2.0389,-1.9895,-1.9525,-1.7999,-1.7511,-1.7429,-1.7434,-1.7434,-1.7427,-1.7344,-1.7199,-1.7048,-1.6928,-1.6751,-1.6612,-1.6544,-1.636,-1.6186,-1.6059,-1.5892,-1.5751,-1.5637,-1.5521,-1.533,-1.5048,-1.5272,-1.5548,-1.5805,-1.5606,-1.536,-1.5048,-1.4804,-1.4509,-1.4146,-1.3759,-1.3361,-1.2936,-1.2559,-1.2188,-1.1805,-1.1421,-1.0964,-1.0501,-0.9828,-0.9151,-0.8479,-0.7684,-0.7016,-2.3327,-2.3605,-2.3721,-2.3678,-2.2933,-2.1831,-2.0357,-1.929,0.0,0.0,-1.5744,-1.549,-1.6001,0.0,0.0,0.0,0.0,0.0,0.0,0.0,0.0,0.0,0.0,0.0,0.0,0.0,0.0,0.0,0.0,0.0,-2.5939,-2.6005,-2.6065,-2.6205,-2.5996,-2.5523,-2.4776,-2.4492,-2.3993,-2.3342,-2.3072,-2.291,-2.2833,-2.2708,-2.2514,-2.23,-2.2217,0.0,0.0,-2.1777,-2.1645,-2.1495,-2.1464,-2.1371,-2.126,-2.126,-2.1229,-2.1197,-2.1197,-2.1119,-2.0991,-2.0991,-2.1308,-2.1444,-2.0045,-1.9437,-1.896,-1.762,-1.7048,-1.6818,-1.6818,-1.6818,-1.6793,-1.668,-1.647,-1.6241,-1.599,-1.5793,-1.5636,-1.555,-1.5433,-1.5286,-1.5078,-1.4988,-1.4882,-1.4682,-1.4571,-1.4367,-1.3993,-1.3762,-1.3865,-1.4429,-1.4456,-1.4299,-1.4013,-1.3709,-1.3402,-1.3129,-1.2603,-1.2146,-1.1786,-1.1297,-1.0833,-1.0445,-1.005,-0.9523,-0.8907,-0.8322,-0.759,-0.6766,-0.6104,-0.5406,-2.2414,-2.2976,-2.3538,-2.3508,-2.2229,-2.0756,-1.992,0.0,0.0,-1.5389,-1.5052,-1.4855,-1.4282,-1.5401,-1.6483,-1.6626,0.0,-2.0598,0.0,0.0,0.0,0.0,0.0,0.0,0.0,0.0,0.0,0.0,0.0,0.0,0.0,-2.5036,-2.5314,-2.5923,-2.5213,-2.4694,-2.437,-2.3558,-2.3022,-2.2777,-2.2563,-2.2422,-2.2358,-2.2167,-2.207,-2.201,0.0,0.0,0.0,-2.1055,-2.0909,-2.0844,-2.0695,-2.0562,-2.0496,-2.0496,-2.0393,-2.0239,-2.0239,-2.0139,-2.0039,-2.0039,-2.0465,-2.0831,-1.9956,-1.909,-1.822,-1.7298,-1.6493,-1.592,-1.592,-1.592,-1.5907,-1.5823,-1.5738,-1.5579,-1.5197,-1.5001,-1.4788,-1.443,-1.4288,-1.416,-1.3897,-1.3654,-1.3411,-1.3213,-1.3021,-1.281,-1.2531,-1.2325,-1.2201,-1.2201,-1.2788,-1.3139,-1.3048,-1.2779,-1.2591,-1.2494,-1.1755,-1.1146,-1.0749,-1.0114,-0.9602,-0.9275,-0.8855,-0.833,-0.7674,-0.689,-0.602,-0.5101,-0.4444,-0.3705,-2.1077,-2.1895,-2.2365,-2.1884,-2.1173,-2.0163,-1.8457,0.0,-1.5982,-1.4448,-1.4482,-1.4733,-1.4489,-1.5783,-1.6879,-1.6941,-1.8643,-2.0226,0.0,0.0,0.0,0.0,0.0,0.0,0.0,0.0,0.0,0.0,0.0,0.0,0.0,-2.3566,-2.3829,-2.4091,-2.3721,-2.3444,-2.3341,-2.2789,-2.2473,-2.2337,-2.2124,-2.1938,-2.1763,-2.163,-2.1479,-2.1261,0.0,0.0,0.0,-2.0364,-2.0243,-2.0189,-2.0065,-1.9995,-1.9977,-1.9892,-1.9752,-1.9612,-1.9573,-1.9431,-1.9306,-1.9306,-1.9346,-1.9358,-1.911,-1.8664,-1.7979,-1.6762,-1.6074,-1.5644,-1.5239,-1.5107,-1.5032,-1.488,-1.4914,-1.4842,-1.4523,-1.4476,-1.4451,-1.4283,-1.3848,-1.3431,-1.3198,-1.2943,-1.2637,-1.2328,-1.236,-1.2243,-1.1804,-1.147,-1.11,-1.0671,-1.1447,-1.1984,-1.1995,-1.1529,-1.1176,-1.1023,-1.0338,-0.9807,-0.9478,-0.8852,-0.8335,-0.7958,-0.7409,-0.6755,-0.6002,-0.5316,-0.45,-0.3566,-0.2932,-0.2164,-1.9803,-2.0719,-2.1139,-2.0556,-2.0204,-1.9476,0.0,-1.655,-1.5644,-1.434,-1.4501,-1.4894,-1.4965,-1.6105,-1.7065,-1.714,-1.8365,-1.9657,-2.0673,0.0,0.0,0.0,0.0,0.0,0.0,0.0,0.0,0.0,0.0,0.0,0.0,-2.2334,-2.2527,-2.2664,-2.2571,-2.2477,-2.244,-2.2139,-2.1936,-2.1851,-2.1615,-2.137,-2.115,-2.1039,-2.0812,-2.053,0.0,0.0,0.0,-1.9755,-1.9612,-1.9522,-1.9406,-1.9347,-1.9258,-1.9109,-1.8912,-1.8698,-1.8593,-1.8405,-1.8216,-1.8163,-1.7985,-1.7804,-1.7843,-1.777,-1.7432,-1.6281,-1.5545,-1.4995,-1.4528,-1.4308,-1.4146,-1.3959,-1.4061,-1.4075,-1.3734,-1.3713,-1.3686,-1.3524,-1.3046,-1.2569,-1.2291,-1.2019,-1.1715,-1.1264,-1.1281,-1.1163,-1.0667,-1.0267,-0.9837,-0.9346,-0.9779,-1.025,-1.0633,-1.0183,-0.9819,-0.9644,-0.8977,-0.8459,-0.8157,-0.7445,-0.6853,-0.644,-0.5778,-0.5068,-0.4322,-0.3698,-0.2918,-0.1985,-0.1316,-0.0377,-1.8718,-1.9461,-2.0014,-2.0014,-1.9357,-1.8496,0.0,-1.6879,-1.6089,-1.5345,-1.5238,-1.5307,-1.5372,-1.6111,-1.6722,-1.6792,-1.7535,-1.8653,-2.0199,0.0,0.0,0.0,0.0,0.0,0.0,0.0,0.0,0.0,0.0,0.0,0.0,-2.1507,-2.1703,-2.2096,-2.211,-2.2013,-2.1796,-2.1615,-2.1432,-2.1293,-2.0974,-2.0729,-2.0597,-2.0328,-2.0089,0.0,0.0,0.0,0.0,-1.918,-1.9016,-1.8893,-1.8693,-1.8481,-1.8285,-1.8088,-1.7713,-1.7291,-1.7097,-1.6854,-1.6608,-1.6476,-1.6421,-1.6391,-1.6188,-1.6257,-1.6343,-1.6,-1.484,-1.3717,-1.3704,-1.3521,-1.3267,-1.305,-1.3217,-1.3263,-1.2729,-1.252,-1.2246,-1.1721,-1.1622,-1.147,-1.101,-1.0748,-1.045,-0.9888,-0.9548,-0.9182,-0.8781,-0.8432,-0.8191,-0.8121,-0.7653,-0.7779,-0.8841,-0.8806,-0.8657,-0.8528,-0.7814,-0.7238,-0.6839,-0.5848,-0.5098,-0.4628,-0.3975,-0.3334,-0.2722,-0.2048,-0.1251,-0.0301,0.05,0.1755,-1.6171,-1.6914,-1.7341,-1.6847,-1.6891,-1.6845,-1.6033,-1.566,-1.5397,-1.5119,-1.5485,-1.5846,-1.5868,-1.6591,-1.7181,-1.7215,-1.7933,-1.887,0.0,0.0,0.0,0.0,0.0,0.0,0.0,0.0,0.0,0.0,0.0,0.0,0.0,-2.0893,-2.1071,-2.1673,-2.16,-2.1525,-2.1464,-2.1087,-2.0845,-2.0763,-2.0364,-2.0122,-1.9977,-1.9752,0.0,0.0,0.0,0.0,0.0,-1.802,-1.7794,-1.7646,-1.745,-1.7265,-1.7113,-1.6912,-1.657,-1.6151,-1.5869,-1.5584,-1.534,-1.5217,-1.5139,-1.5039,-1.471,-1.5145,-1.5575,-1.4489,-1.3483,-1.2715,-1.2571,-1.2428,-1.2295,-1.2089,-1.2253,-1.2361,-1.1982,-1.1964,-1.1893,-1.1531,-1.0942,-1.0407,-1.0063,-0.9708,-0.9294,-0.8892,-0.8803,-0.8584,-0.8082,-0.7564,-0.7102,-0.6717,-0.6144,-0.6352,-0.7689,-0.7291,-0.6876,-0.6602,-0.5944,-0.5352,-0.4892,-0.4177,-0.354,-0.298,-0.2176,-0.1424,-0.0778,-0.0025,0.0973,0.2171,0.3021,0.3933,0.0,-1.5232,-1.547,-1.4999,-1.5237,-1.5459,-1.495,-1.4831,-1.49,-1.5112,-1.5521,-1.5931,-1.6229,-1.6735,-1.713,-1.7228,-1.7938,0.0,0.0,0.0,0.0,0.0,0.0,0.0,0.0,0.0,0.0,0.0,0.0,0.0,0.0,0.0,-2.0395,-2.0813,-2.091,-2.0893,-2.0763,-2.0464,-2.0225,-2.0072,-1.9704,-1.9398,-1.9207,-1.8983,0.0,0.0,0.0,0.0,0.0,-1.7063,-1.6841,-1.6689,-1.6489,-1.6275,-1.6037,-1.574,-1.5296,-1.4824,-1.4482,-1.4182,-1.395,-1.3742,-1.3517,-1.3267,-1.2922,-1.3554,-1.4198,-1.3232,-1.2346,-1.1674,-1.1544,-1.129,-1.1021,-1.0845,-1.0989,-1.1072,-1.0758,-1.0698,-1.0603,-1.0222,-0.9647,-0.9105,-0.8786,-0.8374,-0.7999,-0.7698,-0.7498,-0.7223,-0.6773,-0.623,-0.5715,-0.5234,-0.4632,-0.4542,-0.5237,-0.5331,-0.5175,-0.4734,-0.4155,-0.3575,-0.2996,-0.2356,-0.172,-0.1111,-0.0245,0.0512,0.1157,0.2155,0.3193,0.4257,0.507,0.5791,0.0,-1.4214,-1.4237,-1.4237,-1.4237,-1.4253,-1.43,-1.4315,0.0,-1.5168,-1.5355,-1.5615,-1.6352,-1.6538,-1.6646,-1.6904,-1.76,0.0,0.0,0.0,0.0,0.0,0.0,0.0,0.0,0.0,0.0,0.0,0.0,0.0,0.0,0.0,-1.9636,-1.9636,-2.0015,-2.0122,-1.9864,-1.9755,-1.9573,-1.9299,-1.8949,-1.8612,-1.8302,-1.8014,0.0,0.0,0.0,0.0,0.0,-1.6191,-1.6049,-1.5906,-1.571,-1.5377,-1.4971,-1.4515,-1.3924,-1.3301,-1.2948,-1.2667,-1.2365,-1.2086,-1.1657,-1.1157,-1.0906,-1.1557,-1.2355,-1.2086,-1.1301,-1.0566,-1.0542,-1.0068,-0.955,-0.9403,-0.9527,-0.9551,-0.9143,-0.8894,-0.8561,-0.8041,-0.7809,-0.7576,-0.7175,-0.6849,-0.6531,-0.6276,-0.5728,-0.5269,-0.4968,-0.4525,-0.4055,-0.3641,-0.306,-0.2478,-0.1895,-0.3033,-0.3533,-0.2924,-0.2447,-0.1863,-0.1113,-0.0417,0.025,0.0862,0.1754,0.2534,0.3141,0.4409,0.5343,0.5941,0.66,0.7305,-1.2157,0.0,-1.2726,-1.2726,-1.2726,-1.285,0.0,-1.3474,-1.3659,-1.4336,0.0,-1.5299,-1.5417,-1.5904,-1.6299,-1.6315,-1.7392,0.0,0.0,0.0,0.0,0.0,0.0,0.0,0.0,0.0,0.0,0.0,0.0,0.0,0.0,0.0,-1.8936,-1.8789,-1.8688,-1.8864,-1.9358,-1.8935,-1.8617,-1.84,-1.7907,-1.7544,-1.7333,-1.7001,0.0,0.0,0.0,0.0,-1.5096,-1.4653,-1.4343,-1.4168,-1.3899,-1.364,-1.3321,-1.301,-1.2468,-1.1855,-1.1458,-1.0998,-1.0561,-1.0187,-0.9795,-0.9452,-0.9174,-0.9787,-1.0535,-1.0161,-0.9731,-0.9321,-0.8947,-0.8734,-0.8534,-0.8196,-0.8168,-0.808,-0.7617,-0.7313,-0.6967,-0.6387,-0.5982,-0.5652,-0.5358,-0.5117,-0.4878,-0.4608,-0.4275,-0.3859,-0.3335,-0.2753,-0.2228,-0.1785,-0.1199,-0.0697,-0.0335,-0.1228,-0.1534,-0.092,-0.0502,0.0084,0.089,0.1393,0.1977,0.2672,0.3804,0.4718,0.5433,0.6113,0.6713,0.7257,0.7771,0.8276,-1.1806,-1.1903,-1.1921,-1.1889,-1.1889,-1.1979,-1.234,0.0,0.0,0.0,0.0,-1.4472,-1.4775,0.0,0.0,0.0,0.0,0.0,0.0,0.0,0.0,0.0,0.0,0.0,0.0,0.0,0.0,0.0,0.0,0.0,0.0,0.0,-1.7921,-1.7814,-1.7524,-1.7706,-1.8414,-1.7967,-1.7626,-1.7368,-1.6878,-1.6553,-1.633,-1.5874,0.0,0.0,0.0,0.0,-1.3886,-1.3416,-1.3106,-1.2914,-1.2536,-1.2159,-1.1839,-1.1449,-1.0872,-1.0271,-0.9972,-0.9474,-0.8888,-0.8554,-0.8074,-0.7611,-0.7298,-0.742,-0.7779,-0.8285,-0.8053,-0.757,-0.7304,-0.7004,-0.6688,-0.6472,-0.6311,-0.6095,-0.5707,-0.5462,-0.5109,-0.4453,-0.41,-0.3773,-0.3357,-0.3109,-0.2915,-0.2696,-0.2364,-0.2003,-0.1615,-0.1114,-0.0613,-0.014,0.0446,0.0976,0.1393,0.1252,0.1057,0.0837,0.1282,0.1867,0.2591,0.309,0.3754,0.4608,0.5592,0.6362,0.6885,0.7498,0.7978,0.8388,0.8909,0.9373,-1.1814,-1.1768,-1.1595,-1.1682,-1.171,-1.171,-1.1687,0.0,0.0,0.0,0.0,0.0,0.0,0.0,0.0,0.0,0.0,0.0,0.0,0.0,0.0,0.0,0.0,0.0,0.0,0.0,0.0,0.0,0.0,0.0,0.0,0.0,0.0,-1.6824,-1.6493,-1.6557,-1.7042,-1.6875,-1.6621,-1.6244,-1.585,-1.5542,-1.5309,-1.4732,-1.4306,0.0,0.0,0.0,-1.2667,-1.2242,-1.1963,-1.1731,-1.1233,-1.078,-1.0373,-0.9879,-0.9266,-0.8626,-0.8369,-0.7853,-0.7261,-0.6961,-0.6396,-0.5774,-0.5475,-0.4984,-0.482,-0.6144,-0.6144,-0.5715,-0.5661,-0.5175,-0.469,-0.4577,-0.433,-0.403,-0.3729,-0.3506,-0.3199,-0.2532,-0.2258,-0.1952,-0.1422,-0.1142,-0.0947,-0.078,-0.0362,0.0,0.0223,0.0586,0.1032,0.148,0.2034,0.2589,0.3199,0.3751,0.3666,0.2751,0.303,0.3506,0.4153,0.4756,0.5519,0.6448,0.7155,0.7637,0.7963,0.862,0.9066,0.9394,0.9873,1.0413,-1.0798,-1.119,-1.1625,-1.2479,-1.2698,-1.2658,-1.2538,0.0,0.0,0.0,0.0,0.0,0.0,0.0,0.0,0.0,0.0,0.0,0.0,0.0,0.0,0.0,0.0,0.0,0.0,0.0,0.0,0.0,0.0,0.0,0.0,0.0,0.0,-1.5986,-1.571,-1.5365,-1.496,-1.5531,-1.5588,-1.5141,-1.4744,-1.4376,-1.4063,-1.3627,-1.3222,0.0,0.0,-1.1864,-1.1266,-1.0737,-1.0254,-0.981,-0.9481,-0.9091,-0.8666,-0.8462,-0.7874,-0.701,-0.6136,-0.5678,-0.5429,-0.4988,-0.4546,-0.414,-0.3978,-0.3425,-0.2896,-0.2973,-0.3696,-0.4395,-0.4061,-0.3871,-0.3677,-0.3151,-0.2901,-0.2676,-0.2235,-0.1814,-0.1424,-0.106,-0.067,-0.0307,-0.0112,0.0195,0.0474,0.0726,0.1172,0.1643,0.2197,0.2617,0.3035,0.3506,0.3837,0.422,0.4718,0.5046,0.5425,0.5873,0.5066,0.4964,0.5796,0.6524,0.7144,0.7631,0.8143,0.8646,0.9145,0.938,0.9744,1.0216,1.048,1.0939,-1.0533,-1.1105,-1.1633,-1.2339,-1.2395,-1.2228,-1.2141,0.0,0.0,0.0,0.0,0.0,0.0,0.0,0.0,0.0,0.0,0.0,0.0,0.0,0.0,0.0,0.0,0.0,0.0,0.0,0.0,0.0,0.0,0.0,0.0,0.0,0.0,0.0,-1.4468,-1.4039,-1.3687,-1.3797,-1.3901,-1.399,-1.365,-1.3331,-1.302,-1.2579,-1.2163,-1.169,0.0,-1.0585,-0.9997,-0.9396,-0.8934,-0.8521,-0.7927,-0.7528,-0.7186,-0.6509,-0.5937,-0.5389,-0.4639,-0.4284,-0.403,-0.342,-0.298,-0.2621,-0.2174,-0.173,-0.1314,-0.109,-0.1786,-0.2565,-0.2232,-0.2009,-0.1788,-0.1424,-0.1256,-0.1063,-0.07,-0.0448,-0.0112,0.0447,0.0726,0.1005,0.1478,0.173,0.2009,0.2399,0.2813,0.3226,0.3583,0.4058,0.4501,0.4776,0.5288,0.5751,0.615,0.6622,0.6891,0.688,0.6649,0.6784,0.7369,0.7925,0.8349,0.8593,0.9164,0.9581,0.984,1.0285,1.0676,1.0989,1.1318,1.1753,-1.0017,-1.0622,-1.1102,-1.1668,0.0,-1.1952,-1.1935,0.0,0.0,0.0,0.0,0.0,0.0,0.0,0.0,0.0,0.0,0.0,0.0,0.0,0.0,0.0,0.0,0.0,0.0,0.0,0.0,0.0,0.0,0.0,0.0,0.0,0.0,0.0,-1.328,-1.2895,-1.2652,-1.2267,-1.2365,-1.2929,-1.2628,-1.2325,-1.2012,-1.1518,-1.104,-1.0526,-0.9902,-0.928,-0.8705,-0.8119,-0.7641,-0.7224,-0.6487,-0.6027,-0.5678,-0.4642,-0.4116,-0.3807,-0.3317,-0.2929,-0.2591,-0.1981,-0.1564,-0.1174,-0.0615,-0.0252,0.0,0.0308,-0.0084,-0.0587,-0.0587,-0.0364,-0.0112,0.0056,0.0252,0.0448,0.0672,0.0868,0.1175,0.1789,0.2038,0.2345,0.2901,0.3209,0.3514,0.3929,0.437,0.4752,0.496,0.5433,0.5819,0.6005,0.6541,0.7085,0.7503,0.8157,0.8343,0.7845,0.8057,0.8355,0.8705,0.9086,0.9399,0.9621,1.0174,1.0499,1.0601,1.1209,1.1569,1.1753,1.2076,1.2446,-0.8573,-0.9096,-0.9575,-1.0409,-1.1688,0.0,-1.2873,-1.2897,0.0,0.0,0.0,0.0,0.0,0.0,0.0,0.0,0.0,0.0,0.0,0.0,0.0,0.0,0.0,0.0,0.0,0.0,0.0,0.0,0.0,0.0,0.0,0.0,0.0,0.0,0.0,-1.2178,-1.1619,-1.1283,-1.1459,-1.2166,-1.1769,-1.1351,-1.0889,-1.0372,-0.9832,-0.9306,-0.8672,-0.8045,-0.7391,-0.6789,-0.6113,-0.5469,-0.514,-0.4594,-0.3904,-0.3267,-0.2734,-0.2286,-0.1899,-0.1369,-0.0838,-0.0616,-0.0168,0.0252,0.0308,0.0644,0.1062,0.1398,0.1538,0.137,0.0532,0.0476,0.0699,0.095,0.1257,0.1511,0.1679,0.2237,0.2738,0.2794,0.3345,0.384,0.3898,0.437,0.4842,0.514,0.5687,0.6204,0.6659,0.6961,0.7262,0.7503,0.7711,0.8078,0.8791,0.947,0.9909,0.9979,0.9432,0.9283,0.9684,0.9961,1.0346,1.0846,1.1108,1.1393,1.1769,1.1952,1.2175,1.2421,1.2578,1.291,-0.7823,-0.8494,-0.9137,-0.9681,0.0,0.0,0.0,0.0,0.0,0.0,0.0,0.0,0.0,0.0,0.0,0.0,0.0,0.0,0.0,0.0,0.0,0.0,0.0,0.0,0.0,0.0,0.0,0.0,0.0,0.0,0.0,0.0,0.0,0.0,0.0,-1.0618,-1.031,-0.9858,-0.9773,-1.0038,-1.0226,-1.0046,-0.954,-0.9117,-0.86,-0.7998,-0.7374,-0.6708,-0.6014,-0.5441,-0.4921,-0.4422,-0.3871,-0.3153,-0.2402,-0.2038,-0.1566,-0.1035,-0.0616,-0.028,0.0084,0.0643,0.1036,0.1343,0.1818,0.2206,0.2538,0.2875,0.3125,0.3095,0.2179,0.2012,0.2178,0.2679,0.2875,0.3042,0.3234,0.3511,0.379,0.4095,0.437,0.4646,0.4952,0.5312,0.5668,0.5941,0.6556,0.709,0.7369,0.7871,0.827,0.8382,0.8869,0.9496,1.0233,1.0617,1.0947,1.125,1.077,1.0574,1.0727,1.1074,1.136,1.1569,1.1794,1.2002,1.215,1.2446,1.2666,1.2817,1.3118,1.343,-0.7026,-0.7599,-0.8198,0.0,0.0,0.0,0.0,0.0,0.0,0.0,0.0,0.0,0.0,0.0,0.0,0.0,0.0,0.0,0.0,0.0,0.0,0.0,0.0,0.0,0.0,0.0,0.0,0.0,0.0,0.0,0.0,0.0,0.0,0.0,0.0,0.0,-0.9059,-0.856,-0.8243,-0.8051,-0.8224,-0.831,-0.8323,-0.7886,-0.732,-0.6637,-0.6064,-0.541,-0.4728,-0.4208,-0.3707,-0.3176,-0.24,-0.1733,-0.1119,-0.0867,-0.0392,0.0196,0.056,0.0924,0.1287,0.1927,0.2289,0.2595,0.3206,0.3539,0.3812,0.4122,0.4343,0.4395,0.3981,0.368,0.3569,0.3987,0.4153,0.426,0.4453,0.4646,0.4869,0.5254,0.5496,0.5796,0.6204,0.6534,0.6837,0.7128,0.7658,0.8111,0.827,0.8771,0.9164,0.9302,0.9847,1.049,1.1175,1.1402,1.1653,1.2002,1.1902,1.1753,1.1628,1.1927,1.2126,1.22,1.2461,1.2608,1.2657,1.3065,1.3286,1.3399,1.3752,1.4046,-0.6074,-0.6203,-0.6494,0.0,0.0,0.0,0.0,0.0,0.0,0.0,0.0,0.0,0.0,0.0,0.0,0.0,0.0,0.0,0.0,0.0,0.0,0.0,0.0,0.0,0.0,0.0,0.0,0.0,0.0,0.0,0.0,0.0,0.0,0.0,0.0,0.0,-0.7898,-0.7477,-0.6988,-0.6389,-0.5787,-0.6113,-0.7262,-0.6659,-0.5982,-0.525,-0.4708,-0.4128,-0.3544,-0.3072,-0.2374,-0.151,-0.07,-0.0308,-0.014,0.0252,0.0784,0.137,0.1706,0.2293,0.2961,0.3234,0.3619,0.4061,0.4333,0.4556,0.478,0.505,0.5136,0.5273,0.5859,0.5391,0.4725,0.4725,0.4917,0.5109,0.5136,0.5582,0.6055,0.6182,0.6799,0.7391,0.7667,0.8084,0.8501,0.8778,0.9047,0.9316,0.9588,0.9744,0.9976,1.0377,1.0582,1.0922,1.1452,1.1744,1.2026,1.2298,1.2676,1.2725,1.2323,1.2431,1.2627,1.2905,1.3108,1.3266,1.342,1.3821,1.408,1.4222,1.4477,1.4708,-0.5631,-0.6194,0.0,0.0,0.0,0.0,0.0,0.0,0.0,0.0,0.0,0.0,0.0,0.0,0.0,0.0,0.0,0.0,0.0,0.0,0.0,0.0,0.0,0.0,0.0,0.0,0.0,0.0,0.0,0.0,0.0,0.0,0.0,0.0,0.0,0.0,-0.6421,-0.5878,-0.5464,-0.5187,-0.4694,-0.4858,-0.5605,-0.5081,-0.4587,-0.4067,-0.3486,-0.2903,-0.2263,-0.1482,-0.0756,-0.0168,0.0056,0.0532,0.1091,0.1203,0.1677,0.2319,0.2627,0.3074,0.3627,0.4119,0.456,0.5003,0.5391,0.5878,0.6281,0.6448,0.6642,0.6858,0.7133,0.7069,0.6843,0.6475,0.6448,0.6561,0.675,0.6918,0.7133,0.7364,0.7652,0.7998,0.8396,0.8751,0.9028,0.9197,0.9607,1.0123,1.0727,1.0829,1.1006,1.1418,1.1594,1.1828,1.2175,1.2357,1.2578,1.2856,1.3021,1.2997,1.2725,1.2997,1.3214,1.3382,1.3549,1.3681,1.3813,1.414,1.4326,1.4432,1.4892,1.5164,-0.5192,0.0,0.0,0.0,0.0,0.0,0.0,0.0,0.0,0.0,0.0,0.0,0.0,0.0,0.0,0.0,0.0,0.0,0.0,0.0,0.0,0.0,0.0,0.0,0.0,0.0,0.0,0.0,0.0,0.0,0.0,0.0,0.0,0.0,0.0,0.0,-0.5081,-0.4618,-0.4233,-0.3898,-0.337,-0.3231,-0.3395,-0.3539,-0.3347,-0.2847,-0.1981,-0.1369,-0.0868,0.0028,0.0588,0.0896,0.1203,0.1649,0.2151,0.2319,0.279,0.3347,0.3683,0.4153,0.4701,0.5273,0.5714,0.61,0.6615,0.702,0.7364,0.7616,0.7803,0.799,0.817,0.8329,0.8276,0.775,0.7643,0.775,0.7963,0.807,0.817,0.8455,0.8685,0.902,0.9503,0.9847,1.0113,1.0285,1.0635,1.1049,1.1469,1.1578,1.1719,1.2026,1.2126,1.2283,1.2554,1.2652,1.2808,1.3085,1.3262,1.3348,1.3334,1.3586,1.3776,1.3928,1.4186,1.4362,1.4444,1.4731,1.4915,1.504,1.54,1.5657,-0.4809,0.0,0.0,0.0,0.0,0.0,0.0,0.0,0.0,0.0,0.0,0.0,0.0,0.0,0.0,0.0,0.0,0.0,0.0,0.0,0.0,0.0,0.0,0.0,0.0,0.0,0.0,0.0,0.0,0.0,0.0,0.0,0.0,0.0,0.0,0.0,-0.3868,-0.3566,-0.3125,0.0,-0.1928,-0.1426,-0.1006,-0.2011,-0.2151,-0.1482,-0.0363,0.0307,0.0644,0.1399,0.1733,0.1845,0.2512,0.2875,0.31,0.3544,0.3956,0.437,0.4842,0.5363,0.5937,0.648,0.6891,0.7246,0.7797,0.7978,0.8084,0.8547,0.8705,0.8778,0.9059,0.9223,0.9211,0.8758,0.8679,0.8758,0.8883,0.9007,0.9164,0.9439,0.9795,1.0226,1.0778,1.1141,1.1418,1.1694,1.1852,1.1952,1.1977,1.2076,1.22,1.2357,1.2372,1.248,1.2749,1.2774,1.2871,1.3148,1.3488,1.38,1.4095,1.4212,1.4339,1.4489,1.4926,1.5153,1.5153,1.5479,1.5714,1.5814,1.5979,1.6088,0.0,-0.5264,0.0,0.0,0.0,0.0,0.0,0.0,0.0,0.0,0.0,0.0,0.0,0.0,0.0,0.0,0.0,0.0,0.0,0.0,0.0,0.0,0.0,0.0,0.0,0.0,0.0,0.0,0.0,0.0,0.0,0.0,0.0,0.0,0.0,-0.3042,-0.2815,-0.2289,-0.1788,0.0,-0.0782,-0.0335,0.0056,-0.0588,-0.0448,0.0363,0.0978,0.1564,0.2066,0.2347,0.2736,0.3181,0.3347,0.371,0.4181,0.4398,0.4728,0.514,0.5614,0.6,0.6376,0.6966,0.7343,0.767,0.8156,0.8501,0.8817,0.9152,0.938,0.964,1.0002,1.0113,1.0223,1.06,1.0105,0.9581,0.9703,0.9755,0.9865,1.0138,1.0377,1.071,1.1267,1.1502,1.1753,1.2101,1.22,1.2298,1.2505,1.2554,1.2652,1.2905,1.2929,1.3017,1.3228,1.3252,1.3406,1.3784,1.408,1.4419,1.4846,1.48,1.4858,1.5108,1.5367,1.5524,1.5659,1.5824,1.5935,1.5957,1.6197,1.6328,0.0,0.0,0.0,0.0,0.0,0.0,0.0,0.0,0.0,0.0,0.0,0.0,0.0,0.0,0.0,0.0,0.0,0.0,0.0,0.0,0.0,0.0,0.0,0.0,0.0,0.0,0.0,0.0,0.0,0.0,0.0,0.0,0.0,0.0,-0.2006,-0.1711,-0.1555,-0.0998,-0.0503,-0.0028,0.0447,0.095,0.1482,0.0839,0.0951,0.1703,0.2124,0.2597,0.304,0.3403,0.3738,0.4042,0.4315,0.4704,0.5144,0.5332,0.5741,0.6209,0.6507,0.6891,0.7327,0.7771,0.8143,0.8494,0.8935,0.9309,0.9655,1.0087,1.0362,1.0592,1.093,1.1065,1.1192,1.1519,1.1032,1.0566,1.077,1.0812,1.0871,1.1082,1.1242,1.1502,1.1902,1.215,1.2382,1.2627,1.2676,1.2774,1.2997,1.2973,1.3045,1.3296,1.3272,1.3344,1.3573,1.3586,1.3763,1.4174,1.4408,1.4777,1.5266,1.539,1.549,1.5623,1.5856,1.6022,1.61,1.6197,1.6228,1.6228,1.6392,1.6457,0.0,0.0,0.0,0.0,0.0,0.0,0.0,0.0,0.0,0.0,0.0,0.0,0.0,0.0,0.0,0.0,0.0,0.0,0.0,0.0,0.0,0.0,0.0,0.0,0.0,0.0,0.0,0.0,0.0,0.0,0.0,0.0,-0.1205,-0.1143,-0.0733,-0.0446,-0.0239,0.0191,0.0666,0.1173,0.1704,0.2319,0.2986,0.2373,0.2317,0.2734,0.3155,0.3547,0.3904,0.4432,0.4708,0.4846,0.5281,0.5691,0.6046,0.6312,0.6777,0.7268,0.7477,0.7883,0.8348,0.8679,0.8995,0.9335,0.9769,1.0087,1.0403,1.0989,1.1276,1.1452,1.1728,1.1902,1.1977,1.2026,1.1778,1.1578,1.1753,1.1778,1.1803,1.1952,1.2101,1.2274,1.2505,1.2735,1.2954,1.3085,1.3099,1.3186,1.3396,1.3362,1.3409,1.3658,1.3634,1.3681,1.3975,1.3999,1.4186,1.4581,1.4789,1.5108,1.5603,1.5913,1.6076,1.6076,1.6306,1.6464,1.6564,1.6629,1.6688,1.6789,1.6789,1.6789,0.0,0.0,0.0,0.0,0.0,0.0,0.0,0.0,0.0,0.0,0.0,0.0,0.0,0.0,0.0,0.0,0.0,0.0,0.0,0.0,0.0,0.0,0.0,0.0,0.0,0.0,0.0,0.0,0.0,0.0,0.0,-0.0562,-0.039,-0.0119,0.0072,0.0374,0.0796,0.1093,0.1599,0.2287,0.2984,0.3652,0.4267,0.4156,0.3932,0.3655,0.4101,0.4546,0.4904,0.5117,0.55,0.5991,0.6041,0.6426,0.6972,0.723,0.7524,0.7871,0.8402,0.8646,0.8804,0.9302,0.951,0.964,1.0164,1.048,1.0744,1.1293,1.1553,1.1753,1.2126,1.2224,1.2308,1.2529,1.2554,1.2431,1.2101,1.2051,1.2076,1.2224,1.2455,1.2627,1.2686,1.2808,1.2954,1.3085,1.3152,1.3276,1.3539,1.3668,1.381,1.4082,1.421,1.4396,1.4731,1.4869,1.5085,1.5412,1.558,1.5792,1.6078,1.6275,1.6371,1.6423,1.6479,1.6738,1.7275,1.7285,1.7513,1.7978,1.7978,1.7978,0.0,0.0,0.0,0.0,0.0,0.0,0.0,0.0,0.0,0.0,0.0,0.0,0.0,0.0,0.0,0.0,0.0,0.0,0.0,0.0,0.0,0.0,0.0,0.0,0.0,0.0,0.0,0.0,0.0,0.0,0.0045,0.0358,0.0609,0.0758,0.1151,0.1513,0.1829,0.2286,0.2889,0.3624,0.4181,0.4622,0.4952,0.5308,0.514,0.4677,0.5062,0.5418,0.5746,0.6154,0.6453,0.6729,0.6939,0.7235,0.7584,0.7904,0.8223,0.8573,0.8988,0.9328,0.9647,0.9958,1.0293,1.0625,1.0913,1.1242,1.1553,1.1952,1.215,1.2323,1.2578,1.27,1.2783,1.2905,1.3007,1.3045,1.2866,1.274,1.27,1.2876,1.3021,1.3118,1.319,1.3248,1.3368,1.357,1.3692,1.3907,1.4281,1.4305,1.4455,1.4789,1.4731,1.4823,1.521,1.5289,1.5468,1.579,1.5891,1.6169,1.6742,1.6809,1.7048,1.7428,1.7162,1.7124,1.741,1.7689,1.7965,1.8204,1.8204,1.8204,0.0,0.0,0.0,0.0,0.0,0.0,0.0,0.0,0.0,0.0,0.0,0.0,0.0,0.0,0.0,0.0,0.0,0.0,0.0,0.0,0.0,0.0,0.0,0.0,0.0,0.0,0.0,0.0,0.0,0.0,0.0827,0.1252,0.1544,0.1655,0.2119,0.2479,0.2731,0.3428,0.4127,0.4846,0.5203,0.5504,0.5769,0.6236,0.6236,0.5905,0.6073,0.6263,0.6529,0.7052,0.7327,0.7461,0.775,0.8017,0.8276,0.86,0.8949,0.9342,0.9699,1.0113,1.0506,1.0727,1.1091,1.1477,1.1644,1.1902,1.22,1.248,1.2627,1.2725,1.2856,1.3002,1.3099,1.3123,1.3286,1.3443,1.3443,1.3368,1.333,1.3478,1.3539,1.3576,1.3681,1.3705,1.3787,1.4057,1.421,1.4488,1.5119,1.5154,1.5303,1.581,1.5695,1.5741,1.6074,1.6108,1.6266,1.6536,1.6571,1.6833,1.7437,1.7449,1.7695,1.8191,1.794,1.7802,1.7802,1.8216,1.848,1.8606,1.8606,1.8606,0.0,0.0,0.0,0.0,0.0,0.0,0.0,0.0,0.0,0.0,0.0,0.0,0.0,0.0,0.0,0.0,0.0,0.0,0.0,0.0,0.0,0.0,0.0,0.0,0.0,0.0,0.0,0.0,0.0,0.0,0.1988,0.2032,0.2235,0.262,0.2773,0.3016,0.3357,0.4318,0.5135,0.5746,0.6018,0.6453,0.7004,0.7025,0.7241,0.7563,0.7187,0.7106,0.7262,0.7563,0.7943,0.8342,0.8342,0.8685,0.9152,0.9432,0.9803,1.0223,1.0812,1.1124,1.1318,1.1703,1.1852,1.1927,1.2175,1.2274,1.2357,1.2603,1.27,1.2725,1.2856,1.3002,1.3123,1.318,1.3396,1.3597,1.3597,1.3692,1.3773,1.3773,1.3871,1.3978,1.3978,1.3978,1.4071,1.4326,1.4443,1.4853,1.5893,1.6139,1.6527,1.7291,1.7484,1.7593,1.7676,1.7807,1.7926,1.8069,1.8092,1.8105,1.8154,1.8154,1.8155,1.8204,1.8669,1.892,1.892,1.8945,1.9208,1.9723,1.9723,1.9723,0.0,0.0,0.0,0.0,0.0,0.0,0.0,0.0,0.0,0.0,0.0,0.0,0.0,0.0,0.0,0.0,0.0,0.0,0.0,0.0,0.0,0.0,0.0,0.0,0.0,0.0,0.0,0.0,0.0,0.0,0.261,0.2746,0.2946,0.3278,0.3458,0.3937,0.4735,0.5401,0.6026,0.6647,0.6831,0.7101,0.7482,0.7803,0.8023,0.8156,0.8362,0.8282,0.8043,0.8494,0.8758,0.8949,0.9204,0.9406,0.964,0.9984,1.03,1.059,1.1167,1.1502,1.1753,1.2051,1.2274,1.2421,1.2529,1.2627,1.2725,1.2905,1.2954,1.3002,1.3166,1.3392,1.3678,1.4165,1.4421,1.4617,1.4766,1.4489,1.428,1.4581,1.4663,1.4754,1.4926,1.4949,1.5006,1.5142,1.5567,1.6044,1.6605,1.7013,1.741,1.7785,1.7786,1.781,1.7918,1.7965,1.806,1.8204,1.8204,1.8355,1.8694,1.8707,1.8894,1.9221,1.9422,1.9334,1.9008,1.9334,1.9623,1.9798,1.9798,1.9798,-0.1102,0.0,0.0,0.0,0.0,0.0,0.0,0.0,0.0,0.0,0.0,0.0,0.0,0.0,0.0,0.0,0.0,0.0,0.0,0.0,0.0,0.0,0.0,0.0,0.0,0.0,0.0,0.0,0.0,0.0,0.3233,0.3458,0.3769,0.4201,0.4343,0.4889,0.5922,0.628,0.678,0.7375,0.7584,0.7803,0.8076,0.8474,0.8712,0.8837,0.9309,0.9237,0.8758,0.923,0.9491,0.9621,0.9906,1.0131,1.0336,1.0651,1.0939,1.1217,1.1678,1.1977,1.22,1.2431,1.2627,1.2783,1.2783,1.2856,1.2978,1.3089,1.321,1.3306,1.3501,1.381,1.4233,1.488,1.5142,1.5311,1.5625,1.521,1.4892,1.5221,1.5311,1.5379,1.5558,1.5603,1.5684,1.5963,1.6388,1.6889,1.7514,1.7919,1.8264,1.8572,1.8523,1.8511,1.8597,1.8597,1.8634,1.8744,1.8744,1.8907,1.9246,1.9259,1.9447,1.9798,1.9798,1.9623,1.9259,1.9635,1.9798,1.9798,1.9798,1.9798,0.0,0.0,0.0,0.0,0.0,0.0,0.0,0.0,0.0,0.0,0.0,0.0,0.0,0.0,0.0,0.0,0.0,0.0,0.0,0.0,0.0,0.0,0.0,0.0,0.0,0.0,0.0,0.0,0.0,0.3722,0.3924,0.4192,0.4674,0.5403,0.5445,0.5908,0.6815,0.6965,0.7347,0.7925,0.8256,0.856,0.8831,0.9113,0.9361,0.964,1.0069,0.9932,0.9491,0.9744,1.0079,1.0429,1.0454,1.0812,1.1318,1.1469,1.1769,1.215,1.2397,1.2603,1.2725,1.2856,1.2905,1.2905,1.2905,1.3002,1.3123,1.3204,1.3409,1.3644,1.3787,1.4244,1.4754,1.5232,1.5434,1.5625,1.5944,1.5812,1.5635,1.5613,1.5736,1.5814,1.5814,1.5826,1.6074,1.6718,1.6838,1.7334,1.8635,1.8809,1.907,1.9722,1.9798,1.9798,1.9798,1.9798,1.9798,1.9798,1.9798,1.9798,1.9798,1.9798,1.9798,1.9798,1.9798,1.9798,1.9798,1.9798,1.9798,1.9798,1.9798,1.9798,-0.0067,0.0,0.0,0.0,0.0,0.0,0.0,0.0,0.0,0.0,0.0,0.0,0.0,0.0,0.0,0.0,0.0,0.0,0.0,0.0,0.0,0.0,0.0,0.0,0.0,0.0,0.0,0.0,0.4052,0.4338,0.4683,0.5269,0.5705,0.5909,0.6508,0.7026,0.7386,0.7809,0.8187,0.856,0.8844,0.9126,0.9387,0.9758,1.0017,1.0216,1.0761,1.0964,1.093,1.088,1.0956,1.1065,1.1368,1.1594,1.1753,1.2002,1.215,1.2274,1.2554,1.2686,1.2735,1.2964,1.3036,1.3075,1.3214,1.3286,1.3382,1.3692,1.3905,1.4176,1.4743,1.5176,1.5547,1.5869,1.6044,1.6197,1.6328,1.6293,1.6228,1.6197,1.6219,1.6241,1.6306,1.6675,1.702,1.7215,1.7888,1.8522,1.8908,1.9271,1.9584,1.9786,1.9798,1.9798,1.9798,1.9798,1.9798,1.9798,1.9798,1.9798,1.9798,1.9798,1.9798,1.9798,1.9798,1.9798,1.9798,1.9798,1.9798,1.9798,1.9798,1.9798,0.0,0.0,0.0,0.0,0.0,0.0,0.0,0.0,0.0,0.0,0.0,0.0,0.0,0.0,0.0,0.0,0.0,0.0,0.0,0.0,0.0,0.0,0.0,0.0,0.0,0.0,0.0,0.0,0.4688,0.5096,0.5643,0.6079,0.6458,0.6788,0.7307,0.7701,0.8017,0.8397,0.8692,0.8982,0.9361,0.964,0.988,1.0395,1.0735,1.0888,1.1418,1.1703,1.1852,1.1877,1.1828,1.1753,1.1977,1.215,1.2249,1.2406,1.2529,1.2652,1.2808,1.292,1.3031,1.3176,1.3306,1.3402,1.3525,1.3681,1.3871,1.414,1.4466,1.4869,1.5445,1.5746,1.6017,1.6493,1.6675,1.6826,1.7152,1.7225,1.7127,1.6857,1.682,1.6904,1.7152,1.7501,1.7802,1.8028,1.8594,1.9083,1.9296,1.961,1.9798,1.9798,1.9798,1.9798,1.9798,1.9798,1.9798,1.9798,1.9798,1.9798,1.9798,1.9798,1.9798,1.9798,1.9798,1.9924,2.0162,1.9924,1.9924,2.0189,2.0388,2.0501,0.0,0.0,0.0,0.0,0.0,0.0,0.0,0.2078,0.0,0.0,0.0,0.0,0.0,0.0,0.0,0.0,0.0,0.0,0.0,0.0,0.0,0.0,0.0,0.0,0.0,0.0,0.4589,0.4896,0.5387,0.5947,0.6616,0.6733,0.7097,0.7823,0.7892,0.8159,0.8653,0.8824,0.9035,0.9283,0.9865,1.0208,1.0377,1.1065,1.1452,1.1619,1.2002,1.2224,1.2357,1.2627,1.2578,1.2357,1.2357,1.2529,1.2735,1.2735,1.2905,1.3123,1.3148,1.3272,1.3443,1.3515,1.3658,1.3892,1.3928,1.4186,1.4512,1.4617,1.5142,1.573,1.6064,1.6201,1.6426,1.7144,1.7302,1.7474,1.8067,1.8204,1.8078,1.7674,1.7536,1.7626,1.8129,1.8254,1.8455,1.8933,1.9058,1.9259,1.9748,1.9798,1.9798,1.9798,1.9798,1.9798,1.9798,1.9798,1.9798,1.9798,1.9798,1.9823,1.9899,1.9899,1.9924,1.9987,1.9987,2.0238,2.0779,2.0175,2.02,2.0792,2.1282,2.1521,0.0,0.0,0.0,0.0,0.0,0.0,0.0,0.254,0.0,0.0,0.0,0.0,0.0,0.0,0.0,0.0,0.0,0.0,0.0,0.0,0.0,0.0,0.0,0.0,0.0,0.0,0.5144,0.5572,0.6284,0.6761,0.6906,0.7541,0.7958,0.8118,0.8532,0.8816,0.8929,0.9387,0.9692,0.9865,1.0549,1.1015,1.1267,1.1719,1.2026,1.215,1.2455,1.2603,1.2627,1.2774,1.2783,1.2627,1.2735,1.2881,1.3027,1.3027,1.3162,1.3358,1.3478,1.3597,1.3787,1.4093,1.4233,1.435,1.4743,1.4903,1.504,1.5424,1.6114,1.6748,1.6917,1.7366,1.7809,1.7969,1.8005,1.8042,1.8179,1.8204,1.8304,1.8619,1.8342,1.8078,1.8191,1.8556,1.8882,1.8983,1.9359,1.9685,1.9786,1.9798,1.9798,1.9798,1.9798,1.9798,1.9798,1.9798,1.9798,1.9798,1.9798,2.0012,2.0503,2.0515,2.0729,2.1154,2.1154,2.1245,2.1358,2.0792,2.0817,2.1358,2.1443,2.1564,0.0,0.0,0.0,0.3036,0.0,0.0,0.0,0.0,0.0,0.0,0.0,0.0,0.0,0.0,0.0,0.0,0.0,0.0,0.0,0.0,0.0,0.0,0.0,0.0,0.0,0.0,0.5809,0.6215,0.6818,0.7247,0.7441,0.8043,0.8449,0.8596,0.9004,0.9237,0.9309,0.9777,1.0113,1.037,1.1057,1.1502,1.1728,1.2175,1.2431,1.2505,1.27,1.2808,1.2808,1.2929,1.2954,1.2905,1.2905,1.2978,1.3099,1.3128,1.3372,1.3718,1.3847,1.4129,1.4489,1.4674,1.4846,1.5028,1.5277,1.5633,1.6087,1.673,1.7183,1.7545,1.7649,1.7944,1.8279,1.8531,1.8594,1.8657,1.8945,1.9007,1.9083,1.9359,1.9196,1.9007,1.9007,1.9233,1.9384,1.9384,1.9635,1.9798,1.9798,1.9798,1.9798,1.9798,1.9798,1.9924,2.0239,2.0264,2.0351,2.0627,2.0639,2.0778,2.1094,2.1106,2.1232,2.1481,2.1493,2.1619,2.1895,2.1619,2.1631,2.1907,2.2184,2.2396,0.0,0.0,0.0,0.0,0.0,0.3908,0.0,0.0,0.0,0.4226,0.0,0.0,0.0,0.0,0.0,0.0,0.0,0.0,0.0,0.0,0.0,0.0,0.0,0.0,0.0,0.0,0.6477,0.6747,0.7244,0.7669,0.8011,0.8504,0.8908,0.9152,0.942,0.9621,0.9744,1.0216,1.0608,1.0896,1.1553,1.1927,1.2076,1.2529,1.2735,1.2759,1.2881,1.2929,1.2954,1.3099,1.3172,1.3172,1.3041,1.3089,1.3244,1.3348,1.3708,1.4212,1.4351,1.4754,1.521,1.5382,1.5725,1.6068,1.6068,1.654,1.7209,1.7865,1.8111,1.8223,1.8343,1.8442,1.8631,1.9045,1.9146,1.9271,1.971,1.9798,1.9798,1.9798,1.9798,1.9798,1.9798,1.9798,1.9798,1.9798,1.9798,1.9798,1.9798,1.9899,1.9962,1.9962,2.0062,2.0313,2.0817,2.0842,2.1043,2.1455,2.1493,2.1543,2.1644,2.1744,2.1807,2.1807,2.1807,2.202,2.2443,2.2443,2.2443,2.2485,2.2937,2.3271,0.0,0.0,0.0,0.0,0.4685,0.0,0.0,0.0,0.4505,0.4548,0.0,0.0,0.0,0.0,0.0,0.0,0.0,0.0,0.0,0.0,0.0,0.0,0.0,0.0,0.0,0.0,0.0,0.6958,0.7835,0.8393,0.8428,0.9109,0.9551,0.971,0.9958,1.0172,1.0318,1.1015,1.1418,1.1594,1.215,1.248,1.2627,1.2808,1.2881,1.2881,1.3027,1.3085,1.3085,1.3286,1.3454,1.3525,1.3396,1.3501,1.375,1.3988,1.4374,1.4835,1.5085,1.5333,1.5662,1.6388,1.7115,1.772,1.772,1.7876,1.8069,1.8155,1.8531,1.8883,1.8907,1.9246,1.9635,1.9698,1.971,1.9736,1.9798,1.9798,1.9798,1.9798,1.9798,1.9798,1.9798,1.9798,1.9798,1.9798,1.9798,1.9798,1.9798,2.0277,2.0591,2.0591,2.1031,2.1317,2.1393,2.1393,2.1458,2.1493,2.1493,2.1707,2.2196,2.2656,2.292,2.292,2.292,2.2945,2.3007,2.3007,2.3007,2.3007,2.3233,2.3522,0.0,0.0,0.0,0.0,0.0,0.0,0.0,0.0,0.4804,0.0,0.0,0.0,0.0,0.0,0.0,0.0,0.0,0.0,0.0,0.0,0.0,0.0,0.0,0.0,0.0,0.0,0.0,0.0,0.0,0.874,0.878,0.9594,1.0087,1.0156,1.0608,1.0888,1.104,1.1569,1.1927,1.2051,1.2421,1.2686,1.2832,1.2954,1.3065,1.319,1.3248,1.3368,1.3512,1.3776,1.3941,1.4093,1.4292,1.4292,1.4163,1.4361,1.4789,1.5324,1.5832,1.6236,1.6661,1.7375,1.7839,1.817,1.8495,1.862,1.8719,1.9045,1.9296,1.9447,1.9447,1.9635,1.9798,1.9798,1.9798,1.9798,1.9798,1.9798,1.9899,2.0264,2.0327,2.0427,2.0727,2.0238,1.9798,1.9798,2.0087,2.0327,2.0327,2.083,2.1169,2.1169,2.1383,2.1619,2.1945,2.197,2.2137,2.258,2.2693,2.2794,2.2947,2.3144,2.321,2.3108,2.3198,2.3271,2.3271,2.345,2.3569,2.3569,2.3463,2.3582,0.6067,0.0,0.0,0.0,0.0,0.0,0.0,0.0,0.0,0.0,0.0,0.0,0.0,0.0,0.0,0.0,0.0,0.0,0.0,0.0,0.0,0.0,0.0,0.0,0.0,0.0,0.0,0.0,0.0,0.0,0.9329,1.0246,1.0761,1.0812,1.1267,1.1578,1.1728,1.2076,1.2323,1.248,1.27,1.2895,1.3041,1.3138,1.3296,1.3515,1.3586,1.3752,1.3975,1.4316,1.4524,1.4708,1.5257,1.5315,1.5072,1.513,1.5475,1.6012,1.6689,1.7248,1.7761,1.8268,1.853,1.8719,1.9096,1.9221,1.9296,1.9698,1.9798,1.9798,1.9798,1.9798,1.9798,1.9798,1.9798,1.9849,1.9999,2.0037,2.0239,2.0805,2.0918,2.1043,2.1418,2.0803,2.0263,2.0263,2.0654,2.0918,2.0918,2.1408,2.1707,2.1707,2.1845,2.2108,2.2498,2.2506,2.277,2.3378,2.3582,2.3641,2.3522,2.3569,2.3526,2.3365,2.3526,2.3599,2.3599,2.3865,2.4024,2.3995,2.3806,2.3894,0.0,0.0,0.0,0.6477,0.0,0.0,0.0,0.0,0.593,0.0,0.0,0.0,0.0,0.0,0.0,0.0,0.0,0.0,0.0,0.0,0.0,0.0,0.0,0.0,0.0,0.0,0.0,0.0,0.0,0.0,1.0129,1.1107,1.1728,1.1852,1.2002,1.215,1.2274,1.2529,1.2759,1.2881,1.3027,1.3186,1.3386,1.3396,1.3549,1.3797,1.4059,1.4257,1.443,1.488,1.5142,1.5357,1.6148,1.6548,1.6708,1.6581,1.6708,1.7048,1.7718,1.8385,1.8958,1.897,1.9346,1.9748,1.9773,1.9773,1.9786,1.9798,1.9798,1.9798,1.9798,1.9798,1.9798,1.9798,1.9798,1.9962,2.0541,2.0666,2.083,2.1355,2.1455,2.1496,2.1493,2.1455,2.1443,2.1443,2.1443,2.1455,2.1455,2.1945,2.2255,2.2255,2.2732,2.3058,2.3083,2.3083,2.3185,2.3403,2.3713,2.3891,2.3891,2.3998,2.406,2.4073,2.406,2.4073,2.4073,2.4205,2.4292,2.4292,2.4408,2.4637,0.0,0.0,0.7168,0.7168,0.0,0.0,0.0,0.0,0.0,0.0,0.0,0.0,0.0,0.0,0.0,0.0,0.0,0.0,0.0,0.0,0.0,0.0,0.0,0.0,0.0,0.0,0.0,0.0,0.0,0.0,0.0,1.1564,1.2126,1.215,1.2382,1.2529,1.2554,1.2735,1.2905,1.3027,1.3128,1.3334,1.3668,1.3847,1.4142,1.4547,1.4709,1.4937,1.5233,1.5844,1.6157,1.6355,1.7189,1.7539,1.7562,1.7397,1.748,1.7767,1.8422,1.9033,1.9547,1.9547,1.966,1.9798,1.9798,1.9798,1.9798,1.9798,1.9798,1.9798,1.9798,2.0087,2.0402,2.0402,2.0679,2.0978,2.1194,2.1232,2.1408,2.1933,2.2033,2.2175,2.2681,2.2774,2.2463,2.1634,2.1794,2.2033,2.2033,2.2493,2.2891,2.3022,2.3187,2.3403,2.3611,2.378,2.3914,2.3985,2.4319,2.4434,2.4305,2.4463,2.4507,2.4379,2.4593,2.4708,2.4708,2.5457,2.5834,2.5847,2.6635,2.6592,0.7546,0.7758,0.0,0.8012,0.7823,0.0,0.7676,0.0,0.0,0.0,0.0,0.0,0.0,0.0,0.0,0.0,0.0,0.0,0.0,0.0,0.0,0.0,0.0,0.0,0.0,0.0,0.7724,0.8236,0.0,0.0,0.0,0.0,1.2505,1.2505,1.2676,1.2774,1.2832,1.2929,1.3099,1.3354,1.3406,1.3658,1.4116,1.4303,1.464,1.5131,1.5463,1.5762,1.6092,1.6793,1.7164,1.7295,1.8064,1.836,1.8336,1.8203,1.8363,1.8709,1.9121,1.9522,1.9798,1.9798,1.9798,1.9836,2.0037,2.0112,2.015,2.0338,2.0401,2.0401,2.0401,2.0704,2.0981,2.0981,2.1285,2.1627,2.1829,2.1936,2.2116,2.2643,2.2728,2.2854,2.3399,2.3433,2.3149,2.2356,2.2501,2.2699,2.2699,2.2912,2.3168,2.3373,2.3403,2.3522,2.3861,2.4144,2.4321,2.4379,2.4953,2.526,2.5175,2.5679,2.5875,2.5746,2.6018,2.6145,2.606,2.6833,2.7158,2.7115,2.8011,2.8068]},{"header":{"parameterUnit":"m.s-1","parameterCategory":1,"la1":30.6,"la2":29.2853,"lo1":-89.7004,"lo2":-87.6739,"dy":0.0162,"dx":0.0183,"nx":112,"ny":82,"refTime":"2024-10-09T12:00:00:Z","depth":0,"parameterNumber":3,"parameterNumberName":"V-component_of_WINDS"},"data":[0.0,0.0,0.0,0.0,0.0,0.0,0.0,0.0,0.0,0.0,0.0,0.0,0.0,0.0,0.0,0.0,0.0,0.0,0.0,0.0,0.0,0.0,0.0,0.0,0.0,0.0,0.0,0.0,0.0,0.0,0.0,0.0,0.0,0.0,0.0,0.0,0.0,0.0,0.0,0.0,0.0,0.0,0.0,0.0,0.0,0.0,0.0,0.0,0.0,0.0,0.0,0.0,0.0,0.0,0.0,0.0,0.0,0.0,0.0,0.0,0.0,0.0,0.0,0.0,0.0,0.0,0.0,0.0,0.0,0.0,0.0,0.0,0.0,0.0,0.0,0.0,0.0,0.0,0.0,0.0,0.0,0.0,0.0,0.0,0.0,0.0,0.0,0.0,0.0,0.0,0.0,-0.67,-0.7527,-0.791,-0.7632,-0.6789,-0.59,-0.4999,0.0,0.0,0.0,0.0,0.0,0.0,0.0,0.0,0.0,0.0,0.0,0.0,0.0,0.0,0.0,0.0,0.0,0.0,0.0,0.0,0.0,0.0,0.0,0.0,0.0,0.0,0.0,0.0,0.0,0.0,0.0,0.0,0.0,0.0,0.0,0.0,0.0,0.0,0.0,0.0,0.0,0.0,0.0,0.0,0.0,0.0,0.0,0.0,0.0,0.0,0.0,0.0,0.0,0.0,0.0,0.0,0.0,0.0,0.0,0.0,0.0,0.0,0.0,0.0,0.0,0.0,0.0,0.0,0.0,0.0,0.0,0.0,0.0,0.0,0.0,0.0,0.0,0.0,0.0,0.0,0.0,0.0,0.0,0.0,0.0,0.0,0.0,0.0,0.0,0.0,0.0,0.0,0.0,0.0,0.0,0.0,0.0,0.0,0.0,0.0,0.0,0.0,0.0,0.0,-0.6479,-0.7579,-0.7626,-0.7613,-0.7676,-0.6789,-0.591,-0.5195,0.0,0.0,0.0,0.0,0.0,0.0,0.0,0.0,0.0,0.0,0.0,0.0,0.0,0.0,0.0,0.0,0.0,0.0,0.0,0.0,0.0,0.0,0.0,0.0,0.0,0.0,0.0,0.0,0.0,0.0,0.0,0.0,0.0,0.0,0.0,0.0,0.0,0.0,0.0,0.0,0.0,0.0,0.0,0.0,0.0,0.0,0.0,0.0,0.0,0.0,0.0,0.0,0.0,0.0,0.0,0.0,0.0,0.0,0.0,0.0,0.0,0.0,0.0,0.0,0.0,0.0,0.0,0.0,0.0,0.0,0.0,0.0,0.0,0.0,0.0,0.0,0.0,0.0,0.0,0.0,0.0,0.0,0.0,0.0,0.0,0.0,0.0,0.0,0.0,0.0,0.0,0.0,0.0,0.0,0.0,0.0,0.0,0.0,0.0,0.0,0.0,0.0,0.0,-0.597,-0.6875,-0.7748,-0.784,-0.7771,-0.7652,-0.6852,-0.6027,-0.5245,-0.4086,0.0,0.0,0.0,0.0,0.0,0.0,0.0,0.0,0.0,0.0,0.0,0.0,0.0,0.0,0.0,0.0,0.0,0.0,0.0,0.0,0.0,0.0,0.0,0.0,0.0,0.0,0.0,0.0,0.0,0.0,0.0,0.0,0.0,0.0,0.0,0.0,0.0,0.0,0.0,0.0,0.0,0.0,0.0,0.0,0.0,0.0,0.0,0.0,0.0,0.0,0.0,0.0,0.0,0.0,0.0,0.0,0.0,0.0,0.0,0.0,0.0,0.0,0.0,0.0,0.0,0.0,0.0,0.0,0.0,0.0,0.0,0.0,0.0,0.0,0.0,0.0,0.0,0.0,0.0,0.0,0.0,0.0,0.0,0.0,0.0,0.0,0.0,0.0,0.0,0.0,0.0,0.0,0.0,0.0,0.0,0.0,0.0,0.0,0.0,0.0,0.0,0.0,-0.6357,-0.6976,-0.7733,-0.7843,-0.7809,-0.763,-0.686,-0.6053,-0.5301,-0.4278,0.0,0.0,0.0,0.0,0.0,0.0,0.0,0.0,0.0,0.0,0.0,0.0,0.0,0.0,0.0,0.0,0.0,0.0,0.0,0.0,0.0,0.0,0.0,0.0,0.0,0.0,0.0,0.0,0.0,0.0,0.0,0.0,0.0,0.0,0.0,0.0,0.0,0.0,0.0,0.0,0.0,0.0,0.0,0.0,0.0,0.0,0.0,0.0,0.0,0.0,0.0,0.0,0.0,0.0,0.0,0.0,0.0,0.0,0.0,0.0,0.0,0.0,0.0,0.0,0.0,0.0,0.0,0.0,0.0,0.0,0.0,0.0,0.0,0.0,0.0,0.0,0.0,0.0,0.0,0.0,0.0,0.0,0.0,0.0,0.0,0.0,0.0,0.0,0.0,0.0,0.0,0.0,0.0,0.0,0.0,0.0,0.0,0.0,0.0,0.0,0.0,0.0,-0.6153,-0.6722,-0.769,-0.7472,-0.7359,-0.7589,-0.6633,-0.584,-0.5421,-0.4323,0.0,0.0,0.0,0.0,0.0,0.0,0.0,0.0,0.0,0.0,0.0,0.0,0.0,0.0,0.0,0.0,0.0,0.0,0.0,0.0,0.0,0.0,0.0,0.0,0.0,0.0,0.0,0.0,0.0,0.0,0.0,0.0,0.0,0.0,0.0,0.0,0.0,0.0,0.0,0.0,0.0,0.0,0.0,0.0,0.0,0.0,0.0,0.0,0.0,0.0,0.0,0.0,0.0,0.0,0.0,0.0,0.0,0.0,0.0,0.0,0.0,0.0,0.0,0.0,0.0,0.0,0.0,0.0,0.0,0.0,0.0,0.0,0.0,0.0,0.0,0.0,0.0,0.0,0.0,0.0,0.0,0.0,0.0,0.0,0.0,0.0,0.0,0.0,0.0,0.0,0.0,0.0,0.0,0.0,0.0,0.0,0.0,0.0,0.0,0.0,0.0,0.0,-0.6128,-0.6753,0.0,-0.749,-0.728,-0.7183,-0.653,-0.579,-0.5013,0.0,0.0,0.0,0.0,0.0,0.0,0.0,0.0,0.0,0.0,0.0,0.0,0.0,0.0,0.0,0.0,0.0,0.0,0.0,0.0,0.0,0.0,0.0,0.0,0.0,0.0,0.0,0.0,0.0,0.0,0.0,0.0,0.0,0.0,0.0,0.0,0.0,0.0,0.0,0.0,0.0,0.0,0.0,0.0,0.0,0.0,0.0,0.0,0.0,0.0,0.0,0.0,0.0,0.0,0.0,0.0,0.0,0.0,0.0,0.0,0.0,0.0,0.0,0.0,0.0,0.0,0.0,0.0,0.0,0.0,0.0,0.0,0.0,0.0,0.0,0.0,0.0,0.0,0.0,0.0,0.0,0.0,0.0,0.0,0.0,0.0,0.0,0.0,0.0,0.0,0.0,0.0,0.0,0.0,0.0,0.0,0.0,0.0,0.0,0.0,0.0,0.0,-0.532,-0.5938,-0.6558,0.0,-0.7164,-0.696,-0.6705,-0.626,-0.5617,-0.469,0.0,0.0,0.0,0.0,0.0,0.0,0.0,0.0,0.0,0.0,0.0,0.0,0.0,0.0,0.0,0.0,0.0,0.0,0.0,0.0,0.0,0.0,0.0,0.0,0.0,0.0,0.0,0.0,0.0,0.0,0.0,0.0,0.0,0.0,0.0,0.0,0.0,0.0,0.0,0.0,0.0,0.0,0.0,0.0,0.0,0.0,0.0,0.0,0.0,0.0,0.0,0.0,0.0,0.0,0.0,0.0,0.0,0.0,0.0,0.0,0.0,0.0,0.0,0.0,0.0,0.0,0.0,0.0,0.0,0.0,0.0,0.0,0.0,0.0,0.0,0.0,0.0,0.0,0.0,0.0,0.0,0.0,0.0,0.0,0.0,0.0,0.0,0.0,0.0,0.0,0.0,0.0,0.0,0.0,0.0,0.0,0.0,0.0,0.0,0.0,0.0,0.0,-0.4947,-0.5529,-0.6051,-0.6455,-0.6387,-0.6276,-0.6208,-0.5821,-0.528,0.0,0.0,0.0,0.0,0.0,0.0,0.0,0.0,0.0,0.0,0.0,0.0,0.0,0.0,0.0,0.0,0.0,0.0,0.0,0.0,0.0,0.0,0.0,0.0,0.0,0.0,0.0,0.0,0.0,0.0,0.0,0.0,0.0,0.0,0.0,0.0,0.0,0.0,0.0,0.0,0.0,0.0,0.0,0.0,0.0,0.0,0.0,0.0,0.0,0.0,0.0,0.0,0.0,0.0,0.0,0.0,0.0,0.0,0.0,0.0,0.0,0.0,0.0,0.0,0.0,0.0,0.0,0.0,0.0,0.0,0.0,0.0,0.0,0.0,0.0,0.0,0.0,0.0,0.0,0.0,0.0,0.0,0.0,0.0,0.0,0.0,0.0,0.0,0.0,0.0,0.0,0.0,0.0,0.0,0.0,0.0,0.0,0.0,0.0,0.0,0.0,0.0,0.0,0.0,-0.5529,-0.6051,-0.6455,-0.6387,-0.6195,-0.5942,-0.5726,-0.5158,-0.4136,0.0,0.0,0.0,0.0,0.0,0.0,0.0,0.0,0.0,0.0,0.0,0.0,0.0,0.0,0.0,0.0,0.0,0.0,0.0,0.0,0.0,0.0,0.0,0.0,0.0,0.0,0.0,0.0,0.0,0.0,0.0,0.0,0.0,0.0,0.0,0.0,0.0,0.0,0.0,0.0,0.0,0.0,0.0,0.0,0.0,0.0,0.0,0.0,0.0,0.0,0.0,0.0,0.0,0.0,0.0,0.0,0.0,0.0,0.0,0.0,0.0,0.0,0.0,0.0,0.0,0.0,0.0,0.0,0.0,0.0,0.0,0.0,0.0,0.0,0.0,0.0,0.0,0.0,0.0,0.0,0.0,0.0,0.0,0.0,0.0,0.0,0.0,0.0,0.0,0.0,0.0,0.0,0.0,0.0,0.0,0.0,0.0,0.0,0.0,0.0,0.0,0.0,-0.4733,-0.5279,-0.5755,-0.5999,-0.5933,-0.5755,-0.5458,-0.5294,-0.4777,-0.3811,0.0,0.0,0.0,0.0,0.0,0.0,0.0,0.0,0.0,0.0,0.0,0.0,0.0,0.0,0.0,0.0,0.0,0.0,0.0,0.0,0.0,0.0,0.0,0.0,0.0,0.0,0.0,0.0,0.0,0.0,0.0,0.0,0.0,0.0,0.0,0.0,0.0,0.0,0.0,0.0,0.0,0.0,0.0,0.0,0.0,0.0,0.0,0.0,0.0,0.0,0.0,0.0,0.0,0.0,0.0,0.0,0.0,0.0,0.0,0.0,0.0,0.0,0.0,0.0,0.0,0.0,0.0,0.0,0.0,0.0,0.0,0.0,0.0,0.0,0.0,0.0,0.0,0.0,0.0,0.0,0.0,0.0,0.0,0.0,0.0,0.0,0.0,0.0,0.0,0.0,0.0,0.0,0.0,0.0,0.0,0.0,0.0,0.0,0.0,0.0,0.0,0.0,-0.4376,-0.4902,-0.5261,-0.5252,-0.5198,-0.5081,-0.4884,-0.4698,-0.4269,-0.3557,0.0,0.0,0.0,0.0,0.0,0.0,0.0,0.0,0.0,0.0,0.0,0.0,0.0,0.0,0.0,0.0,0.0,0.0,0.0,0.0,0.0,0.0,0.0,0.0,0.0,0.0,0.0,0.0,0.0,0.0,0.0,0.0,0.0,0.0,0.0,0.0,0.0,0.0,0.0,0.0,0.0,0.0,0.0,0.0,0.0,0.0,0.0,0.0,0.0,0.0,0.0,0.0,0.0,0.0,0.0,0.0,0.0,0.0,0.0,0.0,-0.1442,0.0,0.0,0.0,0.0,0.0,0.0,0.0,0.0,0.0,0.0,0.0,0.0,0.0,0.0,0.0,0.0,0.0,0.0,0.0,0.0,0.0,0.0,0.0,0.0,0.0,0.0,0.0,0.0,0.0,0.0,0.0,0.0,0.0,0.0,0.0,0.0,0.0,0.0,0.0,0.0,0.0,-0.4177,-0.4644,-0.4976,-0.4918,-0.4886,-0.48,-0.4596,-0.4505,-0.4192,-0.3614,0.0,0.0,0.0,0.0,0.0,0.0,0.0,0.0,0.0,0.0,0.0,0.0,0.0,0.0,0.0,0.0,0.0,0.0,0.0,0.0,0.0,0.0,0.0,0.0,0.0,0.0,0.0,0.0,0.0,0.0,0.0,0.0,0.0,0.0,0.0,0.0,0.0,0.0,0.0,0.0,0.0,0.0,0.0,0.0,0.0,0.0,0.0,0.0,0.0,0.0,0.0,0.0,0.0,0.0,0.0,0.0,0.0,0.0,0.0,0.0,0.0,-0.1396,0.0,0.0,0.0,0.0,0.0,0.0,0.0,0.0,0.0,0.0,0.0,0.0,0.0,0.0,0.0,0.0,0.0,0.0,0.0,0.0,0.0,0.0,0.0,0.0,0.0,0.0,0.0,0.0,0.0,0.0,0.0,0.0,0.0,0.0,0.0,0.0,0.0,0.0,0.0,0.0,-0.3964,-0.44,-0.4692,-0.4656,-0.4576,-0.4457,-0.4312,-0.4123,-0.3802,-0.3295,-0.2909,0.0,0.0,0.0,0.0,0.0,0.0,0.0,0.0,0.0,0.0,0.0,0.0,0.0,0.0,0.0,0.0,0.0,0.0,0.0,0.0,0.0,0.0,0.0,0.0,0.0,0.0,0.0,0.0,0.0,0.0,0.0,0.0,0.0,0.0,0.0,0.0,0.0,0.0,0.0,0.0,0.0,0.0,0.0,0.0,0.0,0.0,0.0,0.0,0.0,0.0,0.0,0.0,0.0,-0.0884,-0.0768,-0.0625,-0.0601,-0.0579,-0.0628,-0.0932,-0.1194,-0.143,0.0,0.0,0.0,0.0,0.0,0.0,0.0,0.0,0.0,0.0,0.0,0.0,0.0,0.0,0.0,0.0,0.0,0.0,0.0,0.0,0.0,0.0,0.0,0.0,0.0,-0.1234,-0.1386,0.0,0.0,0.0,0.0,0.0,0.0,0.0,0.0,0.0,0.0,0.0,0.0,-0.3752,-0.4099,-0.435,-0.4333,-0.4172,-0.4032,-0.395,-0.3684,-0.3336,-0.2897,-0.2588,-0.2195,0.0,0.0,0.0,0.0,0.0,0.0,0.0,0.0,0.0,0.0,0.0,0.0,0.0,0.0,0.0,0.0,0.0,0.0,0.0,0.0,0.0,0.0,0.0,0.0,0.0,0.0,0.0,0.0,0.0,0.0,0.0,0.0,0.1139,0.0947,0.0,0.0,0.0,0.0,0.0,0.0,0.0,0.0,0.0,0.0,0.0,0.0,0.0,0.0,-0.0674,-0.0749,-0.0768,-0.0751,-0.0722,-0.0722,-0.0676,-0.0575,-0.0535,-0.0602,-0.0525,0.0,-0.1074,-0.1269,0.0,0.0,0.0,0.0,0.0,0.0,0.0,0.0,0.0,0.0,0.0,0.0,0.0,0.0,0.0,0.0,0.0,0.0,0.0,0.0,0.0,0.0,-0.0676,-0.09,-0.0997,-0.118,0.0,-0.2046,-0.2372,-0.2747,0.0,0.0,0.0,0.0,0.0,0.0,0.0,0.0,-0.3536,-0.3696,-0.3765,-0.3642,-0.3609,-0.3516,-0.334,-0.3224,-0.3032,-0.2751,-0.2308,-0.1952,-0.1708,-0.1157,0.0,0.0,0.0,0.0,0.0,0.0,0.0,0.0,0.0,0.0,0.0,0.0,0.0,0.0,0.0,0.0,0.0,0.0,0.0,0.0,0.0,0.0,0.0,0.0,0.0,0.0,0.0,0.0,0.0,0.1577,0.1488,0.1401,0.0991,0.0615,0.0,0.0,0.0,0.0,0.0,0.0,0.0,0.0,0.0,-0.0385,-0.0454,-0.0497,-0.0482,-0.0516,-0.0499,-0.0429,-0.0429,-0.0375,-0.0295,-0.0241,-0.0243,-0.0247,-0.0189,-0.0319,-0.0572,-0.0888,-0.1135,-0.1356,0.0,0.0,0.0,0.0,0.0,-0.0577,-0.0494,-0.0263,0.0,0.0,0.0,0.0,0.0,0.0,0.0,0.0,0.0,0.0,0.0,0.0,0.0,-0.0718,-0.0806,-0.1017,-0.1652,-0.192,-0.2223,0.0,-0.2903,-0.2888,-0.2999,0.0,0.0,0.0,0.0,0.0,-0.3291,-0.3433,-0.3475,-0.3348,-0.3237,-0.3118,-0.2981,-0.2775,-0.254,-0.2261,-0.1917,-0.1559,-0.1215,-0.0802,-0.0404,0.0,0.0,0.0,0.0,0.0,0.0,0.0,0.0,0.0,0.0,0.0,0.0,0.0,0.0,0.0,0.0,0.0,0.0,0.0,0.0,0.0,0.0,0.0,0.0,0.0,0.0,0.0,0.0,0.1999,0.191,0.184,0.1366,0.09,0.0,0.0,0.0,0.0,0.0,0.0,-0.0066,-0.0118,-0.0172,-0.0221,-0.028,-0.0289,-0.0297,-0.0297,-0.0246,-0.014,-0.014,-0.0084,0.0,0.0,0.0,0.0,0.0,-0.0056,-0.0167,-0.0535,-0.0834,-0.105,-0.1363,-0.141,-0.1272,-0.1341,-0.1019,-0.0533,-0.0464,-0.0227,0.0,0.0,0.0,0.0,0.0,0.0,0.0,0.0,0.0,-0.0302,-0.0292,-0.0212,-0.0216,-0.0535,-0.0628,-0.0806,-0.1478,-0.1683,-0.1979,0.0,-0.2861,-0.2836,-0.2998,0.0,0.0,0.0,0.0,-0.3303,-0.3192,-0.3239,-0.322,-0.3107,-0.2883,-0.2709,-0.26,-0.2328,-0.2026,-0.1744,-0.1475,-0.1119,-0.0694,-0.0388,-0.0044,0.0323,0.0,0.0,0.0,0.0,0.0,0.0,0.0,0.0,0.0,0.0,0.0,0.0,0.0,0.0,0.0,0.0,0.0,0.0,0.0,0.0,0.0,0.0,0.0,0.0,0.0,0.0,0.0,0.0,0.0,0.2214,0.1864,0.0,0.0,0.0,0.0,0.0,0.0,0.0,0.0,0.0,0.0,-0.0026,-0.0027,-0.0028,-0.0028,-0.0028,-0.0028,0.0,0.0,0.0,0.0,0.0,0.0,0.0,0.0,0.0,-0.0028,-0.0296,-0.0583,-0.0818,-0.0916,-0.0928,-0.0903,-0.0802,-0.0601,-0.0401,-0.0251,-0.0125,0.0,0.0,0.0,0.0,0.0,-0.0039,0.0,0.0,-0.0202,-0.0294,-0.0295,-0.0239,-0.0224,-0.0382,-0.0405,-0.0539,-0.103,-0.123,-0.1564,0.0,-0.2631,-0.2661,-0.2549,0.0,-0.3039,-0.3167,-0.3199,-0.3249,-0.3361,-0.3114,-0.2907,-0.2825,-0.2531,-0.225,-0.2064,-0.1845,-0.1594,-0.1263,-0.0992,-0.0688,-0.0335,0.0048,0.0388,0.0669,0.1,0.0,0.0,0.0,0.0,0.0,0.0,0.0,0.0,0.0,0.0,0.0,0.0,0.0,0.0,0.0,0.0,0.0,0.0,0.0,0.0,0.0,0.0,0.0,0.0,0.0,0.0,0.0,0.0,0.247,0.1902,0.0,0.0,0.0415,0.0146,0.0,0.0,0.0,0.0,0.0,0.0,0.0,0.0,0.0,0.0,0.0,0.0,0.0,0.0,0.0,0.0,0.0,0.0,0.0,0.0,0.0,0.0,-0.0111,-0.0248,-0.044,-0.0679,-0.0703,-0.0595,-0.0676,-0.0514,-0.027,-0.0216,-0.0053,0.0155,0.0219,0.0187,0.0136,0.0131,0.0043,-0.0043,-0.0043,-0.0065,-0.011,-0.011,-0.0089,-0.0112,-0.0247,-0.027,-0.0359,-0.0651,-0.0829,-0.1025,-0.1403,-0.1859,-0.2262,-0.2521,-0.2625,-0.276,-0.2974,-0.3088,-0.3093,-0.2956,-0.289,-0.2724,-0.2446,-0.2187,-0.1963,-0.1767,-0.1404,-0.1058,-0.0773,-0.0504,-0.0185,0.0202,0.0477,0.0762,0.108,0.1295,0.1435,0.0,0.0,0.0,0.0,0.0,0.0,0.0,0.0,0.0,0.0,0.0,0.0,0.0,0.0,0.0,0.0,0.0,0.0,0.0,0.0,0.0,0.0,0.0,0.0,0.0,0.0,0.2966,0.2676,0.2051,0.1438,0.089,0.0497,0.0183,0.0026,0.0,0.0,0.0,0.0,0.0,0.0,0.0,0.0,0.0,0.0,0.0,0.0,0.0,0.0,0.0,0.0,0.0,0.0,0.0,0.0,0.0,0.0,-0.0056,-0.0168,-0.0364,-0.0393,-0.028,-0.0364,-0.0252,-0.0056,0.0056,0.0247,0.0449,0.0529,0.0463,0.0332,0.0277,0.0182,0.0067,0.0022,0.0,0.0,0.0,0.0,-0.0022,-0.0112,-0.0135,-0.018,-0.036,-0.0471,-0.0583,-0.0739,-0.1293,-0.1825,-0.2143,-0.2298,-0.2417,-0.2605,-0.2775,-0.2839,-0.2657,-0.2599,-0.2447,-0.2169,-0.192,-0.1667,-0.1421,-0.1024,-0.0669,-0.0353,-0.005,0.0286,0.0689,0.0891,0.1137,0.1427,0.1685,0.1898,0.2109,0.0,0.0,0.0,0.0,0.0,0.0,0.0,0.0,0.0,0.0,0.0,0.0,0.0,0.0,0.0,0.0,0.0,0.0,0.0,0.0,0.0,0.0,0.0,0.3391,0.3512,0.3377,0.2788,0.2415,0.1849,0.1009,0.0617,0.0309,0.0028,0.0,0.0,0.0,0.0,0.0,0.0,0.0,0.0,0.0,0.0,0.0,0.0,0.0,0.0,0.0,0.0,0.0,0.0,0.0,0.0,0.0,0.0,0.0,0.0,0.0,0.0,0.0028,0.0168,0.0224,0.028,0.0617,0.0823,0.0933,0.0933,0.0787,0.0596,0.0476,0.0325,0.018,0.0045,0.0,0.0,0.0,0.0,0.0,0.0,0.0,-0.0045,-0.0157,-0.0202,-0.0247,-0.045,-0.0964,-0.1366,-0.1389,-0.1767,-0.2077,-0.2077,-0.2302,0.0,-0.246,-0.2246,-0.2065,-0.1979,-0.1676,-0.1348,-0.1009,-0.073,-0.041,-0.0017,0.0336,0.0706,0.1093,0.1305,0.1525,0.173,0.2185,0.2587,0.2936,0.0,0.0,0.0,0.0,0.0,0.0,0.0,0.0,0.0,0.0,0.0,0.0,0.0,0.0,0.0,0.0,0.0,0.0,0.0,0.0,0.0,0.0,0.3757,0.358,0.3588,0.3424,0.2911,0.2476,0.1933,0.1262,0.0831,0.0494,0.0174,0.0059,0.0,0.0,0.0,0.0,0.0,0.0,0.0,0.0,0.0,0.0,0.0,0.0,0.0,0.0,0.0,0.0,0.0,0.0,0.0,0.0,0.0,0.0056,0.014,0.014,0.014,0.0168,0.0449,0.0673,0.0925,0.1344,0.1529,0.1567,0.1662,0.1523,0.128,0.1041,0.0756,0.0466,0.0385,0.0247,0.0135,0.0135,0.0067,0.0,0.0,0.0,0.0,-0.0045,-0.0045,-0.0067,-0.0135,-0.0359,-0.0628,-0.0985,-0.1298,-0.1544,-0.1588,-0.1813,0.0,-0.1724,-0.173,-0.163,-0.1365,-0.123,-0.0993,-0.0658,-0.0354,-0.0018,0.0,0.0723,0.1092,0.1442,0.1699,0.2041,0.2486,0.2771,0.3169,0.0,0.0,0.0,0.0,0.0,0.0,0.0,0.0,0.0,0.0,0.0,0.0,0.0,0.0,0.0,0.0,0.0,0.0,0.0,0.0,0.0,0.0,0.3904,0.4035,0.3864,0.3862,0.3667,0.3181,0.274,0.225,0.16,0.1165,0.077,0.048,0.0244,0.0123,0.012,0.006,0.0,0.0,0.0,0.0,0.0,0.0,0.0,0.0,0.0,0.0,0.0,0.0056,0.0084,0.0,0.0224,0.028,0.0308,0.0364,0.0421,0.0,0.0,0.0,0.0,0.0,0.1428,0.1818,0.2069,0.2265,0.2341,0.2376,0.2207,0.1956,0.1644,0.1294,0.0971,0.0765,0.0614,0.0471,0.0359,0.027,0.018,0.0112,0.009,0.0067,0.0022,0.0,0.0,0.0,0.0,0.0,-0.0471,-0.0762,-0.0987,-0.1009,-0.1211,-0.1279,-0.1121,-0.1232,-0.1187,-0.0875,-0.0856,-0.0697,-0.0276,0.0,0.0,0.0,0.0,0.151,0.1956,0.2233,0.0,0.0,0.0,0.0,0.0,0.0,0.0,0.0,0.3986,0.4059,0.0,0.0,0.0,0.0,0.0,0.0,0.0,0.0,0.0,0.0,0.0,0.0,0.0,0.0,0.0,0.0,0.4146,0.4237,0.4229,0.4221,0.4024,0.3497,0.316,0.2715,0.2069,0.1591,0.1199,0.0924,0.059,0.0405,0.0403,0.0,0.0,0.0,0.0,0.0129,0.0129,0.013,0.013,0.0129,0.0122,0.0118,0.0118,0.0228,0.028,0.0308,0.0617,0.0757,0.0785,0.0898,0.0982,0.0981,0.0673,0.0757,0.1149,0.1706,0.2291,0.0,0.0,0.0,0.0,0.3044,0.2877,0.2646,0.2262,0.1926,0.1628,0.1263,0.1063,0.0895,0.0674,0.0584,0.0494,0.0314,0.0269,0.0225,0.0112,0.009,0.009,0.009,0.0067,0.0067,0.0067,-0.0225,-0.0472,-0.0472,-0.0584,-0.0652,-0.0652,-0.0763,-0.0739,-0.0472,0.0,0.0,0.0099,0.0334,0.0658,0.1135,0.1552,0.2038,0.2627,0.2917,0.3368,0.401,0.4367,0.4831,0.5431,0.5657,0.577,0.5795,0.524,0.5004,0.0,0.0,0.0,0.0,0.0,0.0,0.0,0.0,0.0,0.0,0.0,0.0,0.0,0.0,0.0,0.4142,0.4324,0.4433,0.4432,0.4436,0.427,0.3769,0.3466,0.314,0.2735,0.2281,0.1869,0.1541,0.1257,0.1048,0.0959,0.0894,0.0,0.0896,0.0889,0.0902,0.0902,0.089,0.089,0.0902,0.0,0.0,0.0794,0.0769,0.0814,0.0926,0.0982,0.1094,0.1178,0.1206,0.1457,0.1764,0.1483,0.1708,0.224,0.2571,0.2935,0.3299,0.3519,0.363,0.3658,0.363,0.3528,0.3356,0.3132,0.2708,0.0,0.2159,0.1732,0.1299,0.1233,0.1031,0.0806,0.0784,0.0673,0.0607,0.0562,0.0562,0.0562,0.0562,0.0472,0.0405,0.0405,0.0045,-0.0247,-0.0247,-0.0382,-0.0427,-0.0315,-0.0404,-0.0404,-0.0135,-0.0112,0.0022,0.0396,0.0705,0.1088,0.1554,0.2353,0.304,0.3526,0.3912,0.4333,0.4787,0.5171,0.5671,0.6265,0.6584,0.6839,0.7038,0.5958,0.5676,0.0,0.0,0.0,0.0,0.0,0.0,0.0,0.0,0.0,0.0,0.0,0.3928,0.4195,0.0,0.4337,0.4358,0.4443,0.4491,0.4491,0.4491,0.438,0.4049,0.383,0.3602,0.3315,0.2863,0.2529,0.2356,0.1911,0.1645,0.161,0.1447,0.1341,0.1355,0.134,0.1349,0.1349,0.1335,0.1335,0.1349,0.1291,0.1254,0.1264,0.1319,0.14,0.1456,0.1762,0.193,0.2015,0.2155,0.2406,0.2685,0.2625,0.2738,0.2996,0.3241,0.3549,0.3833,0.3968,0.4076,0.4132,0.4021,0.3965,0.3831,0.3542,0.3213,0.2899,0.2671,0.2334,0.2014,0.1811,0.1631,0.1431,0.1208,0.1099,0.1032,0.092,0.0897,0.0897,0.0897,0.0852,0.0785,0.0718,0.0515,0.0292,0.0135,-0.0022,-0.0045,0.0135,0.0067,0.0112,0.0426,0.0381,0.0524,0.096,0.1547,0.2085,0.2522,0.3243,0.3815,0.4176,0.4594,0.5026,0.5481,0.5932,0.6435,0.7004,0.7301,0.753,0.769,0.7081,0.6819,0.0,0.0,0.0,0.0,0.0,0.0,0.0,0.0,0.4494,0.466,0.4574,0.4495,0.4677,0.468,0.4645,0.4608,0.4574,0.4546,0.4546,0.4519,0.4436,0.4273,0.4135,0.398,0.3826,0.3421,0.3177,0.3151,0.2654,0.234,0.2359,0.2143,0.2016,0.2016,0.2016,0.2016,0.2016,0.2016,0.2016,0.2014,0.1932,0.1877,0.1873,0.1989,0.2069,0.2125,0.2655,0.2877,0.2905,0.313,0.3327,0.3497,0.3658,0.3658,0.358,0.3799,0.4049,0.4249,0.4249,0.4356,0.4463,0.4301,0.4249,0.4192,0.3841,0.3602,0.3395,0.3056,0.2866,0.2682,0.2366,0.2255,0.2123,0.1746,0.1634,0.1567,0.141,0.1365,0.1365,0.1365,0.1343,0.1298,0.1185,0.114,0.0962,0.0517,0.0382,0.0404,0.0561,0.0561,0.065,0.0962,0.0962,0.1187,0.1788,0.2551,0.3173,0.3563,0.4095,0.4524,0.4821,0.5228,0.5689,0.6185,0.666,0.7159,0.7669,0.7974,0.8152,0.8259,0.83,0.8062,0.2996,0.3189,0.349,0.4029,0.4423,0.4739,0.0,0.0,0.5369,0.5391,0.5379,0.5392,0.5468,0.532,0.5164,0.5042,0.4825,0.4688,0.4688,0.4574,0.4491,0.4463,0.4301,0.4172,0.416,0.3923,0.3736,0.3642,0.3618,0.354,0.3356,0.3473,0.3556,0.3556,0.3556,0.3556,0.3556,0.3556,0.3556,0.3553,0.3319,0.3193,0.3186,0.3022,0.3047,0.3218,0.3413,0.3499,0.3499,0.366,0.3741,0.3769,0.4024,0.4138,0.411,0.4138,0.4301,0.4463,0.4463,0.4491,0.4491,0.4463,0.4463,0.4436,0.4214,0.3958,0.3714,0.3557,0.3253,0.2946,0.2921,0.2771,0.2618,0.2573,0.2462,0.237,0.2348,0.2348,0.2348,0.2348,0.2257,0.2168,0.2146,0.1988,0.1609,0.0786,0.0763,0.0828,0.0851,0.0962,0.1098,0.1321,0.1654,0.2172,0.2938,0.3479,0.3933,0.4259,0.4793,0.5255,0.5657,0.6112,0.6529,0.689,0.7342,0.782,0.8311,0.8692,0.8967,0.9159,0.9341,0.901,0.3395,0.3734,0.0,0.0,0.5075,0.5567,0.58,0.5939,0.6013,0.6019,0.5953,0.5895,0.585,0.5759,0.565,0.0,0.5293,0.5156,0.4963,0.4877,0.4794,0.4632,0.455,0.4467,0.4384,0.4188,0.4083,0.4097,0.3966,0.3902,0.3972,0.3965,0.4025,0.4087,0.409,0.409,0.409,0.409,0.409,0.4087,0.3825,0.3686,0.3679,0.3569,0.3713,0.4049,0.4104,0.4245,0.4463,0.4546,0.4598,0.4677,0.4791,0.4846,0.4791,0.4491,0.4463,0.4605,0.4605,0.4712,0.4849,0.4849,0.4783,0.4703,0.4496,0.4207,0.3955,0.3802,0.3596,0.341,0.341,0.3328,0.322,0.3214,0.3189,0.3123,0.3037,0.3018,0.2973,0.2812,0.2812,0.279,0.2724,0.2763,0.2694,0.2319,0.1897,0.1721,0.203,0.2119,0.2275,0.2632,0.294,0.3312,0.3859,0.429,0.4739,0.5187,0.5654,0.6076,0.6486,0.6838,0.7175,0.751,0.7953,0.8419,0.8926,0.9279,0.9637,0.9952,0.9991,0.9913,0.3955,0.0,0.0,0.5207,0.5751,0.6215,0.6431,0.6536,0.6571,0.6549,0.6512,0.648,0.6376,0.6322,0.0,0.6055,0.5864,0.5673,0.5449,0.5317,0.5152,0.4904,0.4794,0.4715,0.4574,0.4384,0.4315,0.4413,0.423,0.4216,0.4405,0.4394,0.4411,0.4531,0.4568,0.4589,0.4589,0.4652,0.4652,0.4649,0.4455,0.436,0.4351,0.4254,0.4401,0.4736,0.4791,0.4959,0.5234,0.5289,0.534,0.5441,0.5441,0.5441,0.5386,0.5007,0.4849,0.4877,0.4936,0.5073,0.5234,0.5289,0.5169,0.5014,0.4815,0.4542,0.4229,0.4084,0.3965,0.3873,0.3873,0.3836,0.3818,0.3832,0.3851,0.3851,0.3744,0.3704,0.3615,0.3432,0.3454,0.3524,0.3451,0.3668,0.3862,0.3906,0.3419,0.3048,0.3114,0.3227,0.3448,0.3825,0.4128,0.443,0.4761,0.513,0.5567,0.6072,0.6471,0.6838,0.7175,0.7517,0.7829,0.8131,0.8553,0.9059,0.9608,0.9952,1.0321,1.0706,1.0706,1.0821,0.0,0.0,0.5448,0.6162,0.6463,0.6639,0.6843,0.6977,0.7031,0.6906,0.7085,0.7262,0.7262,0.716,0.7058,0.7058,0.6561,0.6182,0.6182,0.5832,0.5508,0.5308,0.5062,0.4846,0.0,0.4574,0.4491,0.4498,0.4606,0.4665,0.4675,0.4945,0.5068,0.5071,0.5248,0.5362,0.5362,0.5488,0.555,0.5547,0.5549,0.5544,0.5532,0.5357,0.5254,0.5281,0.5481,0.5563,0.5595,0.5723,0.5773,0.5773,0.5773,0.5773,0.5773,0.5773,0.5555,0.5308,0.5508,0.5563,0.5618,0.575,0.5592,0.5349,0.523,0.4942,0.4638,0.4436,0.4342,0.4272,0.4272,0.432,0.4368,0.4386,0.4469,0.4574,0.4574,0.4469,0.4368,0.4368,0.4368,0.4408,0.453,0.4766,0.5026,0.5216,0.5334,0.4983,0.3836,0.4011,0.4343,0.4552,0.4983,0.5394,0.5723,0.606,0.6422,0.6851,0.7181,0.7461,0.767,0.8126,0.8508,0.876,0.9231,0.9775,1.036,1.0772,1.1132,1.1479,1.1664,1.1781,0.5356,0.0,0.6047,0.6654,0.6937,0.7126,0.7385,0.7456,0.7509,0.7563,0.7637,0.7685,0.7685,0.7664,0.761,0.7509,0.7321,0.7101,0.6837,0.6598,0.63,0.5832,0.5532,0.0,0.0,0.0,0.0,0.4632,0.4845,0.501,0.5093,0.5423,0.5686,0.5757,0.5961,0.6057,0.6057,0.6119,0.6214,0.6338,0.6197,0.5982,0.5741,0.5665,0.5719,0.5909,0.5964,0.6213,0.6593,0.6647,0.6756,0.6918,0.6918,0.6918,0.6918,0.6918,0.6864,0.6701,0.6182,0.6268,0.6593,0.6647,0.6395,0.6051,0.6,0.5577,0.5073,0.5007,0.4879,0.4792,0.4918,0.4879,0.4884,0.5193,0.5301,0.5323,0.5323,0.5285,0.5193,0.4905,0.5014,0.5166,0.5308,0.5626,0.599,0.638,0.6023,0.555,0.5151,0.5286,0.5507,0.5712,0.5862,0.6145,0.655,0.6782,0.7119,0.7593,0.7869,0.8198,0.8671,0.8967,0.9299,0.9669,1.0069,1.0524,1.1,1.1486,1.1884,1.2174,1.2365,1.2567,0.6044,0.6488,0.6806,0.7206,0.7421,0.7568,0.7717,0.783,0.7859,0.7842,0.789,0.7938,0.7839,0.7907,0.7942,0.7844,0.785,0.7783,0.7515,0.7279,0.6955,0.6512,0.6109,0.0,0.0,0.0,0.0,0.4932,0.5207,0.5434,0.5583,0.5967,0.6216,0.6297,0.6481,0.6576,0.6576,0.6708,0.6867,0.7044,0.693,0.6702,0.6399,0.6399,0.6507,0.6669,0.6723,0.6993,0.7402,0.7461,0.7649,0.7889,0.7889,0.791,0.7963,0.7963,0.799,0.7904,0.7095,0.7069,0.7423,0.7589,0.7332,0.6949,0.6881,0.6389,0.5799,0.569,0.5545,0.5464,0.5588,0.561,0.5674,0.5992,0.6105,0.6126,0.6126,0.6062,0.5927,0.5723,0.5825,0.6017,0.6204,0.6586,0.6993,0.7308,0.6965,0.6543,0.6258,0.6349,0.6477,0.6607,0.674,0.6972,0.7391,0.762,0.7972,0.8504,0.8731,0.9062,0.9547,0.9854,1.0167,1.0551,1.1017,1.1427,1.1843,1.2294,1.2643,1.2901,1.3148,1.3408,0.6866,0.7333,0.7656,0.7858,0.7925,0.7925,0.7925,0.8064,0.8095,0.7809,0.7911,0.8014,0.0,0.0,0.8098,0.8111,0.8177,0.8203,0.8215,0.7842,0.7488,0.0,0.0,0.0,0.0,0.0,0.0,0.547,0.0,0.6043,0.6171,0.6567,0.6809,0.6809,0.6924,0.7022,0.7022,0.7377,0.7618,0.7731,0.772,0.7646,0.7521,0.7521,0.7547,0.7547,0.7696,0.7824,0.7978,0.8182,0.8421,0.8653,0.8679,0.8751,0.885,0.885,0.8955,0.8948,0.827,0.8004,0.8057,0.8514,0.8384,0.8029,0.7804,0.7348,0.6787,0.6453,0.6301,0.6243,0.627,0.6492,0.6747,0.6768,0.6865,0.6956,0.6956,0.6759,0.6605,0.6725,0.6839,0.698,0.7238,0.7676,0.8008,0.8082,0.8198,0.7992,0.7168,0.7189,0.7266,0.728,0.7572,0.7912,0.8259,0.8594,0.8999,0.9538,0.9766,0.9991,1.0273,1.0734,1.1151,1.1483,1.2002,1.2449,1.2841,1.3204,1.3471,1.3652,1.4025,1.4317,0.7498,0.7829,0.7948,0.8219,0.8262,0.8309,0.8408,0.8281,0.8139,0.8207,0.8067,0.7937,0.7865,0.0,0.0,0.828,0.8329,0.0,0.8475,0.8315,0.0,0.0,0.0,0.709,0.7154,0.704,0.0,0.0,0.7099,0.7086,0.7419,0.7912,0.8196,0.8196,0.8366,0.8463,0.8463,0.8476,0.8424,0.8298,0.8195,0.8013,0.7797,0.7943,0.8082,0.8182,0.8408,0.8646,0.889,0.9145,0.9354,0.9503,0.9607,0.9651,0.9703,0.9703,0.9703,0.9755,0.9762,0.9503,0.919,0.9302,0.9198,0.8982,0.8561,0.8132,0.7667,0.7242,0.7042,0.6972,0.7126,0.7196,0.7286,0.7538,0.7621,0.7642,0.7642,0.7579,0.753,0.753,0.7889,0.8292,0.8509,0.8901,0.9202,0.9321,0.9412,0.9084,0.8034,0.8054,0.8218,0.8374,0.861,0.8913,0.9361,0.9609,0.9923,1.037,1.0677,1.1038,1.1457,1.1868,1.2253,1.259,1.3024,1.3315,1.3479,1.3998,1.4317,1.4428,1.5018,1.5418,0.8007,0.8254,0.8391,0.8547,0.856,0.8554,0.8527,0.8375,0.8184,0.8029,0.7736,0.0,0.7506,0.0,0.0,0.0,0.0,0.0,0.8652,0.858,0.8415,0.0,0.791,0.0,0.7975,0.7864,0.8017,0.0,0.8208,0.8067,0.8447,0.8848,0.9045,0.9045,0.916,0.9221,0.9178,0.9148,0.9035,0.88,0.8864,0.8765,0.856,0.8732,0.889,0.9014,0.0,0.9432,0.9725,0.988,1.0156,1.0464,1.0541,1.0635,1.0736,1.0736,1.0736,1.077,1.093,1.0854,1.0668,1.0413,1.021,0.9966,0.951,0.9081,0.8624,0.804,0.7876,0.7889,0.7992,0.8103,0.8255,0.8459,0.8521,0.8533,0.8582,0.8561,0.8553,0.8659,0.903,0.9379,0.9579,0.9796,1.0001,1.0137,1.0263,1.0118,0.9502,0.9293,0.9253,0.9403,0.9591,0.9895,1.033,1.0636,1.0996,1.1464,1.1777,1.2139,1.2543,1.2914,1.3306,1.369,1.4095,1.4367,1.4481,1.5018,1.533,1.5505,1.6065,1.6452,0.8442,0.8643,0.8831,0.8831,0.8823,0.8755,0.8531,0.841,0.8193,0.7641,0.0,0.6996,0.6935,0.6941,0.7154,0.7722,0.0,0.8442,0.8711,0.8666,0.8626,0.8626,0.8395,0.8354,0.8658,0.8543,0.8753,0.9429,0.9102,0.8992,0.9291,0.9474,0.9609,0.9678,0.9641,0.9612,0.9585,0.9624,0.9541,0.9342,0.9542,0.9571,0.9491,0.964,0.9769,0.9891,0.0,0.0,1.0557,1.0625,1.0981,1.1444,1.1494,1.1644,1.1843,1.1843,1.1843,1.1843,1.1868,1.2017,1.2116,1.1569,1.1267,1.1006,1.047,1.0069,0.9645,0.8902,0.8777,0.8889,0.8898,0.9108,0.9357,0.9419,0.9439,0.9478,0.9597,0.9558,0.9608,0.9913,1.0157,1.038,1.0572,1.0639,1.0734,1.0859,1.1038,1.1207,1.129,1.0704,1.034,1.0436,1.0635,1.0918,1.1328,1.1696,1.214,1.266,1.2938,1.3247,1.3607,1.3925,1.4308,1.4758,1.5137,1.5433,1.5649,1.607,1.642,1.6658,1.7092,1.7411,0.8839,0.8922,0.8956,0.8956,0.8913,0.888,0.8831,0.8476,0.0,0.0,0.0,0.6987,0.6637,0.6682,0.0,0.7248,0.0,0.0,0.0,0.0,0.8778,0.0,0.0,0.0,0.0,0.0,0.0,0.0,0.0,0.0,0.9773,0.9916,1.0177,1.0573,1.0307,1.0282,1.056,1.0086,0.9937,1.0124,0.9872,0.9814,0.9917,1.0156,1.0267,1.0318,0.0,0.0,1.1343,1.1857,1.212,1.2227,1.2448,1.257,1.2604,1.2604,1.2604,1.2628,1.2749,1.2798,1.2759,1.2141,1.2076,1.2042,1.114,1.0883,1.0751,0.9899,0.9747,0.9865,0.9923,0.9981,1.005,1.0118,1.0167,1.0225,1.0244,1.0438,1.0677,1.0828,1.1215,1.1523,1.1616,1.1952,1.2234,1.2252,1.2407,1.2619,1.2807,1.1959,1.1427,1.1659,1.1961,1.2295,1.2648,1.2886,1.3196,1.362,1.39,1.4288,1.4788,1.5018,1.5316,1.5665,1.5961,1.6204,1.6415,1.6922,1.7284,1.7501,1.8023,1.8363,0.9231,0.9309,0.9342,0.9387,0.9253,0.9033,0.8761,0.0,0.0,0.0,0.7,0.676,0.6673,0.0,0.0,0.0,0.0,0.0,0.0,0.0,0.0,0.0,0.0,0.0,0.0,0.0,0.0,0.0,0.0,0.0,1.0205,1.0278,1.0399,1.0643,1.0555,1.0508,1.0537,1.0451,1.0401,1.0351,1.0526,1.0643,1.0795,1.1057,1.1276,1.1459,1.1816,0.0,1.2418,1.2701,1.2943,1.3136,1.3266,1.3351,1.3413,1.3413,1.3413,1.3437,1.3494,1.3613,1.3671,1.3396,1.3156,1.2805,1.195,1.1749,1.1645,1.0735,1.06,1.0733,1.0762,1.0762,1.081,1.0943,1.1169,1.1364,1.1472,1.1729,1.1959,1.202,1.2301,1.2561,1.266,1.2869,1.3071,1.3208,1.3374,1.3563,1.3789,1.3511,1.3162,1.2914,1.3153,1.347,1.3789,1.4079,1.4383,1.4713,1.5049,1.5404,1.5762,1.6039,1.6322,1.6626,1.6892,1.7169,1.7433,1.7821,1.8156,1.8393,1.8782,1.9083,0.9573,0.9717,0.9795,0.9899,0.9705,0.9351,0.8825,0.8388,0.0,0.0,0.6846,0.6695,0.6792,0.0,0.0,0.0,0.0,0.0,0.0,0.0,0.0,0.0,0.0,0.0,0.0,0.0,0.0,0.0,0.0,0.0,1.0513,1.0507,1.0564,1.0687,1.0735,1.0703,1.0613,1.0873,1.0934,1.0761,1.1284,1.161,1.176,1.2042,1.232,1.2584,1.273,0.0,0.0,1.3542,1.3789,1.4093,1.414,1.4246,1.434,1.434,1.4387,1.4433,1.4433,1.4582,1.4766,1.4766,1.4305,1.3596,1.2955,1.2744,1.2579,1.1773,1.1608,1.1667,1.1667,1.1667,1.1704,1.1898,1.2187,1.249,1.2747,1.299,1.3179,1.3281,1.3416,1.3583,1.3756,1.3825,1.3939,1.4178,1.4319,1.4525,1.4778,1.5019,1.5031,1.4683,1.4519,1.4646,1.516,1.5461,1.5831,1.6285,1.6499,1.6718,1.695,1.7069,1.7252,1.7512,1.7764,1.8052,1.8364,1.8636,1.8904,1.9173,1.9435,1.9661,0.9775,1.005,1.0326,1.0344,1.0189,0.9928,0.9501,0.0,0.0,0.761,0.7321,0.7145,0.685,0.7039,0.7253,0.7315,0.0,0.8453,0.0,0.0,0.0,0.0,0.0,0.0,0.0,0.0,0.0,0.0,0.0,0.0,0.0,1.0499,1.0745,1.1305,1.1028,1.1091,1.1559,1.149,1.1604,1.1952,1.2187,1.2365,1.2521,1.2895,1.3098,1.316,0.0,0.0,0.0,1.4709,1.4949,1.5006,1.5244,1.539,1.5445,1.5445,1.5613,1.5812,1.5812,1.5876,1.594,1.594,1.5421,1.4688,1.4333,1.403,1.3792,1.3454,1.3119,1.2834,1.2834,1.2834,1.2881,1.3015,1.3118,1.3306,1.3683,1.3897,1.4095,1.4462,1.4603,1.4727,1.5001,1.5197,1.536,1.5505,1.5691,1.589,1.6111,1.6244,1.6678,1.7588,1.6405,1.5974,1.7043,1.727,1.7816,1.8876,1.8541,1.8413,1.876,1.8199,1.8011,1.8203,1.8411,1.8654,1.8934,1.9191,1.9461,1.9722,1.9941,2.0111,1.0025,1.0443,1.0727,1.0556,1.0499,1.0246,0.9379,0.0,0.8298,0.7481,0.7499,0.7609,0.7443,0.7783,0.8074,0.8035,0.8496,0.8979,0.0,0.0,0.0,0.0,0.0,0.0,0.0,0.0,0.0,0.0,0.0,0.0,0.0,1.143,1.1334,1.1555,1.1602,1.1721,1.1925,1.2181,1.2393,1.2638,1.2967,1.328,1.3566,1.3813,1.4082,1.4374,0.0,0.0,0.0,1.5555,1.5744,1.5844,1.6032,1.612,1.6141,1.6216,1.6355,1.6493,1.657,1.6706,1.682,1.682,1.6744,1.646,1.5475,1.5249,1.5187,1.4507,1.4284,1.4179,1.3812,1.3753,1.3835,1.3998,1.4528,1.5071,1.5405,1.6007,1.6551,1.6723,1.6503,1.6366,1.6555,1.6754,1.6962,1.7164,1.7692,1.8151,1.844,1.8626,1.8985,1.9653,1.8319,1.7808,1.8828,1.914,1.9505,2.004,2.0072,2.0163,2.0385,2.0238,2.0246,2.0397,2.0083,2.0045,2.0263,1.9928,1.9888,2.0096,2.0218,2.059,1.0391,1.0872,1.1122,1.093,1.0884,1.0629,0.0,0.9221,0.8761,0.8051,0.8163,0.8341,0.8253,0.8608,0.8883,0.878,0.9082,0.9508,1.0055,0.0,0.0,0.0,0.0,0.0,0.0,0.0,0.0,0.0,0.0,0.0,0.0,1.2604,1.2295,1.2082,1.2255,1.2427,1.2535,1.2943,1.3246,1.3423,1.3836,1.4212,1.4536,1.4731,1.5017,1.54,0.0,0.0,0.0,1.6321,1.6493,1.66,1.6795,1.6892,1.6964,1.7131,1.7291,1.7436,1.7605,1.7773,1.794,1.7966,1.8143,1.8157,1.7231,1.6826,1.6615,1.6035,1.575,1.5494,1.5077,1.5044,1.517,1.5368,1.614,1.6923,1.7227,1.7912,1.8495,1.8614,1.8332,1.8118,1.8308,1.8464,1.8658,1.8934,1.949,1.9984,2.0275,2.0481,2.0799,2.1366,2.0502,2.0117,2.0645,2.0936,2.1238,2.1597,2.1671,2.1753,2.1889,2.1853,2.1902,2.2007,2.1563,2.142,2.1603,2.1104,2.093,2.1098,2.1131,2.1598,1.0861,1.1292,1.1584,1.1584,1.1431,1.1196,0.0,1.0471,1.0151,0.9682,0.9522,0.9449,0.9305,0.9514,0.963,0.9428,0.9496,0.9892,1.0769,0.0,0.0,0.0,0.0,0.0,0.0,0.0,0.0,0.0,0.0,0.0,0.0,1.3967,1.3661,1.3016,1.2991,1.3194,1.3586,1.3836,1.4118,1.4396,1.4857,1.5164,1.5311,1.5634,1.5908,0.0,0.0,0.0,0.0,1.7081,1.7235,1.7312,1.7585,1.7808,1.8008,1.8206,1.8544,1.8912,1.9114,1.9303,1.9489,1.9549,1.957,1.9621,1.9814,1.8992,1.8032,1.8285,1.7608,1.6789,1.6773,1.6922,1.7097,1.7239,1.7943,1.868,1.9095,1.9233,1.9409,1.9799,1.9879,1.9967,2.0225,2.0321,2.0454,2.0731,2.089,2.1054,2.1266,2.1407,2.1835,2.2775,2.3039,2.2997,2.2589,2.2645,2.3078,2.3999,2.3439,2.3132,2.3274,2.2716,2.2416,2.2498,2.2543,2.2646,2.2787,2.2838,2.2915,2.2967,2.2905,2.3274,0.9982,1.0415,1.0653,1.0374,1.0452,1.0526,1.0165,1.0025,0.9928,0.9818,1.0008,1.0168,1.0134,1.0342,1.0503,1.0446,1.0616,1.0949,0.0,0.0,0.0,0.0,0.0,0.0,0.0,0.0,0.0,0.0,0.0,0.0,0.0,1.4937,1.4617,1.3708,1.386,1.4012,1.414,1.4628,1.4937,1.5085,1.5555,1.5898,1.6141,1.6355,0.0,0.0,0.0,0.0,0.0,1.8218,1.8386,1.8473,1.8712,1.8883,1.9047,1.92,1.9444,1.9768,1.9995,2.0218,2.0404,2.0471,2.0553,2.0651,2.0863,2.0282,1.958,1.9625,1.9123,1.8587,1.8637,1.8733,1.8843,1.9022,1.9704,2.0371,2.0597,2.1147,2.1678,2.1917,2.165,2.1457,2.1642,2.1804,2.1962,2.2149,2.2709,2.3189,2.3389,2.3541,2.3786,2.4222,2.4415,2.4341,2.3932,2.4036,2.4279,2.4639,2.4524,2.452,2.4596,2.447,2.4413,2.4487,2.3964,2.3707,2.3757,2.3184,2.285,2.2807,2.334,2.366,0.0,1.025,1.0386,1.0141,1.0277,1.0402,1.0179,1.0145,1.0217,1.0459,1.0692,1.0924,1.1076,1.1235,1.1311,1.1161,1.1428,0.0,0.0,0.0,0.0,0.0,0.0,0.0,0.0,0.0,0.0,0.0,0.0,0.0,0.0,0.0,1.5579,1.4949,1.488,1.4903,1.5051,1.5456,1.5766,1.593,1.6352,1.6714,1.6993,1.7242,0.0,0.0,0.0,0.0,0.0,1.9118,1.9288,1.9368,1.9564,1.9743,1.9937,2.0147,2.0437,2.0734,2.1022,2.1225,2.1379,2.1467,2.1632,2.1809,2.1992,2.1586,2.105,2.1073,2.07,2.0323,2.0352,2.0472,2.0618,2.0777,2.1451,2.2087,2.2242,2.2747,2.32,2.337,2.3148,2.2968,2.3113,2.3244,2.3397,2.3518,2.4054,2.4484,2.4633,2.4755,2.4879,2.5025,2.5143,2.512,2.4905,2.4945,2.5017,2.5084,2.5167,2.5236,2.5312,2.534,2.5391,2.5444,2.496,2.4682,2.4641,2.4025,2.3653,2.3544,2.3982,2.4119,0.0,1.0638,1.0607,1.0607,1.0607,1.0619,1.0654,1.0665,0.0,1.1352,1.1492,1.1634,1.2017,1.2126,1.2011,1.1645,1.2012,0.0,0.0,0.0,0.0,0.0,0.0,0.0,0.0,0.0,0.0,0.0,0.0,0.0,0.0,0.0,1.6586,1.6586,1.6064,1.5898,1.6157,1.6321,1.657,1.6888,1.725,1.7585,1.7907,1.8252,0.0,0.0,0.0,0.0,0.0,1.9861,1.9952,2.0041,2.0244,2.0499,2.0749,2.107,2.1442,2.1811,2.2091,2.2275,2.2422,2.2552,2.2754,2.3003,2.3124,2.2805,2.2405,2.2552,2.23,2.1966,2.1978,2.2156,2.2363,2.2425,2.3071,2.3715,2.3896,2.3948,2.4008,2.4207,2.4304,2.4398,2.4518,2.4591,2.4698,2.4824,2.4936,2.5057,2.5119,2.5182,2.5243,2.5306,2.5383,2.5446,2.5496,2.5386,2.5341,2.5418,2.541,2.544,2.5503,2.5504,2.5507,2.5493,2.5487,2.544,2.5353,2.5164,2.5002,2.4866,2.474,2.4562,1.0246,0.0,0.9787,0.9787,0.9787,0.9883,0.0,1.0385,1.0529,1.1026,0.0,1.1792,1.1991,1.2287,1.2478,1.249,1.3106,0.0,0.0,0.0,0.0,0.0,0.0,0.0,0.0,0.0,0.0,0.0,0.0,0.0,0.0,0.0,1.7352,1.7482,1.7504,1.7286,1.679,1.7237,1.7551,1.7807,1.8302,1.865,1.8874,1.9173,0.0,0.0,0.0,0.0,2.0682,2.0975,2.1164,2.1305,2.1505,2.167,2.1845,2.2031,2.232,2.2652,2.2855,2.3058,2.324,2.3428,2.3573,2.3692,2.3822,2.3555,2.3252,2.3439,2.3494,2.3513,2.3616,2.3675,2.3768,2.3887,2.4062,2.4235,2.4344,2.4396,2.4497,2.4695,2.4796,2.4854,2.4939,2.5009,2.5097,2.5168,2.5206,2.5254,2.5328,2.5398,2.5469,2.5524,2.5538,2.5557,2.5584,2.5556,2.554,2.555,2.5542,2.5547,2.5492,2.5509,2.547,2.5426,2.5262,2.5147,2.5022,2.4865,2.473,2.4596,2.4459,2.4293,1.0677,1.0302,0.9827,0.9866,0.9866,0.9941,1.024,0.0,0.0,0.0,0.0,1.1983,1.2261,0.0,0.0,0.0,0.0,0.0,0.0,0.0,0.0,0.0,0.0,0.0,0.0,0.0,0.0,0.0,0.0,0.0,0.0,0.0,1.8316,1.8447,1.8669,1.8496,1.7821,1.8243,1.8574,1.8788,1.9203,1.951,1.9722,2.0091,0.0,0.0,0.0,0.0,2.1536,2.1786,2.1974,2.2088,2.2327,2.2512,2.2682,2.2838,2.3118,2.3412,2.3563,2.3746,2.393,2.4072,2.4217,2.4325,2.4441,2.4364,2.4211,2.4146,2.4244,2.4379,2.446,2.4527,2.4636,2.4693,2.4735,2.4789,2.4841,2.4896,2.4971,2.5096,2.5176,2.5247,2.5286,2.5318,2.5341,2.5385,2.5418,2.5449,2.5496,2.5523,2.5559,2.5605,2.5562,2.5548,2.5509,2.5477,2.5486,2.5553,2.5534,2.5498,2.5454,2.5399,2.5309,2.5168,2.4967,2.4823,2.4723,2.4524,2.4372,2.4275,2.4068,2.387,1.1186,1.095,1.0532,1.0611,1.0637,1.0637,1.0663,0.0,0.0,0.0,0.0,0.0,0.0,0.0,0.0,0.0,0.0,0.0,0.0,0.0,0.0,0.0,0.0,0.0,0.0,0.0,0.0,0.0,0.0,0.0,0.0,0.0,0.0,1.9354,1.9612,1.9558,1.9136,1.9284,1.9503,1.9793,2.006,2.03,2.0501,2.0943,2.126,0.0,0.0,0.0,2.2275,2.2489,2.2617,2.2716,2.2967,2.3183,2.3367,2.3559,2.3828,2.4109,2.422,2.4351,2.4514,2.458,2.4733,2.4886,2.4953,2.5056,2.5088,2.4757,2.4757,2.4879,2.4892,2.5017,2.5152,2.5153,2.5197,2.5266,2.5332,2.5345,2.5365,2.5421,2.5486,2.5511,2.5527,2.5521,2.5529,2.5515,2.5544,2.5586,2.5565,2.5579,2.5565,2.5563,2.5485,2.5435,2.5365,2.529,2.5282,2.5379,2.5366,2.5345,2.5326,2.52,2.5024,2.4821,2.4647,2.4501,2.4418,2.4173,2.4009,2.3925,2.3689,2.3457,1.094,1.1512,1.1934,1.213,1.2155,1.2197,1.2321,0.0,0.0,0.0,0.0,0.0,0.0,0.0,0.0,0.0,0.0,0.0,0.0,0.0,0.0,0.0,0.0,0.0,0.0,0.0,0.0,0.0,0.0,0.0,0.0,0.0,0.0,2.0052,2.0244,2.0483,2.0733,2.0333,2.0314,2.0697,2.0959,2.1213,2.1398,2.1702,2.195,0.0,0.0,2.2669,2.2972,2.3224,2.3441,2.361,2.3764,2.3916,2.4053,2.4146,2.4324,2.4546,2.4839,2.4968,2.5003,2.5075,2.5139,2.5249,2.5295,2.5375,2.5421,2.5354,2.5298,2.5245,2.5281,2.5331,2.536,2.5431,2.546,2.5465,2.5547,2.5541,2.5566,2.5564,2.5577,2.5584,2.5586,2.5585,2.5581,2.5576,2.5559,2.5494,2.5433,2.5432,2.5405,2.5345,2.5297,2.5216,2.5147,2.5083,2.4984,2.4822,2.5039,2.51,2.4981,2.478,2.4609,2.4483,2.4338,2.4164,2.3979,2.3888,2.3742,2.3565,2.347,2.3259,1.1673,1.2497,1.3178,1.3674,1.3438,1.3113,1.322,0.0,0.0,0.0,0.0,0.0,0.0,0.0,0.0,0.0,0.0,0.0,0.0,0.0,0.0,0.0,0.0,0.0,0.0,0.0,0.0,0.0,0.0,0.0,0.0,0.0,0.0,0.0,2.115,2.1413,2.164,2.1501,2.1457,2.1492,2.1687,2.1861,2.2048,2.2347,2.2577,2.2759,0.0,2.3294,2.3552,2.3777,2.3975,2.4146,2.4306,2.4433,2.4556,2.4724,2.4847,2.4952,2.5182,2.5264,2.5266,2.5337,2.5412,2.5471,2.5493,2.5547,2.5611,2.5602,2.5543,2.5477,2.5508,2.5526,2.5563,2.5566,2.5575,2.5622,2.5654,2.5641,2.5644,2.5602,2.5595,2.5586,2.5543,2.5547,2.5526,2.5493,2.5431,2.5362,2.5294,2.5262,2.5207,2.5156,2.5013,2.4911,2.4896,2.4714,2.464,2.4704,2.4707,2.467,2.4583,2.4389,2.4247,2.4183,2.3951,2.3788,2.3682,2.3513,2.3359,2.3235,2.3077,2.2881,1.1991,1.2885,1.3679,1.4603,0.0,1.4244,1.4511,0.0,0.0,0.0,0.0,0.0,0.0,0.0,0.0,0.0,0.0,0.0,0.0,0.0,0.0,0.0,0.0,0.0,0.0,0.0,0.0,0.0,0.0,0.0,0.0,0.0,0.0,0.0,2.1938,2.2167,2.2306,2.2476,2.2422,2.2169,2.232,2.2466,2.2591,2.2913,2.3146,2.3299,2.3613,2.3864,2.408,2.4264,2.4418,2.4586,2.475,2.4866,2.4968,2.5201,2.5272,2.5281,2.5409,2.5457,2.5454,2.5529,2.5577,2.5618,2.5618,2.5643,2.5684,2.5682,2.5644,2.5599,2.5618,2.5642,2.5664,2.5605,2.5643,2.568,2.5675,2.5669,2.5637,2.5582,2.5544,2.5517,2.546,2.5443,2.5403,2.5342,2.5269,2.518,2.5081,2.5022,2.4956,2.4891,2.4736,2.4606,2.4543,2.4292,2.4229,2.4415,2.4346,2.4266,2.4163,2.3981,2.386,2.3813,2.354,2.3375,2.3329,2.3109,2.2952,2.2881,2.2712,2.2511,1.0899,1.1854,1.2765,1.4261,1.5232,0.0,1.7005,1.7232,0.0,0.0,0.0,0.0,0.0,0.0,0.0,0.0,0.0,0.0,0.0,0.0,0.0,0.0,0.0,0.0,0.0,0.0,0.0,0.0,0.0,0.0,0.0,0.0,0.0,0.0,0.0,2.2546,2.2927,2.3007,2.292,2.2642,2.285,2.3017,2.3153,2.3432,2.3664,2.3854,2.4071,2.4309,2.4556,2.4689,2.4865,2.5055,2.5124,2.5249,2.5365,2.5455,2.5479,2.5484,2.5554,2.5588,2.5592,2.5657,2.5683,2.5682,2.5682,2.5656,2.5603,2.5606,2.5598,2.5608,2.5678,2.564,2.5615,2.5607,2.5594,2.5619,2.5609,2.5566,2.5517,2.5511,2.5406,2.5316,2.5327,2.5269,2.5203,2.5124,2.5006,2.4883,2.4745,2.4682,2.4615,2.4543,2.4458,2.4318,2.407,2.3811,2.3631,2.3581,2.3868,2.3947,2.3746,2.361,2.3444,2.3259,2.3157,2.304,2.285,2.2777,2.2659,2.2525,2.246,2.2248,1.1355,1.2505,1.3674,1.4766,0.0,0.0,0.0,0.0,0.0,0.0,0.0,0.0,0.0,0.0,0.0,0.0,0.0,0.0,0.0,0.0,0.0,0.0,0.0,0.0,0.0,0.0,0.0,0.0,0.0,0.0,0.0,0.0,0.0,0.0,0.0,2.33,2.3502,2.3653,2.3667,2.3577,2.3518,2.3595,2.3762,2.3906,2.4118,2.4345,2.45,2.4711,2.4929,2.5061,2.5168,2.524,2.5331,2.545,2.5532,2.5544,2.5597,2.5624,2.5657,2.5662,2.5664,2.5636,2.5643,2.5629,2.56,2.553,2.5479,2.5483,2.5453,2.5437,2.5552,2.5565,2.5532,2.5485,2.5483,2.5463,2.542,2.5383,2.5363,2.5315,2.5269,2.522,2.5182,2.5128,2.505,2.4987,2.4792,2.4625,2.4583,2.4407,2.4275,2.4257,2.4041,2.3801,2.3535,2.3365,2.3212,2.3067,2.3295,2.3406,2.3336,2.3152,2.3035,2.2952,2.2838,2.2751,2.2672,2.2511,2.2388,2.2257,2.2104,2.1915,1.1409,1.2432,1.3576,0.0,0.0,0.0,0.0,0.0,0.0,0.0,0.0,0.0,0.0,0.0,0.0,0.0,0.0,0.0,0.0,0.0,0.0,0.0,0.0,0.0,0.0,0.0,0.0,0.0,0.0,0.0,0.0,0.0,0.0,0.0,0.0,0.0,2.3991,2.4174,2.4284,2.4327,2.4228,2.4219,2.4256,2.4361,2.4516,2.4771,2.4897,2.5047,2.5205,2.5317,2.5375,2.5408,2.5512,2.5586,2.564,2.563,2.5641,2.5663,2.5677,2.5647,2.5632,2.5552,2.5522,2.5493,2.5424,2.5379,2.532,2.5311,2.5274,2.5245,2.5314,2.5379,2.5395,2.5352,2.5326,2.5288,2.5255,2.522,2.5198,2.5121,2.5049,2.4981,2.4883,2.4818,2.4757,2.4654,2.4474,2.4328,2.4275,2.4098,2.3951,2.3919,2.37,2.3422,2.3168,2.3057,2.2932,2.2751,2.2803,2.2881,2.2944,2.279,2.2685,2.2646,2.248,2.2398,2.2371,2.218,2.2003,2.1866,2.1691,2.1526,1.0791,1.1278,1.2054,0.0,0.0,0.0,0.0,0.0,0.0,0.0,0.0,0.0,0.0,0.0,0.0,0.0,0.0,0.0,0.0,0.0,0.0,0.0,0.0,0.0,0.0,0.0,0.0,0.0,0.0,0.0,0.0,0.0,0.0,0.0,0.0,0.0,2.4398,2.4551,2.4674,2.4816,2.4943,2.4865,2.4615,2.4745,2.4917,2.5101,2.5248,2.535,2.5418,2.5479,2.5534,2.56,2.5674,2.5701,2.5703,2.5702,2.5652,2.5608,2.5607,2.5561,2.5493,2.542,2.5348,2.5281,2.5216,2.5197,2.5175,2.5102,2.5105,2.5077,2.5006,2.5091,2.5186,2.5186,2.5149,2.5111,2.5105,2.505,2.498,2.4908,2.4727,2.4556,2.441,2.4337,2.4257,2.4116,2.4037,2.3955,2.3806,2.3742,2.3646,2.3515,2.3424,2.3289,2.3033,2.2863,2.2738,2.2592,2.2405,2.2377,2.2579,2.2542,2.2432,2.2296,2.2087,2.1969,2.1899,2.1694,2.1527,2.1386,2.1262,2.1103,1.1356,1.2734,0.0,0.0,0.0,0.0,0.0,0.0,0.0,0.0,0.0,0.0,0.0,0.0,0.0,0.0,0.0,0.0,0.0,0.0,0.0,0.0,0.0,0.0,0.0,0.0,0.0,0.0,0.0,0.0,0.0,0.0,0.0,0.0,0.0,0.0,2.4828,2.4962,2.5036,2.5075,2.5172,2.514,2.5024,2.5116,2.5211,2.532,2.5406,2.548,2.5544,2.5602,2.5653,2.5663,2.5683,2.5678,2.5621,2.5636,2.559,2.5539,2.5529,2.5499,2.5406,2.5292,2.5216,2.5152,2.5091,2.4962,2.4843,2.4821,2.479,2.4731,2.4673,2.4651,2.4674,2.4814,2.4821,2.4811,2.476,2.4734,2.4673,2.4564,2.4456,2.4345,2.4211,2.4126,2.4066,2.3959,2.3777,2.3562,2.3336,2.3289,2.3206,2.3028,2.294,2.2842,2.2659,2.2582,2.246,2.2324,2.2161,2.2175,2.2377,2.2175,2.2046,2.1945,2.1842,2.1736,2.163,2.1464,2.134,2.1246,2.0926,2.0729,1.1628,0.0,0.0,0.0,0.0,0.0,0.0,0.0,0.0,0.0,0.0,0.0,0.0,0.0,0.0,0.0,0.0,0.0,0.0,0.0,0.0,0.0,0.0,0.0,0.0,0.0,0.0,0.0,0.0,0.0,0.0,0.0,0.0,0.0,0.0,0.0,2.5116,2.5225,2.5293,2.5327,2.5383,2.5401,2.536,2.5379,2.5425,2.5486,2.5529,2.5588,2.5649,2.5644,2.5657,2.5668,2.5636,2.5591,2.5554,2.5539,2.5473,2.5425,2.5398,2.5326,2.521,2.5077,2.5,2.4929,2.4797,2.4685,2.4564,2.4528,2.4469,2.4409,2.4329,2.4275,2.4293,2.4486,2.452,2.4486,2.4418,2.4383,2.4329,2.4211,2.4108,2.3964,2.3819,2.37,2.3609,2.3513,2.3335,2.3164,2.3003,2.297,2.2876,2.2738,2.2685,2.2623,2.2474,2.2419,2.2352,2.2214,2.2017,2.1943,2.1974,2.1796,2.1676,2.1602,2.1433,2.1293,2.1214,2.1039,2.0909,2.0844,2.053,2.0359,1.1791,0.0,0.0,0.0,0.0,0.0,0.0,0.0,0.0,0.0,0.0,0.0,0.0,0.0,0.0,0.0,0.0,0.0,0.0,0.0,0.0,0.0,0.0,0.0,0.0,0.0,0.0,0.0,0.0,0.0,0.0,0.0,0.0,0.0,0.0,0.0,2.5312,2.5376,2.5453,0.0,2.5572,2.5605,2.5605,2.5546,2.5554,2.5602,2.5603,2.5623,2.5675,2.5626,2.5586,2.5578,2.5502,2.5483,2.5476,2.5418,2.5337,2.5269,2.5203,2.5097,2.4968,2.4832,2.4742,2.466,2.4451,2.4372,2.4337,2.422,2.4163,2.4116,2.3991,2.3949,2.3996,2.4144,2.4173,2.4144,2.4078,2.4011,2.3951,2.3886,2.3721,2.3518,2.3313,2.3163,2.3028,2.2889,2.2829,2.2777,2.2764,2.2712,2.2646,2.2582,2.2552,2.2515,2.2363,2.2349,2.2293,2.2154,2.1903,2.1661,2.1447,2.137,2.1308,2.123,2.0925,2.0761,2.0761,2.0495,2.034,2.0287,2.0133,2.0045,0.0,1.4712,0.0,0.0,0.0,0.0,0.0,0.0,0.0,0.0,0.0,0.0,0.0,0.0,0.0,0.0,0.0,0.0,0.0,0.0,0.0,0.0,0.0,0.0,0.0,0.0,0.0,0.0,0.0,0.0,0.0,0.0,0.0,0.0,0.0,2.4775,2.545,2.5522,2.5563,0.0,2.5593,2.5623,2.5683,2.5657,2.5641,2.5603,2.5606,2.5577,2.5541,2.5537,2.5498,2.5446,2.5425,2.5394,2.5321,2.5265,2.5205,2.5124,2.5063,2.4993,2.4879,2.47,2.4591,2.4512,2.4375,2.4257,2.4143,2.3998,2.3888,2.3785,2.3635,2.3609,2.3582,2.3394,2.3591,2.3788,2.3717,2.3696,2.3671,2.3598,2.3515,2.3365,2.3102,2.3008,2.2881,2.2699,2.2646,2.2592,2.2501,2.2474,2.2419,2.2296,2.2282,2.2209,2.2015,2.2001,2.193,2.1741,2.1527,2.1277,2.0958,2.099,2.0926,2.0746,2.0579,2.0461,2.0407,2.0254,2.0168,2.015,1.9957,1.9851,0.0,0.0,0.0,0.0,0.0,0.0,0.0,0.0,0.0,0.0,0.0,0.0,0.0,0.0,0.0,0.0,0.0,0.0,0.0,0.0,0.0,0.0,0.0,0.0,0.0,0.0,0.0,0.0,0.0,0.0,0.0,0.0,0.0,0.0,2.3822,2.4471,2.4971,2.5391,2.56,2.5605,2.5602,2.5607,2.5602,2.5631,2.5627,2.5549,2.5556,2.5513,2.5444,2.5418,2.539,2.5344,2.5279,2.5229,2.5143,2.5084,2.4993,2.4902,2.4825,2.4742,2.4637,2.4459,2.4338,2.4238,2.4058,2.3937,2.3821,2.362,2.3479,2.3376,2.3242,2.3199,2.3139,2.2977,2.3194,2.3388,2.3295,2.3254,2.3248,2.317,2.3114,2.3008,2.2803,2.2672,2.2569,2.2432,2.2405,2.2349,2.2175,2.2189,2.2147,2.202,2.2034,2.1991,2.1827,2.1796,2.1708,2.1465,2.1261,2.1007,2.0678,2.0562,2.0462,2.0361,2.0204,2.0098,2.0061,1.9957,1.9907,1.9907,1.9797,1.9744,0.0,0.0,0.0,0.0,0.0,0.0,0.0,0.0,0.0,0.0,0.0,0.0,0.0,0.0,0.0,0.0,0.0,0.0,0.0,0.0,0.0,0.0,0.0,0.0,0.0,0.0,0.0,0.0,0.0,0.0,0.0,0.0,2.1646,2.1806,2.3152,2.4039,2.4374,2.5038,2.544,2.5579,2.5568,2.5539,2.547,2.5515,2.552,2.5479,2.5469,2.5437,2.5365,2.5298,2.5248,2.5222,2.5115,2.5025,2.4942,2.4855,2.4753,2.4634,2.4551,2.4444,2.433,2.4173,2.4057,2.3927,2.3732,2.362,2.3504,2.3235,2.3119,2.3033,2.2893,2.2803,2.2764,2.2738,2.2868,2.297,2.2881,2.2868,2.2855,2.2777,2.2699,2.2605,2.2501,2.2394,2.2268,2.2214,2.2183,2.2109,2.1913,2.1911,2.1882,2.1751,2.1766,2.1736,2.1572,2.1556,2.1433,2.1167,2.0974,2.0746,2.0426,2.0185,2.003,2.003,1.9869,1.984,1.996,1.9906,1.9932,2.0052,2.0052,2.0052,0.0,0.0,0.0,0.0,0.0,0.0,0.0,0.0,0.0,0.0,0.0,0.0,0.0,0.0,0.0,0.0,0.0,0.0,0.0,0.0,0.0,0.0,0.0,0.0,0.0,0.0,0.0,0.0,0.0,0.0,0.0,2.0617,2.1012,2.1777,2.2012,2.2848,2.4303,2.4429,2.4812,2.5503,2.5451,2.5383,2.5327,2.5345,2.5361,2.5402,2.5354,2.5298,2.5231,2.5149,2.5068,2.4955,2.4923,2.4847,2.4719,2.4604,2.4516,2.4407,2.4229,2.4164,2.4107,2.3919,2.3837,2.3785,2.3587,2.347,2.3372,2.3089,2.2982,2.2881,2.2685,2.2632,2.2609,2.2487,2.2474,2.2542,2.2699,2.2725,2.2712,2.2632,2.2528,2.2432,2.2422,2.2352,2.2268,2.2214,2.2106,2.1986,2.1825,2.1768,2.1678,2.1479,2.1418,2.1293,2.1039,2.0942,2.0811,2.0545,2.0443,2.0304,2.0078,1.9919,1.9815,1.9747,1.9726,1.9992,2.0587,2.0554,2.0872,2.1425,2.1425,2.1425,0.0,0.0,0.0,0.0,0.0,0.0,0.0,0.0,0.0,0.0,0.0,0.0,0.0,0.0,0.0,0.0,0.0,0.0,0.0,0.0,0.0,0.0,0.0,0.0,0.0,0.0,0.0,0.0,0.0,0.0,2.0508,2.0505,2.0675,2.1061,2.1512,2.2332,2.3562,2.4012,2.4636,2.5387,2.5321,2.5244,2.5182,2.5109,2.5124,2.5234,2.516,2.5086,2.5013,2.4915,2.484,2.4787,2.4708,2.4623,2.4518,2.4417,2.4311,2.421,2.4039,2.3909,2.3803,2.3675,2.3531,2.3383,2.3271,2.3114,2.2982,2.2777,2.2672,2.2579,2.246,2.2391,2.2366,2.2296,2.2192,2.2147,2.2229,2.2346,2.2391,2.2245,2.2161,2.2104,2.2061,2.2049,2.1976,2.1875,2.1753,2.1569,2.1323,2.1308,2.123,2.1023,2.1039,2.0974,2.0696,2.0662,2.0527,2.0256,2.0202,2.0281,2.0446,2.0391,2.0497,2.0816,2.0453,2.0408,2.0703,2.1081,2.141,2.1695,2.1695,2.1695,0.0,0.0,0.0,0.0,0.0,0.0,0.0,0.0,0.0,0.0,0.0,0.0,0.0,0.0,0.0,0.0,0.0,0.0,0.0,0.0,0.0,0.0,0.0,0.0,0.0,0.0,0.0,0.0,0.0,0.0,2.0472,2.047,2.0469,2.046,2.1046,2.1754,2.2648,2.3639,2.4498,2.5222,2.5151,2.5087,2.4987,2.4895,2.4895,2.4955,2.4935,2.4888,2.4799,2.4696,2.4637,2.4596,2.4486,2.44,2.4293,2.4201,2.4095,2.3945,2.3782,2.3609,2.3458,2.3336,2.3187,2.302,2.2914,2.2803,2.2646,2.2515,2.2432,2.2377,2.2324,2.224,2.2183,2.2168,2.2003,2.1884,2.1884,2.1976,2.2022,2.1886,2.1825,2.1779,2.1736,2.1721,2.1693,2.1542,2.1418,2.1278,2.1099,2.1098,2.1111,2.1077,2.1163,2.1128,2.0901,2.085,2.0727,2.0512,2.0509,2.0649,2.1012,2.1027,2.1229,2.168,2.138,2.1216,2.1216,2.171,2.2024,2.2173,2.2173,2.2173,0.0,0.0,0.0,0.0,0.0,0.0,0.0,0.0,0.0,0.0,0.0,0.0,0.0,0.0,0.0,0.0,0.0,0.0,0.0,0.0,0.0,0.0,0.0,0.0,0.0,0.0,0.0,0.0,0.0,0.0,2.0411,2.0407,2.0405,2.0418,2.0379,2.0798,2.1655,2.3156,2.4287,2.5013,2.4948,2.484,2.473,2.4704,2.4642,2.4545,2.4657,2.4681,2.4615,2.4545,2.4445,2.4312,2.4312,2.4191,2.3998,2.3868,2.3739,2.3582,2.3319,2.3193,2.3077,2.2906,2.2829,2.279,2.2659,2.2605,2.2582,2.2446,2.2391,2.2377,2.2324,2.224,2.2168,2.2044,2.1913,2.1812,2.1812,2.1753,2.1724,2.1724,2.1616,2.1524,2.1524,2.1524,2.1462,2.134,2.1262,2.1311,2.1527,2.1514,2.1636,2.2082,2.208,2.2018,2.1926,2.1795,2.1697,2.1629,2.161,2.1625,2.1635,2.1635,2.1684,2.1695,2.2298,2.2598,2.2598,2.2628,2.2942,2.3505,2.3505,2.3505,0.0,0.0,0.0,0.0,0.0,0.0,0.0,0.0,0.0,0.0,0.0,0.0,0.0,0.0,0.0,0.0,0.0,0.0,0.0,0.0,0.0,0.0,0.0,0.0,0.0,0.0,0.0,0.0,0.0,0.0,2.0341,2.0343,2.0315,2.0264,2.0254,2.0862,2.2156,2.3749,2.4625,2.4808,2.4738,2.4662,2.4569,2.4469,2.4419,2.4375,2.4284,2.4311,2.4392,2.4238,2.4144,2.4095,2.3978,2.3878,2.3785,2.3664,2.3549,2.3441,2.3151,2.3008,2.2881,2.2725,2.2605,2.2525,2.2487,2.2432,2.2377,2.2296,2.2268,2.224,2.2075,2.1961,2.1784,2.1401,2.1229,2.1119,2.0991,2.123,2.1371,2.1167,2.1087,2.1023,2.0877,2.0861,2.0844,2.0745,2.099,2.1194,2.1206,2.1581,2.1839,2.1914,2.2013,2.1994,2.1881,2.1842,2.1763,2.1695,2.1695,2.1874,2.2328,2.2343,2.2517,2.2906,2.3146,2.3092,2.2703,2.3092,2.3385,2.3595,2.3595,2.3595,1.0941,0.0,0.0,0.0,0.0,0.0,0.0,0.0,0.0,0.0,0.0,0.0,0.0,0.0,0.0,0.0,0.0,0.0,0.0,0.0,0.0,0.0,0.0,0.0,0.0,0.0,0.0,0.0,0.0,0.0,2.0271,2.0254,2.0337,2.0532,2.0542,2.1282,2.2798,2.3855,2.4448,2.4602,2.4518,2.4469,2.4401,2.4266,2.4182,2.4115,2.3937,2.3986,2.4144,2.3968,2.3865,2.3813,2.3696,2.358,2.3491,2.3371,2.3259,2.3126,2.2919,2.2764,2.2646,2.2542,2.2432,2.2366,2.2366,2.2324,2.2254,2.2166,2.2094,2.2036,2.1871,2.1678,2.1402,2.091,2.0745,2.0645,2.0409,2.0696,2.0926,2.0712,2.0645,2.0595,2.046,2.0426,2.0486,2.0617,2.0929,2.128,2.158,2.1981,2.2304,2.238,2.247,2.2506,2.241,2.241,2.2404,2.2338,2.2338,2.2532,2.2987,2.3002,2.3176,2.3595,2.3595,2.3385,2.3002,2.34,2.3595,2.3595,2.3595,2.3595,0.0,0.0,0.0,0.0,0.0,0.0,0.0,0.0,0.0,0.0,0.0,0.0,0.0,0.0,0.0,0.0,0.0,0.0,0.0,0.0,0.0,0.0,0.0,0.0,0.0,0.0,0.0,0.0,0.0,2.0207,2.0188,2.0155,2.0449,2.1177,2.1247,2.1953,2.3382,2.342,2.3753,2.4389,2.4321,2.4257,2.418,2.4054,2.3917,2.3785,2.3649,2.3685,2.3865,2.3742,2.3602,2.3492,2.3481,2.3319,2.3077,2.3003,2.285,2.2672,2.2538,2.2446,2.2377,2.2324,2.2296,2.2296,2.2296,2.224,2.2168,2.203,2.1882,2.1783,2.1693,2.1419,2.1071,2.0679,2.0529,2.0409,2.0135,2.0239,2.0376,2.0393,2.0323,2.0287,2.0287,2.0302,2.0481,2.1017,2.1121,2.155,2.2657,2.2817,2.3032,2.3556,2.3595,2.3595,2.3595,2.3595,2.3595,2.3595,2.3595,2.3595,2.3595,2.3595,2.3595,2.3595,2.3595,2.3595,2.3595,2.3595,2.3595,2.3595,2.3595,2.3595,1.0293,0.0,0.0,0.0,0.0,0.0,0.0,0.0,0.0,0.0,0.0,0.0,0.0,0.0,0.0,0.0,0.0,0.0,0.0,0.0,0.0,0.0,0.0,0.0,0.0,0.0,0.0,0.0,2.0143,2.0084,1.9986,2.0465,2.0835,2.1041,2.2149,2.2891,2.3249,2.377,2.4117,2.4257,2.4134,2.4008,2.3907,2.3779,2.3671,2.3565,2.3342,2.3247,2.3242,2.3265,2.323,2.3199,2.3052,2.294,2.2881,2.2751,2.2672,2.2605,2.2474,2.2422,2.2394,2.2285,2.2242,2.2197,2.2046,2.2003,2.1945,2.1753,2.1617,2.1417,2.1007,2.0745,2.0492,2.022,2.008,1.9957,1.9851,1.9854,1.9907,1.9957,1.994,1.9922,1.9869,2.0273,2.0647,2.079,2.1652,2.237,2.2684,2.3119,2.3443,2.358,2.3595,2.3595,2.3595,2.3595,2.3595,2.3595,2.3595,2.3595,2.3595,2.3595,2.3595,2.3595,2.3595,2.3595,2.3595,2.3595,2.3595,2.3595,2.3595,2.3595,0.0,0.0,0.0,0.0,0.0,0.0,0.0,0.0,0.0,0.0,0.0,0.0,0.0,0.0,0.0,0.0,0.0,0.0,0.0,0.0,0.0,0.0,0.0,0.0,0.0,0.0,0.0,0.0,2.0005,2.0066,2.0264,2.0688,2.1206,2.1861,2.2742,2.3353,2.3618,2.4045,2.4209,2.4103,2.3917,2.3785,2.3707,2.3486,2.3354,2.3283,2.3028,2.2906,2.2829,2.2816,2.2842,2.2881,2.2764,2.2672,2.2619,2.2555,2.2487,2.2419,2.2352,2.2265,2.2178,2.2092,2.2036,2.1978,2.1857,2.1736,2.1616,2.1464,2.1246,2.0942,2.0496,2.0291,2.0227,2.0321,2.0273,2.0275,2.0486,2.0528,2.0456,2.0224,2.0179,2.0235,2.0486,2.0857,2.1216,2.1485,2.2209,2.2793,2.3047,2.337,2.3595,2.3595,2.3595,2.3595,2.3595,2.3595,2.3595,2.3595,2.3595,2.3595,2.3595,2.3595,2.3595,2.3595,2.3595,2.3744,2.4029,2.3744,2.3744,2.4007,2.4298,2.4433,0.0,0.0,0.0,0.0,0.0,0.0,0.0,1.5269,0.0,0.0,0.0,0.0,0.0,0.0,0.0,0.0,0.0,0.0,0.0,0.0,0.0,0.0,0.0,0.0,0.0,0.0,1.9205,1.9915,1.9929,2.0157,2.0748,2.0956,2.168,2.3044,2.3165,2.3528,2.4182,2.4162,2.4084,2.3947,2.3671,2.3547,2.3515,2.3199,2.3033,2.2927,2.2751,2.2632,2.2582,2.2432,2.246,2.2582,2.2582,2.2487,2.2394,2.2394,2.2296,2.2168,2.2154,2.2034,2.1884,2.184,2.1751,2.1649,2.1602,2.1433,2.1214,2.1119,2.0842,2.05,2.024,2.0231,2.0375,2.0798,2.0896,2.1057,2.158,2.1695,2.1545,2.1017,2.0853,2.1006,2.1605,2.1754,2.1994,2.2613,2.2763,2.3002,2.3535,2.3595,2.3595,2.3595,2.3595,2.3595,2.3595,2.3595,2.3595,2.3595,2.3595,2.3625,2.3714,2.3714,2.3744,2.3819,2.3819,2.4118,2.4709,2.4044,2.4073,2.4724,2.5307,2.5591,0.0,0.0,0.0,0.0,0.0,0.0,0.0,1.4684,0.0,0.0,0.0,0.0,0.0,0.0,0.0,0.0,0.0,0.0,0.0,0.0,0.0,0.0,0.0,0.0,0.0,0.0,1.9711,1.9757,2.0238,2.0578,2.0715,2.1902,2.2708,2.3004,2.3603,2.3977,2.4123,2.3907,2.3764,2.3671,2.3417,2.3223,2.3102,2.2876,2.2738,2.2672,2.2528,2.2446,2.2432,2.2349,2.2366,2.2432,2.2394,2.231,2.2225,2.2225,2.2123,2.1959,2.1886,2.1812,2.1693,2.1495,2.1402,2.1324,2.1055,2.0942,2.0844,2.0561,2.0672,2.0868,2.0706,2.102,2.1413,2.1509,2.1505,2.155,2.1665,2.1695,2.1814,2.2239,2.1859,2.1545,2.168,2.2164,2.2553,2.2673,2.3122,2.346,2.358,2.3595,2.3595,2.3595,2.3595,2.3595,2.3595,2.3595,2.3595,2.3595,2.3595,2.3849,2.438,2.4395,2.4649,2.5211,2.5211,2.5262,2.5397,2.4724,2.4754,2.5397,2.5555,2.5529,0.0,0.0,0.0,1.5805,0.0,0.0,0.0,0.0,0.0,0.0,0.0,0.0,0.0,0.0,0.0,0.0,0.0,0.0,0.0,0.0,0.0,0.0,0.0,0.0,0.0,0.0,1.9688,1.9564,2.023,2.0826,2.1234,2.2326,2.3134,2.3538,2.3845,2.3986,2.3937,2.375,2.3609,2.3497,2.3182,2.3008,2.2893,2.2659,2.2542,2.2501,2.2391,2.2352,2.2352,2.2282,2.2268,2.2296,2.2296,2.2254,2.2183,2.212,2.1928,2.169,2.1631,2.1448,2.123,2.1103,2.0958,2.0828,2.0646,2.0746,2.0965,2.1033,2.122,2.1379,2.1267,2.1479,2.1784,2.2134,2.2209,2.2283,2.2577,2.2652,2.2742,2.3071,2.2877,2.2652,2.2652,2.2921,2.3152,2.3152,2.34,2.3595,2.3595,2.3595,2.3595,2.3595,2.3595,2.3744,2.4066,2.4096,2.4253,2.4582,2.4597,2.4762,2.5083,2.5098,2.5247,2.56,2.5615,2.5764,2.6093,2.5764,2.5779,2.6108,2.6437,2.6514,0.0,0.0,0.0,0.0,0.0,1.6436,0.0,0.0,0.0,1.4799,0.0,0.0,0.0,0.0,0.0,0.0,0.0,0.0,0.0,0.0,0.0,0.0,0.0,0.0,0.0,0.0,1.9499,1.9387,2.0247,2.107,2.1714,2.2593,2.3359,2.3998,2.3915,2.3813,2.3742,2.3565,2.3412,2.3301,2.2982,2.279,2.2712,2.2487,2.2394,2.238,2.231,2.2282,2.2268,2.2183,2.214,2.214,2.2194,2.2166,2.2097,2.1943,2.1673,2.137,2.1276,2.1023,2.0744,2.0835,2.0774,2.0659,2.0659,2.0934,2.1299,2.1672,2.1873,2.1959,2.1909,2.1979,2.2203,2.2748,2.2868,2.3017,2.349,2.3595,2.3595,2.3595,2.3595,2.3595,2.3595,2.3595,2.3595,2.3595,2.3595,2.3595,2.3595,2.3714,2.3789,2.3789,2.3909,2.4208,2.4754,2.4784,2.5023,2.557,2.5615,2.5674,2.5794,2.5914,2.5989,2.5989,2.5989,2.6243,2.6806,2.6806,2.6806,2.6797,2.7335,2.7488,0.0,0.0,0.0,0.0,1.7873,0.0,0.0,0.0,1.4737,1.4703,0.0,0.0,0.0,0.0,0.0,0.0,0.0,0.0,0.0,0.0,0.0,0.0,0.0,0.0,0.0,0.0,0.0,1.9312,2.0612,2.1443,2.1534,2.2904,2.3715,2.3735,2.3675,2.3605,2.352,2.3223,2.3028,2.294,2.2672,2.2515,2.2432,2.2352,2.231,2.231,2.2225,2.2214,2.2214,2.2003,2.1901,2.1857,2.1913,2.1871,2.1739,2.154,2.1261,2.0942,2.0763,2.058,2.0503,2.0929,2.1325,2.1639,2.1639,2.1637,2.1629,2.1684,2.2134,2.2604,2.2583,2.2987,2.34,2.3475,2.349,2.352,2.3595,2.3595,2.3595,2.3595,2.3595,2.3595,2.3595,2.3595,2.3595,2.3595,2.3595,2.3595,2.3595,2.4111,2.4485,2.4485,2.5008,2.5405,2.5495,2.5495,2.5516,2.5615,2.5615,2.5869,2.6452,2.7061,2.7375,2.7375,2.7375,2.7405,2.748,2.748,2.748,2.748,2.7444,2.7299,0.0,0.0,0.0,0.0,0.0,0.0,0.0,0.0,1.4622,0.0,0.0,0.0,0.0,0.0,0.0,0.0,0.0,0.0,0.0,0.0,0.0,0.0,0.0,0.0,0.0,0.0,0.0,0.0,0.0,2.1431,2.1394,2.281,2.362,2.3569,2.3412,2.3283,2.3211,2.2952,2.279,2.2725,2.2525,2.2422,2.2338,2.2268,2.218,2.2061,2.2049,2.1976,2.1888,2.1676,2.157,2.1495,2.134,2.134,2.1449,2.1341,2.1023,2.0709,2.0962,2.0875,2.0713,2.1265,2.1592,2.1799,2.2189,2.2289,2.2358,2.2697,2.2996,2.3227,2.3227,2.34,2.3595,2.3595,2.3595,2.3595,2.3595,2.3595,2.3714,2.4096,2.4171,2.4291,2.4702,2.4118,2.3595,2.3595,2.3939,2.4171,2.4171,2.4769,2.5173,2.5173,2.5427,2.5764,2.6153,2.6183,2.6324,2.6614,2.657,2.6688,2.7046,2.7339,2.7539,2.76,2.7524,2.7488,2.7488,2.7335,2.7233,2.7233,2.735,2.7248,1.9692,0.0,0.0,0.0,0.0,0.0,0.0,0.0,0.0,0.0,0.0,0.0,0.0,0.0,0.0,0.0,0.0,0.0,0.0,0.0,0.0,0.0,0.0,0.0,0.0,0.0,0.0,0.0,0.0,0.0,2.1138,2.2547,2.3342,2.3319,2.3102,2.297,2.2893,2.2712,2.2579,2.2515,2.2391,2.2279,2.2194,2.2137,2.202,2.184,2.1796,2.1691,2.1572,2.1324,2.1182,2.1103,2.1,2.1079,2.1229,2.1211,2.0961,2.0727,2.1313,2.1443,2.1403,2.1819,2.2084,2.2308,2.2808,2.2957,2.3047,2.3475,2.3595,2.3595,2.3595,2.3595,2.3595,2.3595,2.3595,2.3655,2.3834,2.3879,2.4066,2.4739,2.4874,2.5023,2.5525,2.4792,2.4148,2.4148,2.456,2.4874,2.4874,2.5457,2.5869,2.5869,2.6033,2.6348,2.6811,2.6881,2.7016,2.7372,2.7248,2.7196,2.7299,2.7233,2.7244,2.7357,2.7244,2.7207,2.7207,2.6974,2.6858,2.6884,2.7026,2.6948,0.0,0.0,0.0,1.9499,0.0,0.0,0.0,0.0,1.5548,0.0,0.0,0.0,0.0,0.0,0.0,0.0,0.0,0.0,0.0,0.0,0.0,0.0,0.0,0.0,0.0,0.0,0.0,0.0,0.0,0.0,2.0767,2.2157,2.2893,2.2829,2.2751,2.2672,2.2605,2.2487,2.238,2.231,2.2225,2.2109,2.1897,2.1913,2.1842,2.1709,2.1494,2.1387,2.1294,2.0958,2.0745,2.066,2.1188,2.1275,2.11,2.1175,2.11,2.1053,2.159,2.2154,2.2643,2.2658,2.3056,2.3535,2.3565,2.3565,2.358,2.3595,2.3595,2.3595,2.3595,2.3595,2.3595,2.3595,2.3595,2.3789,2.4425,2.4575,2.4769,2.545,2.557,2.5561,2.5615,2.557,2.5555,2.5555,2.5555,2.557,2.557,2.6153,2.6581,2.6581,2.7151,2.754,2.757,2.757,2.7509,2.7401,2.7159,2.7003,2.7003,2.6829,2.6721,2.6736,2.6721,2.6736,2.6736,2.659,2.651,2.651,2.6404,2.619,0.0,0.0,1.9235,1.9235,0.0,0.0,0.0,0.0,0.0,0.0,0.0,0.0,0.0,0.0,0.0,0.0,0.0,0.0,0.0,0.0,0.0,0.0,0.0,0.0,0.0,0.0,0.0,0.0,0.0,0.0,0.0,2.1922,2.2685,2.2672,2.2569,2.2487,2.2474,2.2394,2.2296,2.2225,2.212,2.1974,2.1768,2.1631,2.1416,2.1166,2.1055,2.0893,2.0727,2.0978,2.1009,2.098,2.1466,2.161,2.1591,2.1725,2.1683,2.1601,2.2199,2.2783,2.3295,2.3295,2.343,2.3595,2.3595,2.3595,2.3595,2.3595,2.3595,2.3595,2.3595,2.3939,2.4261,2.4261,2.459,2.5001,2.5202,2.5247,2.5457,2.6138,2.6258,2.6368,2.6733,2.6783,2.6534,2.5726,2.5974,2.6258,2.6258,2.6866,2.722,2.7135,2.7329,2.7401,2.7222,2.6997,2.6852,2.6814,2.6539,2.6433,2.6525,2.6406,2.6338,2.6431,2.6258,2.615,2.615,2.619,2.6231,2.6245,2.6231,2.6246,2.0116,2.0014,0.0,1.9892,1.9063,0.0,1.8193,0.0,0.0,0.0,0.0,0.0,0.0,0.0,0.0,0.0,0.0,0.0,0.0,0.0,0.0,0.0,0.0,0.0,0.0,0.0,1.5201,1.5948,0.0,0.0,0.0,0.0,2.2501,2.2501,2.2405,2.2349,2.2338,2.2282,2.2183,2.2007,2.193,2.1751,2.148,2.1356,2.1103,2.0778,2.0945,2.0869,2.069,2.1207,2.1386,2.1406,2.1913,2.2124,2.2144,2.2279,2.2375,2.2495,2.2888,2.3266,2.3595,2.3595,2.3595,2.364,2.3879,2.3969,2.4014,2.4238,2.4313,2.4313,2.4313,2.4619,2.4948,2.4948,2.5254,2.5604,2.5842,2.5854,2.6009,2.6688,2.6847,2.6996,2.7276,2.7376,2.7104,2.6292,2.6579,2.6872,2.6872,2.7305,2.7549,2.7427,2.7401,2.7299,2.7029,2.6698,2.6484,2.6431,2.6295,2.6272,2.6299,2.6246,2.6273,2.6372,2.6131,2.6031,2.6117,2.614,2.6169,2.6242,2.6121,2.6232]}]]